<?xml version="1.0" encoding="UTF-8" standalone="no" ?>
<gpx xmlns="http://www.topografix.com/GPX/1/1" xmlns:xsi="http://www.w3.org/2001/XMLSchema-instance" xsi:schemaLocation="http://www.topografix.com/GPX/1/1 http://www.topografix.com/GPX/1/1/gpx.xsd" version="1.1" creator="VisuGPX - https://www.visugpx.com">
  <metadata>
    <name>Rando : Le Travers &amp;gt; Chalas</name>
  </metadata>
  <trk>
    <name><![CDATA[Le Travers > Chalas]]></name>
    <trkseg>
      <trkpt lat="44.54364" lon="4.12636">
        <ele>586.40002441406</ele>
        <time>2015-05-31T06:44:19.000Z</time>
      </trkpt>
      <trkpt lat="44.54381" lon="4.12641">
        <ele>588.40002441406</ele>
        <time>2015-05-31T06:44:35.000Z</time>
      </trkpt>
      <trkpt lat="44.54385" lon="4.12641">
        <ele>588.59997558594</ele>
        <time>2015-05-31T06:44:38.000Z</time>
      </trkpt>
      <trkpt lat="44.54405" lon="4.1264">
        <ele>591.59997558594</ele>
        <time>2015-05-31T06:44:56.000Z</time>
      </trkpt>
      <trkpt lat="44.54422" lon="4.12635">
        <ele>597.40002441406</ele>
        <time>2015-05-31T06:45:13.000Z</time>
      </trkpt>
      <trkpt lat="44.54441" lon="4.12632">
        <ele>603</ele>
        <time>2015-05-31T06:45:30.000Z</time>
      </trkpt>
      <trkpt lat="44.54455" lon="4.12629">
        <ele>606.59997558594</ele>
        <time>2015-05-31T06:45:46.000Z</time>
      </trkpt>
      <trkpt lat="44.54475" lon="4.12631">
        <ele>607.20001220703</ele>
        <time>2015-05-31T06:46:01.000Z</time>
      </trkpt>
      <trkpt lat="44.54489" lon="4.12635">
        <ele>606.79998779297</ele>
        <time>2015-05-31T06:46:15.000Z</time>
      </trkpt>
      <trkpt lat="44.54509" lon="4.1264">
        <ele>606.59997558594</ele>
        <time>2015-05-31T06:46:32.000Z</time>
      </trkpt>
      <trkpt lat="44.54525" lon="4.12637">
        <ele>608.59997558594</ele>
        <time>2015-05-31T06:46:46.000Z</time>
      </trkpt>
      <trkpt lat="44.54541" lon="4.1263">
        <ele>611.40002441406</ele>
        <time>2015-05-31T06:47:04.000Z</time>
      </trkpt>
      <trkpt lat="44.54561" lon="4.12634">
        <ele>611.40002441406</ele>
        <time>2015-05-31T06:47:19.000Z</time>
      </trkpt>
      <trkpt lat="44.54585" lon="4.12637">
        <ele>611.40002441406</ele>
        <time>2015-05-31T06:47:34.000Z</time>
      </trkpt>
      <trkpt lat="44.54587" lon="4.12639">
        <ele>611</ele>
        <time>2015-05-31T06:47:36.000Z</time>
      </trkpt>
      <trkpt lat="44.5459" lon="4.12647">
        <ele>608.79998779297</ele>
        <time>2015-05-31T06:47:42.000Z</time>
      </trkpt>
      <trkpt lat="44.54591" lon="4.12654">
        <ele>607</ele>
        <time>2015-05-31T06:47:46.000Z</time>
      </trkpt>
      <trkpt lat="44.54595" lon="4.12668">
        <ele>603.20001220703</ele>
        <time>2015-05-31T06:47:56.000Z</time>
      </trkpt>
      <trkpt lat="44.54599" lon="4.12682">
        <ele>599.59997558594</ele>
        <time>2015-05-31T06:48:04.000Z</time>
      </trkpt>
      <trkpt lat="44.54603" lon="4.12698">
        <ele>595.59997558594</ele>
        <time>2015-05-31T06:48:16.000Z</time>
      </trkpt>
      <trkpt lat="44.54603" lon="4.12701">
        <ele>595</ele>
        <time>2015-05-31T06:48:18.000Z</time>
      </trkpt>
      <trkpt lat="44.54611" lon="4.12727">
        <ele>591.79998779297</ele>
        <time>2015-05-31T06:48:34.000Z</time>
      </trkpt>
      <trkpt lat="44.54623" lon="4.12755">
        <ele>590.59997558594</ele>
        <time>2015-05-31T06:48:50.000Z</time>
      </trkpt>
      <trkpt lat="44.54629" lon="4.1278">
        <ele>588.79998779297</ele>
        <time>2015-05-31T06:49:05.000Z</time>
      </trkpt>
      <trkpt lat="44.54635" lon="4.1281">
        <ele>586.40002441406</ele>
        <time>2015-05-31T06:49:22.000Z</time>
      </trkpt>
      <trkpt lat="44.54648" lon="4.12844">
        <ele>586.59997558594</ele>
        <time>2015-05-31T06:49:42.000Z</time>
      </trkpt>
      <trkpt lat="44.54656" lon="4.12857">
        <ele>587.40002441406</ele>
        <time>2015-05-31T06:49:55.000Z</time>
      </trkpt>
      <trkpt lat="44.54677" lon="4.12862">
        <ele>592.40002441406</ele>
        <time>2015-05-31T06:50:12.000Z</time>
      </trkpt>
      <trkpt lat="44.547" lon="4.12866">
        <ele>597.40002441406</ele>
        <time>2015-05-31T06:50:31.000Z</time>
      </trkpt>
      <trkpt lat="44.54718" lon="4.12871">
        <ele>600.20001220703</ele>
        <time>2015-05-31T06:50:47.000Z</time>
      </trkpt>
      <trkpt lat="44.54739" lon="4.12878">
        <ele>603.40002441406</ele>
        <time>2015-05-31T06:51:04.000Z</time>
      </trkpt>
      <trkpt lat="44.54757" lon="4.12886">
        <ele>605.79998779297</ele>
        <time>2015-05-31T06:51:20.000Z</time>
      </trkpt>
      <trkpt lat="44.54765" lon="4.12891">
        <ele>606.79998779297</ele>
        <time>2015-05-31T06:51:28.000Z</time>
      </trkpt>
      <trkpt lat="44.54768" lon="4.12891">
        <ele>607.40002441406</ele>
        <time>2015-05-31T06:51:30.000Z</time>
      </trkpt>
      <trkpt lat="44.54772" lon="4.12893">
        <ele>607.79998779297</ele>
        <time>2015-05-31T06:51:34.000Z</time>
      </trkpt>
      <trkpt lat="44.54785" lon="4.12898">
        <ele>609.40002441406</ele>
        <time>2015-05-31T06:51:49.000Z</time>
      </trkpt>
      <trkpt lat="44.54801" lon="4.12911">
        <ele>607.79998779297</ele>
        <time>2015-05-31T06:52:05.000Z</time>
      </trkpt>
      <trkpt lat="44.54806" lon="4.12914">
        <ele>607.40002441406</ele>
        <time>2015-05-31T06:52:10.000Z</time>
      </trkpt>
      <trkpt lat="44.5482" lon="4.12921">
        <ele>607.40002441406</ele>
        <time>2015-05-31T06:52:20.000Z</time>
      </trkpt>
      <trkpt lat="44.54844" lon="4.12933">
        <ele>606.79998779297</ele>
        <time>2015-05-31T06:52:39.000Z</time>
      </trkpt>
      <trkpt lat="44.54864" lon="4.12941">
        <ele>607.20001220703</ele>
        <time>2015-05-31T06:52:55.000Z</time>
      </trkpt>
      <trkpt lat="44.54888" lon="4.12946">
        <ele>604.79998779297</ele>
        <time>2015-05-31T06:53:13.000Z</time>
      </trkpt>
      <trkpt lat="44.54908" lon="4.12932">
        <ele>609</ele>
        <time>2015-05-31T06:53:31.000Z</time>
      </trkpt>
      <trkpt lat="44.54932" lon="4.12923">
        <ele>611</ele>
        <time>2015-05-31T06:53:52.000Z</time>
      </trkpt>
      <trkpt lat="44.54939" lon="4.12922">
        <ele>610.40002441406</ele>
        <time>2015-05-31T06:53:58.000Z</time>
      </trkpt>
      <trkpt lat="44.54944" lon="4.12921">
        <ele>610</ele>
        <time>2015-05-31T06:54:02.000Z</time>
      </trkpt>
      <trkpt lat="44.54966" lon="4.1292">
        <ele>605.59997558594</ele>
        <time>2015-05-31T06:54:20.000Z</time>
      </trkpt>
      <trkpt lat="44.54987" lon="4.12905">
        <ele>604.40002441406</ele>
        <time>2015-05-31T06:54:39.000Z</time>
      </trkpt>
      <trkpt lat="44.54981" lon="4.12875">
        <ele>611.79998779297</ele>
        <time>2015-05-31T06:54:57.000Z</time>
      </trkpt>
      <trkpt lat="44.54979" lon="4.12844">
        <ele>617.40002441406</ele>
        <time>2015-05-31T06:55:16.000Z</time>
      </trkpt>
      <trkpt lat="44.54978" lon="4.12818">
        <ele>623.40002441406</ele>
        <time>2015-05-31T06:55:32.000Z</time>
      </trkpt>
      <trkpt lat="44.54978" lon="4.12813">
        <ele>624.40002441406</ele>
        <time>2015-05-31T06:55:35.000Z</time>
      </trkpt>
      <trkpt lat="44.54977" lon="4.12808">
        <ele>625.79998779297</ele>
        <time>2015-05-31T06:55:39.000Z</time>
      </trkpt>
      <trkpt lat="44.54978" lon="4.12784">
        <ele>631</ele>
        <time>2015-05-31T06:55:54.000Z</time>
      </trkpt>
      <trkpt lat="44.54982" lon="4.12771">
        <ele>632.59997558594</ele>
        <time>2015-05-31T06:56:03.000Z</time>
      </trkpt>
      <trkpt lat="44.54984" lon="4.12767">
        <ele>633</ele>
        <time>2015-05-31T06:56:06.000Z</time>
      </trkpt>
      <trkpt lat="44.54996" lon="4.12756">
        <ele>630.59997558594</ele>
        <time>2015-05-31T06:56:20.000Z</time>
      </trkpt>
      <trkpt lat="44.55016" lon="4.12758">
        <ele>621</ele>
        <time>2015-05-31T06:56:37.000Z</time>
      </trkpt>
      <trkpt lat="44.55026" lon="4.12756">
        <ele>618.59997558594</ele>
        <time>2015-05-31T06:56:45.000Z</time>
      </trkpt>
      <trkpt lat="44.55044" lon="4.12754">
        <ele>616.59997558594</ele>
        <time>2015-05-31T06:57:01.000Z</time>
      </trkpt>
      <trkpt lat="44.55049" lon="4.12754">
        <ele>616.79998779297</ele>
        <time>2015-05-31T06:57:05.000Z</time>
      </trkpt>
      <trkpt lat="44.55069" lon="4.12755">
        <ele>616.59997558594</ele>
        <time>2015-05-31T06:57:23.000Z</time>
      </trkpt>
      <trkpt lat="44.55083" lon="4.12752">
        <ele>618</ele>
        <time>2015-05-31T06:57:37.000Z</time>
      </trkpt>
      <trkpt lat="44.55103" lon="4.12748">
        <ele>619.59997558594</ele>
        <time>2015-05-31T06:57:52.000Z</time>
      </trkpt>
      <trkpt lat="44.55121" lon="4.12744">
        <ele>622</ele>
        <time>2015-05-31T06:58:06.000Z</time>
      </trkpt>
      <trkpt lat="44.55136" lon="4.12744">
        <ele>621.20001220703</ele>
        <time>2015-05-31T06:58:19.000Z</time>
      </trkpt>
      <trkpt lat="44.55153" lon="4.12748">
        <ele>619.20001220703</ele>
        <time>2015-05-31T06:58:32.000Z</time>
      </trkpt>
      <trkpt lat="44.55178" lon="4.12753">
        <ele>616</ele>
        <time>2015-05-31T06:58:51.000Z</time>
      </trkpt>
      <trkpt lat="44.55197" lon="4.12755">
        <ele>614</ele>
        <time>2015-05-31T06:59:07.000Z</time>
      </trkpt>
      <trkpt lat="44.55215" lon="4.12764">
        <ele>612.59997558594</ele>
        <time>2015-05-31T06:59:23.000Z</time>
      </trkpt>
      <trkpt lat="44.5523" lon="4.12776">
        <ele>610.79998779297</ele>
        <time>2015-05-31T06:59:38.000Z</time>
      </trkpt>
      <trkpt lat="44.55242" lon="4.12785">
        <ele>609</ele>
        <time>2015-05-31T06:59:50.000Z</time>
      </trkpt>
      <trkpt lat="44.55262" lon="4.12801">
        <ele>606.20001220703</ele>
        <time>2015-05-31T07:00:07.000Z</time>
      </trkpt>
      <trkpt lat="44.55281" lon="4.12818">
        <ele>602.59997558594</ele>
        <time>2015-05-31T07:00:24.000Z</time>
      </trkpt>
      <trkpt lat="44.55292" lon="4.1283">
        <ele>602</ele>
        <time>2015-05-31T07:00:35.000Z</time>
      </trkpt>
      <trkpt lat="44.5531" lon="4.12849">
        <ele>601.79998779297</ele>
        <time>2015-05-31T07:00:54.000Z</time>
      </trkpt>
      <trkpt lat="44.55312" lon="4.12851">
        <ele>601.59997558594</ele>
        <time>2015-05-31T07:00:56.000Z</time>
      </trkpt>
      <trkpt lat="44.55317" lon="4.12858">
        <ele>601</ele>
        <time>2015-05-31T07:01:02.000Z</time>
      </trkpt>
      <trkpt lat="44.55335" lon="4.1288">
        <ele>600.40002441406</ele>
        <time>2015-05-31T07:01:21.000Z</time>
      </trkpt>
      <trkpt lat="44.55348" lon="4.12895">
        <ele>600.79998779297</ele>
        <time>2015-05-31T07:01:36.000Z</time>
      </trkpt>
      <trkpt lat="44.55361" lon="4.12912">
        <ele>600</ele>
        <time>2015-05-31T07:01:52.000Z</time>
      </trkpt>
      <trkpt lat="44.55372" lon="4.12929">
        <ele>597.40002441406</ele>
        <time>2015-05-31T07:02:06.000Z</time>
      </trkpt>
      <trkpt lat="44.55386" lon="4.12945">
        <ele>593.79998779297</ele>
        <time>2015-05-31T07:02:22.000Z</time>
      </trkpt>
      <trkpt lat="44.55404" lon="4.12954">
        <ele>594.59997558594</ele>
        <time>2015-05-31T07:02:37.000Z</time>
      </trkpt>
      <trkpt lat="44.55423" lon="4.1295">
        <ele>599.20001220703</ele>
        <time>2015-05-31T07:02:54.000Z</time>
      </trkpt>
      <trkpt lat="44.55445" lon="4.12948">
        <ele>603.59997558594</ele>
        <time>2015-05-31T07:03:13.000Z</time>
      </trkpt>
      <trkpt lat="44.55461" lon="4.12947">
        <ele>603.59997558594</ele>
        <time>2015-05-31T07:03:28.000Z</time>
      </trkpt>
      <trkpt lat="44.55483" lon="4.12942">
        <ele>603</ele>
        <time>2015-05-31T07:03:45.000Z</time>
      </trkpt>
      <trkpt lat="44.55503" lon="4.12921">
        <ele>611.79998779297</ele>
        <time>2015-05-31T07:04:05.000Z</time>
      </trkpt>
      <trkpt lat="44.55512" lon="4.12905">
        <ele>615.40002441406</ele>
        <time>2015-05-31T07:04:17.000Z</time>
      </trkpt>
      <trkpt lat="44.55524" lon="4.12885">
        <ele>616.79998779297</ele>
        <time>2015-05-31T07:04:33.000Z</time>
      </trkpt>
      <trkpt lat="44.55531" lon="4.12867">
        <ele>619.40002441406</ele>
        <time>2015-05-31T07:04:44.000Z</time>
      </trkpt>
      <trkpt lat="44.55536" lon="4.12834">
        <ele>630.59997558594</ele>
        <time>2015-05-31T07:05:05.000Z</time>
      </trkpt>
      <trkpt lat="44.55541" lon="4.12812">
        <ele>636.59997558594</ele>
        <time>2015-05-31T07:05:20.000Z</time>
      </trkpt>
      <trkpt lat="44.55544" lon="4.12798">
        <ele>640.59997558594</ele>
        <time>2015-05-31T07:05:32.000Z</time>
      </trkpt>
      <trkpt lat="44.55546" lon="4.12794">
        <ele>641.79998779297</ele>
        <time>2015-05-31T07:05:35.000Z</time>
      </trkpt>
      <trkpt lat="44.55554" lon="4.12768">
        <ele>646</ele>
        <time>2015-05-31T07:05:52.000Z</time>
      </trkpt>
      <trkpt lat="44.55562" lon="4.12754">
        <ele>644.59997558594</ele>
        <time>2015-05-31T07:06:04.000Z</time>
      </trkpt>
      <trkpt lat="44.55578" lon="4.12743">
        <ele>637.59997558594</ele>
        <time>2015-05-31T07:06:20.000Z</time>
      </trkpt>
      <trkpt lat="44.55593" lon="4.12721">
        <ele>638.59997558594</ele>
        <time>2015-05-31T07:06:39.000Z</time>
      </trkpt>
      <trkpt lat="44.55599" lon="4.12706">
        <ele>641.59997558594</ele>
        <time>2015-05-31T07:06:54.000Z</time>
      </trkpt>
      <trkpt lat="44.55606" lon="4.12701">
        <ele>640.79998779297</ele>
        <time>2015-05-31T07:07:03.000Z</time>
      </trkpt>
      <trkpt lat="44.55624" lon="4.1269">
        <ele>638.20001220703</ele>
        <time>2015-05-31T07:07:19.000Z</time>
      </trkpt>
      <trkpt lat="44.55626" lon="4.12686">
        <ele>639</ele>
        <time>2015-05-31T07:07:23.000Z</time>
      </trkpt>
      <trkpt lat="44.55629" lon="4.12677">
        <ele>641.40002441406</ele>
        <time>2015-05-31T07:07:30.000Z</time>
      </trkpt>
      <trkpt lat="44.55633" lon="4.12672">
        <ele>642.40002441406</ele>
        <time>2015-05-31T07:07:49.000Z</time>
      </trkpt>
      <trkpt lat="44.55639" lon="4.12668">
        <ele>642.79998779297</ele>
        <time>2015-05-31T07:08:02.000Z</time>
      </trkpt>
      <trkpt lat="44.55649" lon="4.12658">
        <ele>644.20001220703</ele>
        <time>2015-05-31T07:08:16.000Z</time>
      </trkpt>
      <trkpt lat="44.55655" lon="4.12662">
        <ele>642.40002441406</ele>
        <time>2015-05-31T07:08:28.000Z</time>
      </trkpt>
      <trkpt lat="44.55656" lon="4.12662">
        <ele>642</ele>
        <time>2015-05-31T07:08:29.000Z</time>
      </trkpt>
      <trkpt lat="44.5567" lon="4.12666">
        <ele>638.59997558594</ele>
        <time>2015-05-31T07:08:41.000Z</time>
      </trkpt>
      <trkpt lat="44.55685" lon="4.1267">
        <ele>635.59997558594</ele>
        <time>2015-05-31T07:08:53.000Z</time>
      </trkpt>
      <trkpt lat="44.55696" lon="4.12674">
        <ele>633</ele>
        <time>2015-05-31T07:09:06.000Z</time>
      </trkpt>
      <trkpt lat="44.55709" lon="4.12677">
        <ele>632.20001220703</ele>
        <time>2015-05-31T07:09:18.000Z</time>
      </trkpt>
      <trkpt lat="44.55719" lon="4.12678">
        <ele>633</ele>
        <time>2015-05-31T07:09:32.000Z</time>
      </trkpt>
      <trkpt lat="44.55741" lon="4.12673">
        <ele>636.40002441406</ele>
        <time>2015-05-31T07:09:45.000Z</time>
      </trkpt>
      <trkpt lat="44.5576" lon="4.12673">
        <ele>638.20001220703</ele>
        <time>2015-05-31T07:10:00.000Z</time>
      </trkpt>
      <trkpt lat="44.5577" lon="4.12679">
        <ele>636.79998779297</ele>
        <time>2015-05-31T07:10:07.000Z</time>
      </trkpt>
      <trkpt lat="44.55782" lon="4.12699">
        <ele>631</ele>
        <time>2015-05-31T07:10:22.000Z</time>
      </trkpt>
      <trkpt lat="44.55788" lon="4.12714">
        <ele>627.59997558594</ele>
        <time>2015-05-31T07:10:32.000Z</time>
      </trkpt>
      <trkpt lat="44.55789" lon="4.12718">
        <ele>626.59997558594</ele>
        <time>2015-05-31T07:10:35.000Z</time>
      </trkpt>
      <trkpt lat="44.55793" lon="4.1273">
        <ele>624.20001220703</ele>
        <time>2015-05-31T07:10:43.000Z</time>
      </trkpt>
      <trkpt lat="44.55807" lon="4.12746">
        <ele>622.79998779297</ele>
        <time>2015-05-31T07:10:59.000Z</time>
      </trkpt>
      <trkpt lat="44.55819" lon="4.12751">
        <ele>624.79998779297</ele>
        <time>2015-05-31T07:11:14.000Z</time>
      </trkpt>
      <trkpt lat="44.5583" lon="4.12757">
        <ele>626</ele>
        <time>2015-05-31T07:11:28.000Z</time>
      </trkpt>
      <trkpt lat="44.55848" lon="4.12757">
        <ele>631</ele>
        <time>2015-05-31T07:11:42.000Z</time>
      </trkpt>
      <trkpt lat="44.55866" lon="4.12756">
        <ele>636</ele>
        <time>2015-05-31T07:11:56.000Z</time>
      </trkpt>
      <trkpt lat="44.55884" lon="4.12755">
        <ele>637.40002441406</ele>
        <time>2015-05-31T07:12:11.000Z</time>
      </trkpt>
      <trkpt lat="44.55902" lon="4.12753">
        <ele>638.59997558594</ele>
        <time>2015-05-31T07:12:28.000Z</time>
      </trkpt>
      <trkpt lat="44.55919" lon="4.12751">
        <ele>640</ele>
        <time>2015-05-31T07:12:43.000Z</time>
      </trkpt>
      <trkpt lat="44.55936" lon="4.1275">
        <ele>644.40002441406</ele>
        <time>2015-05-31T07:12:59.000Z</time>
      </trkpt>
      <trkpt lat="44.55939" lon="4.12749">
        <ele>645.59997558594</ele>
        <time>2015-05-31T07:13:14.000Z</time>
      </trkpt>
      <trkpt lat="44.5594" lon="4.12747">
        <ele>647.40002441406</ele>
        <time>2015-05-31T07:13:45.000Z</time>
      </trkpt>
      <trkpt lat="44.55941" lon="4.12746">
        <ele>648</ele>
        <time>2015-05-31T07:14:00.000Z</time>
      </trkpt>
      <trkpt lat="44.55943" lon="4.12745">
        <ele>649</ele>
        <time>2015-05-31T07:14:02.000Z</time>
      </trkpt>
      <trkpt lat="44.55952" lon="4.12746">
        <ele>651.59997558594</ele>
        <time>2015-05-31T07:14:10.000Z</time>
      </trkpt>
      <trkpt lat="44.55957" lon="4.12745">
        <ele>652.40002441406</ele>
        <time>2015-05-31T07:14:14.000Z</time>
      </trkpt>
      <trkpt lat="44.5596" lon="4.12745">
        <ele>653</ele>
        <time>2015-05-31T07:14:17.000Z</time>
      </trkpt>
      <trkpt lat="44.55976" lon="4.1275">
        <ele>651.40002441406</ele>
        <time>2015-05-31T07:14:32.000Z</time>
      </trkpt>
      <trkpt lat="44.55994" lon="4.12752">
        <ele>652.59997558594</ele>
        <time>2015-05-31T07:14:47.000Z</time>
      </trkpt>
      <trkpt lat="44.56011" lon="4.12754">
        <ele>653.20001220703</ele>
        <time>2015-05-31T07:15:01.000Z</time>
      </trkpt>
      <trkpt lat="44.56024" lon="4.12754">
        <ele>652.59997558594</ele>
        <time>2015-05-31T07:15:15.000Z</time>
      </trkpt>
      <trkpt lat="44.56028" lon="4.12754">
        <ele>652.59997558594</ele>
        <time>2015-05-31T07:15:19.000Z</time>
      </trkpt>
      <trkpt lat="44.5604" lon="4.12748">
        <ele>654</ele>
        <time>2015-05-31T07:15:29.000Z</time>
      </trkpt>
      <trkpt lat="44.56055" lon="4.12725">
        <ele>662.20001220703</ele>
        <time>2015-05-31T07:15:49.000Z</time>
      </trkpt>
      <trkpt lat="44.56062" lon="4.12701">
        <ele>666.59997558594</ele>
        <time>2015-05-31T07:16:06.000Z</time>
      </trkpt>
      <trkpt lat="44.56066" lon="4.1268">
        <ele>670</ele>
        <time>2015-05-31T07:16:21.000Z</time>
      </trkpt>
      <trkpt lat="44.5607" lon="4.12656">
        <ele>674.40002441406</ele>
        <time>2015-05-31T07:16:38.000Z</time>
      </trkpt>
      <trkpt lat="44.56078" lon="4.12631">
        <ele>676.59997558594</ele>
        <time>2015-05-31T07:16:55.000Z</time>
      </trkpt>
      <trkpt lat="44.56085" lon="4.12615">
        <ele>677.20001220703</ele>
        <time>2015-05-31T07:17:09.000Z</time>
      </trkpt>
      <trkpt lat="44.56093" lon="4.12593">
        <ele>677.79998779297</ele>
        <time>2015-05-31T07:17:24.000Z</time>
      </trkpt>
      <trkpt lat="44.56102" lon="4.12575">
        <ele>678.59997558594</ele>
        <time>2015-05-31T07:17:39.000Z</time>
      </trkpt>
      <trkpt lat="44.56109" lon="4.12551">
        <ele>682.20001220703</ele>
        <time>2015-05-31T07:17:56.000Z</time>
      </trkpt>
      <trkpt lat="44.5611" lon="4.12532">
        <ele>686.59997558594</ele>
        <time>2015-05-31T07:18:10.000Z</time>
      </trkpt>
      <trkpt lat="44.56113" lon="4.12515">
        <ele>687.79998779297</ele>
        <time>2015-05-31T07:18:21.000Z</time>
      </trkpt>
      <trkpt lat="44.56125" lon="4.12503">
        <ele>687.40002441406</ele>
        <time>2015-05-31T07:18:36.000Z</time>
      </trkpt>
      <trkpt lat="44.56139" lon="4.12498">
        <ele>684.20001220703</ele>
        <time>2015-05-31T07:18:53.000Z</time>
      </trkpt>
      <trkpt lat="44.56155" lon="4.1249">
        <ele>680.79998779297</ele>
        <time>2015-05-31T07:19:08.000Z</time>
      </trkpt>
      <trkpt lat="44.5617" lon="4.12476">
        <ele>681.59997558594</ele>
        <time>2015-05-31T07:19:25.000Z</time>
      </trkpt>
      <trkpt lat="44.5618" lon="4.12462">
        <ele>683.79998779297</ele>
        <time>2015-05-31T07:19:38.000Z</time>
      </trkpt>
      <trkpt lat="44.5619" lon="4.12449">
        <ele>686.40002441406</ele>
        <time>2015-05-31T07:19:54.000Z</time>
      </trkpt>
      <trkpt lat="44.5619" lon="4.12448">
        <ele>686.40002441406</ele>
        <time>2015-05-31T07:20:12.000Z</time>
      </trkpt>
      <trkpt lat="44.5619" lon="4.12447">
        <ele>686.79998779297</ele>
        <time>2015-05-31T07:20:33.000Z</time>
      </trkpt>
      <trkpt lat="44.56191" lon="4.12444">
        <ele>687.40002441406</ele>
        <time>2015-05-31T07:20:48.000Z</time>
      </trkpt>
      <trkpt lat="44.56205" lon="4.12428">
        <ele>687</ele>
        <time>2015-05-31T07:21:03.000Z</time>
      </trkpt>
      <trkpt lat="44.56218" lon="4.12403">
        <ele>686.79998779297</ele>
        <time>2015-05-31T07:21:21.000Z</time>
      </trkpt>
      <trkpt lat="44.56228" lon="4.12382">
        <ele>687</ele>
        <time>2015-05-31T07:21:36.000Z</time>
      </trkpt>
      <trkpt lat="44.56236" lon="4.12359">
        <ele>688</ele>
        <time>2015-05-31T07:21:52.000Z</time>
      </trkpt>
      <trkpt lat="44.56237" lon="4.12329">
        <ele>682.59997558594</ele>
        <time>2015-05-31T07:22:10.000Z</time>
      </trkpt>
      <trkpt lat="44.56241" lon="4.12304">
        <ele>680.79998779297</ele>
        <time>2015-05-31T07:22:28.000Z</time>
      </trkpt>
      <trkpt lat="44.56251" lon="4.1228">
        <ele>683.40002441406</ele>
        <time>2015-05-31T07:22:46.000Z</time>
      </trkpt>
      <trkpt lat="44.56251" lon="4.12279">
        <ele>683.59997558594</ele>
        <time>2015-05-31T07:22:47.000Z</time>
      </trkpt>
      <trkpt lat="44.56253" lon="4.12273">
        <ele>682.59997558594</ele>
        <time>2015-05-31T07:23:03.000Z</time>
      </trkpt>
      <trkpt lat="44.56262" lon="4.12252">
        <ele>677.20001220703</ele>
        <time>2015-05-31T07:23:20.000Z</time>
      </trkpt>
      <trkpt lat="44.56267" lon="4.12243">
        <ele>679.40002441406</ele>
        <time>2015-05-31T07:23:29.000Z</time>
      </trkpt>
      <trkpt lat="44.56283" lon="4.12218">
        <ele>685.20001220703</ele>
        <time>2015-05-31T07:23:48.000Z</time>
      </trkpt>
      <trkpt lat="44.56286" lon="4.12213">
        <ele>686</ele>
        <time>2015-05-31T07:23:57.000Z</time>
      </trkpt>
      <trkpt lat="44.56286" lon="4.12211">
        <ele>686.20001220703</ele>
        <time>2015-05-31T07:23:59.000Z</time>
      </trkpt>
      <trkpt lat="44.5629" lon="4.12205">
        <ele>686.40002441406</ele>
        <time>2015-05-31T07:24:05.000Z</time>
      </trkpt>
      <trkpt lat="44.56297" lon="4.12197">
        <ele>687.40002441406</ele>
        <time>2015-05-31T07:24:18.000Z</time>
      </trkpt>
      <trkpt lat="44.563" lon="4.12192">
        <ele>687.40002441406</ele>
        <time>2015-05-31T07:24:30.000Z</time>
      </trkpt>
      <trkpt lat="44.56301" lon="4.1219">
        <ele>687</ele>
        <time>2015-05-31T07:24:45.000Z</time>
      </trkpt>
      <trkpt lat="44.56302" lon="4.12188">
        <ele>686.59997558594</ele>
        <time>2015-05-31T07:25:22.000Z</time>
      </trkpt>
      <trkpt lat="44.56302" lon="4.12187">
        <ele>686.20001220703</ele>
        <time>2015-05-31T07:25:45.000Z</time>
      </trkpt>
      <trkpt lat="44.56302" lon="4.12188">
        <ele>686.59997558594</ele>
        <time>2015-05-31T07:26:06.000Z</time>
      </trkpt>
      <trkpt lat="44.56302" lon="4.12189">
        <ele>686.79998779297</ele>
        <time>2015-05-31T07:26:26.000Z</time>
      </trkpt>
      <trkpt lat="44.56302" lon="4.12187">
        <ele>686.20001220703</ele>
        <time>2015-05-31T07:26:38.000Z</time>
      </trkpt>
      <trkpt lat="44.56301" lon="4.12187">
        <ele>686.20001220703</ele>
        <time>2015-05-31T07:26:39.000Z</time>
      </trkpt>
      <trkpt lat="44.56296" lon="4.12189">
        <ele>686.59997558594</ele>
        <time>2015-05-31T07:26:46.000Z</time>
      </trkpt>
      <trkpt lat="44.56282" lon="4.12201">
        <ele>685.79998779297</ele>
        <time>2015-05-31T07:27:04.000Z</time>
      </trkpt>
      <trkpt lat="44.56266" lon="4.12212">
        <ele>680.40002441406</ele>
        <time>2015-05-31T07:27:20.000Z</time>
      </trkpt>
      <trkpt lat="44.56249" lon="4.12225">
        <ele>674.59997558594</ele>
        <time>2015-05-31T07:27:36.000Z</time>
      </trkpt>
      <trkpt lat="44.56235" lon="4.12235">
        <ele>672</ele>
        <time>2015-05-31T07:27:50.000Z</time>
      </trkpt>
      <trkpt lat="44.56223" lon="4.12226">
        <ele>669.79998779297</ele>
        <time>2015-05-31T07:28:03.000Z</time>
      </trkpt>
      <trkpt lat="44.56235" lon="4.12203">
        <ele>671.40002441406</ele>
        <time>2015-05-31T07:28:20.000Z</time>
      </trkpt>
      <trkpt lat="44.56258" lon="4.12181">
        <ele>674</ele>
        <time>2015-05-31T07:28:42.000Z</time>
      </trkpt>
      <trkpt lat="44.56276" lon="4.12171">
        <ele>677.20001220703</ele>
        <time>2015-05-31T07:28:58.000Z</time>
      </trkpt>
      <trkpt lat="44.56282" lon="4.12168">
        <ele>679</ele>
        <time>2015-05-31T07:29:12.000Z</time>
      </trkpt>
      <trkpt lat="44.56283" lon="4.12169">
        <ele>679.79998779297</ele>
        <time>2015-05-31T07:29:37.000Z</time>
      </trkpt>
      <trkpt lat="44.56283" lon="4.1217">
        <ele>680.20001220703</ele>
        <time>2015-05-31T07:29:57.000Z</time>
      </trkpt>
      <trkpt lat="44.56286" lon="4.12165">
        <ele>679.59997558594</ele>
        <time>2015-05-31T07:30:15.000Z</time>
      </trkpt>
      <trkpt lat="44.56294" lon="4.12155">
        <ele>677.59997558594</ele>
        <time>2015-05-31T07:30:31.000Z</time>
      </trkpt>
      <trkpt lat="44.56311" lon="4.12139">
        <ele>674.20001220703</ele>
        <time>2015-05-31T07:30:49.000Z</time>
      </trkpt>
      <trkpt lat="44.56321" lon="4.12126">
        <ele>678.79998779297</ele>
        <time>2015-05-31T07:31:03.000Z</time>
      </trkpt>
      <trkpt lat="44.56329" lon="4.12114">
        <ele>683.20001220703</ele>
        <time>2015-05-31T07:31:16.000Z</time>
      </trkpt>
      <trkpt lat="44.56338" lon="4.12102">
        <ele>685.79998779297</ele>
        <time>2015-05-31T07:31:31.000Z</time>
      </trkpt>
      <trkpt lat="44.56346" lon="4.12098">
        <ele>688.40002441406</ele>
        <time>2015-05-31T07:31:45.000Z</time>
      </trkpt>
      <trkpt lat="44.56352" lon="4.12093">
        <ele>690.40002441406</ele>
        <time>2015-05-31T07:31:58.000Z</time>
      </trkpt>
      <trkpt lat="44.5636" lon="4.12089">
        <ele>693.59997558594</ele>
        <time>2015-05-31T07:32:11.000Z</time>
      </trkpt>
      <trkpt lat="44.56369" lon="4.1208">
        <ele>696.59997558594</ele>
        <time>2015-05-31T07:32:26.000Z</time>
      </trkpt>
      <trkpt lat="44.56374" lon="4.12074">
        <ele>696.40002441406</ele>
        <time>2015-05-31T07:32:40.000Z</time>
      </trkpt>
      <trkpt lat="44.56378" lon="4.12067">
        <ele>696.20001220703</ele>
        <time>2015-05-31T07:32:54.000Z</time>
      </trkpt>
      <trkpt lat="44.56383" lon="4.12061">
        <ele>696</ele>
        <time>2015-05-31T07:33:07.000Z</time>
      </trkpt>
      <trkpt lat="44.56391" lon="4.12059">
        <ele>697</ele>
        <time>2015-05-31T07:33:20.000Z</time>
      </trkpt>
      <trkpt lat="44.56396" lon="4.12055">
        <ele>697.20001220703</ele>
        <time>2015-05-31T07:33:32.000Z</time>
      </trkpt>
      <trkpt lat="44.56401" lon="4.12047">
        <ele>700</ele>
        <time>2015-05-31T07:33:43.000Z</time>
      </trkpt>
      <trkpt lat="44.56407" lon="4.12041">
        <ele>703</ele>
        <time>2015-05-31T07:33:55.000Z</time>
      </trkpt>
      <trkpt lat="44.56412" lon="4.12035">
        <ele>705.59997558594</ele>
        <time>2015-05-31T07:34:08.000Z</time>
      </trkpt>
      <trkpt lat="44.56414" lon="4.12027">
        <ele>707.20001220703</ele>
        <time>2015-05-31T07:34:23.000Z</time>
      </trkpt>
      <trkpt lat="44.5642" lon="4.12018">
        <ele>707.20001220703</ele>
        <time>2015-05-31T07:34:39.000Z</time>
      </trkpt>
      <trkpt lat="44.56434" lon="4.12005">
        <ele>709.20001220703</ele>
        <time>2015-05-31T07:34:56.000Z</time>
      </trkpt>
      <trkpt lat="44.56444" lon="4.11993">
        <ele>711.40002441406</ele>
        <time>2015-05-31T07:35:10.000Z</time>
      </trkpt>
      <trkpt lat="44.56456" lon="4.11982">
        <ele>712.40002441406</ele>
        <time>2015-05-31T07:35:25.000Z</time>
      </trkpt>
      <trkpt lat="44.5646" lon="4.11979">
        <ele>711.79998779297</ele>
        <time>2015-05-31T07:35:29.000Z</time>
      </trkpt>
      <trkpt lat="44.56469" lon="4.11965">
        <ele>709</ele>
        <time>2015-05-31T07:35:45.000Z</time>
      </trkpt>
      <trkpt lat="44.56478" lon="4.11953">
        <ele>713</ele>
        <time>2015-05-31T07:35:59.000Z</time>
      </trkpt>
      <trkpt lat="44.56485" lon="4.11943">
        <ele>716.79998779297</ele>
        <time>2015-05-31T07:36:13.000Z</time>
      </trkpt>
      <trkpt lat="44.56491" lon="4.1193">
        <ele>716</ele>
        <time>2015-05-31T07:36:26.000Z</time>
      </trkpt>
      <trkpt lat="44.56497" lon="4.11916">
        <ele>715.40002441406</ele>
        <time>2015-05-31T07:36:41.000Z</time>
      </trkpt>
      <trkpt lat="44.56507" lon="4.11904">
        <ele>717.40002441406</ele>
        <time>2015-05-31T07:36:55.000Z</time>
      </trkpt>
      <trkpt lat="44.56513" lon="4.11895">
        <ele>719</ele>
        <time>2015-05-31T07:37:04.000Z</time>
      </trkpt>
      <trkpt lat="44.56523" lon="4.11878">
        <ele>721.40002441406</ele>
        <time>2015-05-31T07:37:20.000Z</time>
      </trkpt>
      <trkpt lat="44.56531" lon="4.11868">
        <ele>723.40002441406</ele>
        <time>2015-05-31T07:37:33.000Z</time>
      </trkpt>
      <trkpt lat="44.56539" lon="4.11859">
        <ele>724.79998779297</ele>
        <time>2015-05-31T07:37:45.000Z</time>
      </trkpt>
      <trkpt lat="44.5654" lon="4.11859">
        <ele>725</ele>
        <time>2015-05-31T07:38:03.000Z</time>
      </trkpt>
      <trkpt lat="44.56547" lon="4.11854">
        <ele>725.79998779297</ele>
        <time>2015-05-31T07:38:12.000Z</time>
      </trkpt>
      <trkpt lat="44.56561" lon="4.11848">
        <ele>727.79998779297</ele>
        <time>2015-05-31T07:38:29.000Z</time>
      </trkpt>
      <trkpt lat="44.56573" lon="4.11846">
        <ele>730.20001220703</ele>
        <time>2015-05-31T07:38:44.000Z</time>
      </trkpt>
      <trkpt lat="44.56584" lon="4.11846">
        <ele>732.59997558594</ele>
        <time>2015-05-31T07:38:57.000Z</time>
      </trkpt>
      <trkpt lat="44.5659" lon="4.11847">
        <ele>734.20001220703</ele>
        <time>2015-05-31T07:39:12.000Z</time>
      </trkpt>
      <trkpt lat="44.56591" lon="4.11847">
        <ele>734.40002441406</ele>
        <time>2015-05-31T07:39:13.000Z</time>
      </trkpt>
      <trkpt lat="44.56604" lon="4.11848">
        <ele>737.79998779297</ele>
        <time>2015-05-31T07:39:28.000Z</time>
      </trkpt>
      <trkpt lat="44.56618" lon="4.11843">
        <ele>737.59997558594</ele>
        <time>2015-05-31T07:39:45.000Z</time>
      </trkpt>
      <trkpt lat="44.56619" lon="4.11843">
        <ele>737.79998779297</ele>
        <time>2015-05-31T07:40:01.000Z</time>
      </trkpt>
      <trkpt lat="44.56624" lon="4.11842">
        <ele>738.59997558594</ele>
        <time>2015-05-31T07:40:16.000Z</time>
      </trkpt>
      <trkpt lat="44.56637" lon="4.11836">
        <ele>739.20001220703</ele>
        <time>2015-05-31T07:40:31.000Z</time>
      </trkpt>
      <trkpt lat="44.56649" lon="4.1183">
        <ele>739.79998779297</ele>
        <time>2015-05-31T07:40:44.000Z</time>
      </trkpt>
      <trkpt lat="44.56656" lon="4.11828">
        <ele>740.59997558594</ele>
        <time>2015-05-31T07:40:51.000Z</time>
      </trkpt>
      <trkpt lat="44.56673" lon="4.11825">
        <ele>743.59997558594</ele>
        <time>2015-05-31T07:41:08.000Z</time>
      </trkpt>
      <trkpt lat="44.56687" lon="4.11822">
        <ele>746.40002441406</ele>
        <time>2015-05-31T07:41:24.000Z</time>
      </trkpt>
      <trkpt lat="44.56699" lon="4.11821">
        <ele>749.20001220703</ele>
        <time>2015-05-31T07:41:38.000Z</time>
      </trkpt>
      <trkpt lat="44.5671" lon="4.11821">
        <ele>751.20001220703</ele>
        <time>2015-05-31T07:41:54.000Z</time>
      </trkpt>
      <trkpt lat="44.56723" lon="4.11821">
        <ele>753.20001220703</ele>
        <time>2015-05-31T07:42:11.000Z</time>
      </trkpt>
      <trkpt lat="44.5673" lon="4.11821">
        <ele>754.59997558594</ele>
        <time>2015-05-31T07:42:23.000Z</time>
      </trkpt>
      <trkpt lat="44.56736" lon="4.11822">
        <ele>755.79998779297</ele>
        <time>2015-05-31T07:42:42.000Z</time>
      </trkpt>
      <trkpt lat="44.56744" lon="4.11824">
        <ele>757.59997558594</ele>
        <time>2015-05-31T07:42:58.000Z</time>
      </trkpt>
      <trkpt lat="44.56746" lon="4.11824">
        <ele>758</ele>
        <time>2015-05-31T07:43:23.000Z</time>
      </trkpt>
      <trkpt lat="44.56748" lon="4.11831">
        <ele>760</ele>
        <time>2015-05-31T07:43:47.000Z</time>
      </trkpt>
      <trkpt lat="44.56748" lon="4.1183">
        <ele>760</ele>
        <time>2015-05-31T07:44:14.000Z</time>
      </trkpt>
      <trkpt lat="44.56747" lon="4.11831">
        <ele>759.79998779297</ele>
        <time>2015-05-31T07:44:39.000Z</time>
      </trkpt>
      <trkpt lat="44.56748" lon="4.1183">
        <ele>759.79998779297</ele>
        <time>2015-05-31T07:45:07.000Z</time>
      </trkpt>
      <trkpt lat="44.56749" lon="4.11829">
        <ele>759.79998779297</ele>
        <time>2015-05-31T07:45:27.000Z</time>
      </trkpt>
      <trkpt lat="44.56758" lon="4.11833">
        <ele>762.20001220703</ele>
        <time>2015-05-31T07:45:49.000Z</time>
      </trkpt>
      <trkpt lat="44.56786" lon="4.11835">
        <ele>768</ele>
        <time>2015-05-31T07:46:07.000Z</time>
      </trkpt>
      <trkpt lat="44.56811" lon="4.11828">
        <ele>767.79998779297</ele>
        <time>2015-05-31T07:46:25.000Z</time>
      </trkpt>
      <trkpt lat="44.5683" lon="4.11829">
        <ele>769.20001220703</ele>
        <time>2015-05-31T07:46:41.000Z</time>
      </trkpt>
      <trkpt lat="44.56843" lon="4.11822">
        <ele>769.59997558594</ele>
        <time>2015-05-31T07:47:01.000Z</time>
      </trkpt>
      <trkpt lat="44.56853" lon="4.11821">
        <ele>771</ele>
        <time>2015-05-31T07:47:21.000Z</time>
      </trkpt>
      <trkpt lat="44.56868" lon="4.11812">
        <ele>772</ele>
        <time>2015-05-31T07:47:41.000Z</time>
      </trkpt>
      <trkpt lat="44.56877" lon="4.11799">
        <ele>772</ele>
        <time>2015-05-31T07:47:59.000Z</time>
      </trkpt>
      <trkpt lat="44.56883" lon="4.11787">
        <ele>772.20001220703</ele>
        <time>2015-05-31T07:48:17.000Z</time>
      </trkpt>
      <trkpt lat="44.56891" lon="4.11778">
        <ele>774.79998779297</ele>
        <time>2015-05-31T07:48:35.000Z</time>
      </trkpt>
      <trkpt lat="44.56897" lon="4.11771">
        <ele>775</ele>
        <time>2015-05-31T07:48:50.000Z</time>
      </trkpt>
      <trkpt lat="44.56903" lon="4.11766">
        <ele>775.79998779297</ele>
        <time>2015-05-31T07:49:08.000Z</time>
      </trkpt>
      <trkpt lat="44.56909" lon="4.11763">
        <ele>776.79998779297</ele>
        <time>2015-05-31T07:49:25.000Z</time>
      </trkpt>
      <trkpt lat="44.56914" lon="4.11759">
        <ele>777</ele>
        <time>2015-05-31T07:49:43.000Z</time>
      </trkpt>
      <trkpt lat="44.56926" lon="4.11746">
        <ele>778</ele>
        <time>2015-05-31T07:50:00.000Z</time>
      </trkpt>
      <trkpt lat="44.56934" lon="4.11736">
        <ele>780.20001220703</ele>
        <time>2015-05-31T07:50:19.000Z</time>
      </trkpt>
      <trkpt lat="44.56945" lon="4.11723">
        <ele>783.79998779297</ele>
        <time>2015-05-31T07:50:36.000Z</time>
      </trkpt>
      <trkpt lat="44.56954" lon="4.11711">
        <ele>785.59997558594</ele>
        <time>2015-05-31T07:50:55.000Z</time>
      </trkpt>
      <trkpt lat="44.56963" lon="4.117">
        <ele>787</ele>
        <time>2015-05-31T07:51:11.000Z</time>
      </trkpt>
      <trkpt lat="44.56971" lon="4.11689">
        <ele>789.59997558594</ele>
        <time>2015-05-31T07:51:29.000Z</time>
      </trkpt>
      <trkpt lat="44.5698" lon="4.11679">
        <ele>791.20001220703</ele>
        <time>2015-05-31T07:51:48.000Z</time>
      </trkpt>
      <trkpt lat="44.56984" lon="4.11673">
        <ele>791.79998779297</ele>
        <time>2015-05-31T07:52:03.000Z</time>
      </trkpt>
      <trkpt lat="44.56986" lon="4.11671">
        <ele>792.20001220703</ele>
        <time>2015-05-31T07:52:23.000Z</time>
      </trkpt>
      <trkpt lat="44.56987" lon="4.11683">
        <ele>795.40002441406</ele>
        <time>2015-05-31T07:52:38.000Z</time>
      </trkpt>
      <trkpt lat="44.56985" lon="4.11696">
        <ele>797</ele>
        <time>2015-05-31T07:52:49.000Z</time>
      </trkpt>
      <trkpt lat="44.56989" lon="4.11705">
        <ele>798.40002441406</ele>
        <time>2015-05-31T07:53:05.000Z</time>
      </trkpt>
      <trkpt lat="44.56995" lon="4.11697">
        <ele>801.40002441406</ele>
        <time>2015-05-31T07:53:21.000Z</time>
      </trkpt>
      <trkpt lat="44.57001" lon="4.11691">
        <ele>803.79998779297</ele>
        <time>2015-05-31T07:53:37.000Z</time>
      </trkpt>
      <trkpt lat="44.5701" lon="4.11683">
        <ele>805.40002441406</ele>
        <time>2015-05-31T07:53:53.000Z</time>
      </trkpt>
      <trkpt lat="44.57015" lon="4.11672">
        <ele>805.20001220703</ele>
        <time>2015-05-31T07:54:10.000Z</time>
      </trkpt>
      <trkpt lat="44.5702" lon="4.11661">
        <ele>806.40002441406</ele>
        <time>2015-05-31T07:54:27.000Z</time>
      </trkpt>
      <trkpt lat="44.57028" lon="4.11645">
        <ele>808.20001220703</ele>
        <time>2015-05-31T07:54:45.000Z</time>
      </trkpt>
      <trkpt lat="44.57035" lon="4.11634">
        <ele>810.59997558594</ele>
        <time>2015-05-31T07:55:00.000Z</time>
      </trkpt>
      <trkpt lat="44.57037" lon="4.11627">
        <ele>810</ele>
        <time>2015-05-31T07:55:17.000Z</time>
      </trkpt>
      <trkpt lat="44.57041" lon="4.11617">
        <ele>809.79998779297</ele>
        <time>2015-05-31T07:55:34.000Z</time>
      </trkpt>
      <trkpt lat="44.5705" lon="4.11618">
        <ele>813.59997558594</ele>
        <time>2015-05-31T07:55:49.000Z</time>
      </trkpt>
      <trkpt lat="44.5705" lon="4.11625">
        <ele>813.20001220703</ele>
        <time>2015-05-31T07:56:04.000Z</time>
      </trkpt>
      <trkpt lat="44.57051" lon="4.11626">
        <ele>813.40002441406</ele>
        <time>2015-05-31T07:56:28.000Z</time>
      </trkpt>
      <trkpt lat="44.57051" lon="4.11627">
        <ele>813.40002441406</ele>
        <time>2015-05-31T07:56:45.000Z</time>
      </trkpt>
      <trkpt lat="44.57051" lon="4.11627">
        <ele>813.59997558594</ele>
        <time>2015-05-31T07:57:12.000Z</time>
      </trkpt>
      <trkpt lat="44.57052" lon="4.11627">
        <ele>813.79998779297</ele>
        <time>2015-05-31T07:57:37.000Z</time>
      </trkpt>
      <trkpt lat="44.57051" lon="4.11627">
        <ele>813.59997558594</ele>
        <time>2015-05-31T07:58:00.000Z</time>
      </trkpt>
      <trkpt lat="44.57051" lon="4.11626">
        <ele>813.59997558594</ele>
        <time>2015-05-31T07:58:27.000Z</time>
      </trkpt>
      <trkpt lat="44.57051" lon="4.11627">
        <ele>813.40002441406</ele>
        <time>2015-05-31T07:59:01.000Z</time>
      </trkpt>
      <trkpt lat="44.57051" lon="4.11628">
        <ele>813.59997558594</ele>
        <time>2015-05-31T07:59:21.000Z</time>
      </trkpt>
      <trkpt lat="44.5705" lon="4.11627">
        <ele>813.40002441406</ele>
        <time>2015-05-31T07:59:51.000Z</time>
      </trkpt>
      <trkpt lat="44.57051" lon="4.11627">
        <ele>813.40002441406</ele>
        <time>2015-05-31T08:00:16.000Z</time>
      </trkpt>
      <trkpt lat="44.5705" lon="4.11627">
        <ele>813.40002441406</ele>
        <time>2015-05-31T08:00:40.000Z</time>
      </trkpt>
      <trkpt lat="44.5705" lon="4.11626">
        <ele>813.20001220703</ele>
        <time>2015-05-31T08:01:15.000Z</time>
      </trkpt>
      <trkpt lat="44.5705" lon="4.11625">
        <ele>813.20001220703</ele>
        <time>2015-05-31T08:01:47.000Z</time>
      </trkpt>
      <trkpt lat="44.5705" lon="4.11625">
        <ele>813.20001220703</ele>
        <time>2015-05-31T08:02:18.000Z</time>
      </trkpt>
      <trkpt lat="44.5705" lon="4.11625">
        <ele>813.20001220703</ele>
        <time>2015-05-31T08:02:57.000Z</time>
      </trkpt>
      <trkpt lat="44.5705" lon="4.11626">
        <ele>813.20001220703</ele>
        <time>2015-05-31T08:03:31.000Z</time>
      </trkpt>
      <trkpt lat="44.5705" lon="4.11626">
        <ele>813.20001220703</ele>
        <time>2015-05-31T08:04:02.000Z</time>
      </trkpt>
      <trkpt lat="44.57051" lon="4.11626">
        <ele>813.40002441406</ele>
        <time>2015-05-31T08:04:35.000Z</time>
      </trkpt>
      <trkpt lat="44.5705" lon="4.11625">
        <ele>813.20001220703</ele>
        <time>2015-05-31T08:04:58.000Z</time>
      </trkpt>
      <trkpt lat="44.5705" lon="4.11624">
        <ele>813.40002441406</ele>
        <time>2015-05-31T08:05:25.000Z</time>
      </trkpt>
      <trkpt lat="44.57051" lon="4.11626">
        <ele>813.59997558594</ele>
        <time>2015-05-31T08:05:46.000Z</time>
      </trkpt>
      <trkpt lat="44.57051" lon="4.11628">
        <ele>813.79998779297</ele>
        <time>2015-05-31T08:06:10.000Z</time>
      </trkpt>
      <trkpt lat="44.57051" lon="4.11628">
        <ele>813.79998779297</ele>
        <time>2015-05-31T08:06:40.000Z</time>
      </trkpt>
      <trkpt lat="44.57051" lon="4.11628">
        <ele>813.79998779297</ele>
        <time>2015-05-31T08:07:03.000Z</time>
      </trkpt>
      <trkpt lat="44.57051" lon="4.11628">
        <ele>813.59997558594</ele>
        <time>2015-05-31T08:07:29.000Z</time>
      </trkpt>
      <trkpt lat="44.5705" lon="4.11629">
        <ele>813.59997558594</ele>
        <time>2015-05-31T08:07:48.000Z</time>
      </trkpt>
      <trkpt lat="44.5705" lon="4.11629">
        <ele>813.59997558594</ele>
        <time>2015-05-31T08:08:08.000Z</time>
      </trkpt>
      <trkpt lat="44.5705" lon="4.11629">
        <ele>813.79998779297</ele>
        <time>2015-05-31T08:08:23.000Z</time>
      </trkpt>
      <trkpt lat="44.5705" lon="4.11629">
        <ele>813.79998779297</ele>
        <time>2015-05-31T08:08:46.000Z</time>
      </trkpt>
      <trkpt lat="44.5705" lon="4.11629">
        <ele>813.59997558594</ele>
        <time>2015-05-31T08:09:10.000Z</time>
      </trkpt>
      <trkpt lat="44.57051" lon="4.11628">
        <ele>813.59997558594</ele>
        <time>2015-05-31T08:09:29.000Z</time>
      </trkpt>
      <trkpt lat="44.5705" lon="4.11629">
        <ele>813.59997558594</ele>
        <time>2015-05-31T08:09:53.000Z</time>
      </trkpt>
      <trkpt lat="44.5705" lon="4.11628">
        <ele>813.59997558594</ele>
        <time>2015-05-31T08:10:05.000Z</time>
      </trkpt>
      <trkpt lat="44.57052" lon="4.11629">
        <ele>814.20001220703</ele>
        <time>2015-05-31T08:10:25.000Z</time>
      </trkpt>
      <trkpt lat="44.57055" lon="4.11638">
        <ele>816.20001220703</ele>
        <time>2015-05-31T08:10:41.000Z</time>
      </trkpt>
      <trkpt lat="44.57062" lon="4.1164">
        <ele>818.20001220703</ele>
        <time>2015-05-31T08:10:53.000Z</time>
      </trkpt>
      <trkpt lat="44.57071" lon="4.11637">
        <ele>822</ele>
        <time>2015-05-31T08:11:07.000Z</time>
      </trkpt>
      <trkpt lat="44.57074" lon="4.11636">
        <ele>823.59997558594</ele>
        <time>2015-05-31T08:11:12.000Z</time>
      </trkpt>
      <trkpt lat="44.57083" lon="4.11629">
        <ele>827.79998779297</ele>
        <time>2015-05-31T08:11:25.000Z</time>
      </trkpt>
      <trkpt lat="44.57088" lon="4.11624">
        <ele>830.59997558594</ele>
        <time>2015-05-31T08:11:38.000Z</time>
      </trkpt>
      <trkpt lat="44.57094" lon="4.11615">
        <ele>834</ele>
        <time>2015-05-31T08:11:50.000Z</time>
      </trkpt>
      <trkpt lat="44.57098" lon="4.11607">
        <ele>835.59997558594</ele>
        <time>2015-05-31T08:12:03.000Z</time>
      </trkpt>
      <trkpt lat="44.57103" lon="4.11601">
        <ele>837.20001220703</ele>
        <time>2015-05-31T08:12:17.000Z</time>
      </trkpt>
      <trkpt lat="44.57106" lon="4.11593">
        <ele>838.40002441406</ele>
        <time>2015-05-31T08:12:30.000Z</time>
      </trkpt>
      <trkpt lat="44.57107" lon="4.11586">
        <ele>839</ele>
        <time>2015-05-31T08:12:43.000Z</time>
      </trkpt>
      <trkpt lat="44.57104" lon="4.11583">
        <ele>837</ele>
        <time>2015-05-31T08:12:56.000Z</time>
      </trkpt>
      <trkpt lat="44.57099" lon="4.11575">
        <ele>834.59997558594</ele>
        <time>2015-05-31T08:13:13.000Z</time>
      </trkpt>
      <trkpt lat="44.57096" lon="4.11564">
        <ele>833</ele>
        <time>2015-05-31T08:13:27.000Z</time>
      </trkpt>
      <trkpt lat="44.57096" lon="4.11557">
        <ele>832.59997558594</ele>
        <time>2015-05-31T08:13:39.000Z</time>
      </trkpt>
      <trkpt lat="44.57097" lon="4.11551">
        <ele>833.40002441406</ele>
        <time>2015-05-31T08:13:55.000Z</time>
      </trkpt>
      <trkpt lat="44.57098" lon="4.11547">
        <ele>833.79998779297</ele>
        <time>2015-05-31T08:14:20.000Z</time>
      </trkpt>
      <trkpt lat="44.571" lon="4.11538">
        <ele>834.79998779297</ele>
        <time>2015-05-31T08:14:34.000Z</time>
      </trkpt>
      <trkpt lat="44.57109" lon="4.11515">
        <ele>838.79998779297</ele>
        <time>2015-05-31T08:14:52.000Z</time>
      </trkpt>
      <trkpt lat="44.57117" lon="4.11505">
        <ele>841.40002441406</ele>
        <time>2015-05-31T08:15:06.000Z</time>
      </trkpt>
      <trkpt lat="44.57119" lon="4.11504">
        <ele>842</ele>
        <time>2015-05-31T08:15:10.000Z</time>
      </trkpt>
      <trkpt lat="44.57125" lon="4.11498">
        <ele>843.40002441406</ele>
        <time>2015-05-31T08:15:23.000Z</time>
      </trkpt>
      <trkpt lat="44.57135" lon="4.11493">
        <ele>846</ele>
        <time>2015-05-31T08:15:37.000Z</time>
      </trkpt>
      <trkpt lat="44.57141" lon="4.11489">
        <ele>847.59997558594</ele>
        <time>2015-05-31T08:15:51.000Z</time>
      </trkpt>
      <trkpt lat="44.57149" lon="4.11482">
        <ele>849.40002441406</ele>
        <time>2015-05-31T08:16:04.000Z</time>
      </trkpt>
      <trkpt lat="44.5715" lon="4.11481">
        <ele>849.59997558594</ele>
        <time>2015-05-31T08:16:27.000Z</time>
      </trkpt>
      <trkpt lat="44.57158" lon="4.11477">
        <ele>852.40002441406</ele>
        <time>2015-05-31T08:16:41.000Z</time>
      </trkpt>
      <trkpt lat="44.57166" lon="4.11471">
        <ele>855.20001220703</ele>
        <time>2015-05-31T08:16:57.000Z</time>
      </trkpt>
      <trkpt lat="44.57172" lon="4.11463">
        <ele>857.59997558594</ele>
        <time>2015-05-31T08:17:10.000Z</time>
      </trkpt>
      <trkpt lat="44.57178" lon="4.11456">
        <ele>859.79998779297</ele>
        <time>2015-05-31T08:17:23.000Z</time>
      </trkpt>
      <trkpt lat="44.57182" lon="4.11449">
        <ele>861</ele>
        <time>2015-05-31T08:17:37.000Z</time>
      </trkpt>
      <trkpt lat="44.57193" lon="4.11436">
        <ele>864.20001220703</ele>
        <time>2015-05-31T08:17:53.000Z</time>
      </trkpt>
      <trkpt lat="44.57201" lon="4.11425">
        <ele>864.20001220703</ele>
        <time>2015-05-31T08:18:07.000Z</time>
      </trkpt>
      <trkpt lat="44.57205" lon="4.11421">
        <ele>864.59997558594</ele>
        <time>2015-05-31T08:18:20.000Z</time>
      </trkpt>
      <trkpt lat="44.57206" lon="4.11421">
        <ele>865</ele>
        <time>2015-05-31T08:18:48.000Z</time>
      </trkpt>
      <trkpt lat="44.5721" lon="4.11419">
        <ele>865.79998779297</ele>
        <time>2015-05-31T08:19:03.000Z</time>
      </trkpt>
      <trkpt lat="44.57211" lon="4.11422">
        <ele>866.79998779297</ele>
        <time>2015-05-31T08:19:20.000Z</time>
      </trkpt>
      <trkpt lat="44.57209" lon="4.11434">
        <ele>869.20001220703</ele>
        <time>2015-05-31T08:19:32.000Z</time>
      </trkpt>
      <trkpt lat="44.57204" lon="4.11449">
        <ele>870.20001220703</ele>
        <time>2015-05-31T08:19:47.000Z</time>
      </trkpt>
      <trkpt lat="44.57204" lon="4.11452">
        <ele>870.59997558594</ele>
        <time>2015-05-31T08:19:49.000Z</time>
      </trkpt>
      <trkpt lat="44.57202" lon="4.1147">
        <ele>870.79998779297</ele>
        <time>2015-05-31T08:20:03.000Z</time>
      </trkpt>
      <trkpt lat="44.57203" lon="4.11489">
        <ele>872.40002441406</ele>
        <time>2015-05-31T08:20:19.000Z</time>
      </trkpt>
      <trkpt lat="44.57208" lon="4.11496">
        <ele>874.40002441406</ele>
        <time>2015-05-31T08:20:32.000Z</time>
      </trkpt>
      <trkpt lat="44.57214" lon="4.11489">
        <ele>876.20001220703</ele>
        <time>2015-05-31T08:20:45.000Z</time>
      </trkpt>
      <trkpt lat="44.57215" lon="4.11484">
        <ele>876.59997558594</ele>
        <time>2015-05-31T08:20:59.000Z</time>
      </trkpt>
      <trkpt lat="44.5722" lon="4.11473">
        <ele>877.40002441406</ele>
        <time>2015-05-31T08:21:12.000Z</time>
      </trkpt>
      <trkpt lat="44.57226" lon="4.11464">
        <ele>878.79998779297</ele>
        <time>2015-05-31T08:21:25.000Z</time>
      </trkpt>
      <trkpt lat="44.57231" lon="4.11457">
        <ele>880.20001220703</ele>
        <time>2015-05-31T08:21:38.000Z</time>
      </trkpt>
      <trkpt lat="44.57237" lon="4.11452">
        <ele>881.59997558594</ele>
        <time>2015-05-31T08:21:51.000Z</time>
      </trkpt>
      <trkpt lat="44.57243" lon="4.1145">
        <ele>883.59997558594</ele>
        <time>2015-05-31T08:22:04.000Z</time>
      </trkpt>
      <trkpt lat="44.57245" lon="4.11462">
        <ele>885.40002441406</ele>
        <time>2015-05-31T08:22:19.000Z</time>
      </trkpt>
      <trkpt lat="44.57244" lon="4.1147">
        <ele>885.59997558594</ele>
        <time>2015-05-31T08:22:32.000Z</time>
      </trkpt>
      <trkpt lat="44.57244" lon="4.11471">
        <ele>885.79998779297</ele>
        <time>2015-05-31T08:22:53.000Z</time>
      </trkpt>
      <trkpt lat="44.57252" lon="4.11475">
        <ele>888.79998779297</ele>
        <time>2015-05-31T08:23:06.000Z</time>
      </trkpt>
      <trkpt lat="44.57253" lon="4.11473">
        <ele>888.79998779297</ele>
        <time>2015-05-31T08:23:08.000Z</time>
      </trkpt>
      <trkpt lat="44.57255" lon="4.11467">
        <ele>889.20001220703</ele>
        <time>2015-05-31T08:23:23.000Z</time>
      </trkpt>
      <trkpt lat="44.57258" lon="4.11461">
        <ele>889.59997558594</ele>
        <time>2015-05-31T08:23:46.000Z</time>
      </trkpt>
      <trkpt lat="44.57264" lon="4.1145">
        <ele>890.59997558594</ele>
        <time>2015-05-31T08:23:59.000Z</time>
      </trkpt>
      <trkpt lat="44.5727" lon="4.11444">
        <ele>892.20001220703</ele>
        <time>2015-05-31T08:24:13.000Z</time>
      </trkpt>
      <trkpt lat="44.57274" lon="4.11454">
        <ele>894.40002441406</ele>
        <time>2015-05-31T08:24:27.000Z</time>
      </trkpt>
      <trkpt lat="44.57273" lon="4.11463">
        <ele>894.79998779297</ele>
        <time>2015-05-31T08:24:40.000Z</time>
      </trkpt>
      <trkpt lat="44.57273" lon="4.11466">
        <ele>895.20001220703</ele>
        <time>2015-05-31T08:24:51.000Z</time>
      </trkpt>
      <trkpt lat="44.57273" lon="4.11472">
        <ele>895.59997558594</ele>
        <time>2015-05-31T08:25:04.000Z</time>
      </trkpt>
      <trkpt lat="44.57274" lon="4.11479">
        <ele>896.40002441406</ele>
        <time>2015-05-31T08:25:19.000Z</time>
      </trkpt>
      <trkpt lat="44.57276" lon="4.11484">
        <ele>897.59997558594</ele>
        <time>2015-05-31T08:25:32.000Z</time>
      </trkpt>
      <trkpt lat="44.57277" lon="4.11485">
        <ele>898</ele>
        <time>2015-05-31T08:25:52.000Z</time>
      </trkpt>
      <trkpt lat="44.5728" lon="4.11486">
        <ele>899</ele>
        <time>2015-05-31T08:26:02.000Z</time>
      </trkpt>
      <trkpt lat="44.57281" lon="4.11487">
        <ele>899.40002441406</ele>
        <time>2015-05-31T08:26:16.000Z</time>
      </trkpt>
      <trkpt lat="44.57281" lon="4.11487">
        <ele>899.59997558594</ele>
        <time>2015-05-31T08:26:55.000Z</time>
      </trkpt>
      <trkpt lat="44.57281" lon="4.11487">
        <ele>899.59997558594</ele>
        <time>2015-05-31T08:27:30.000Z</time>
      </trkpt>
      <trkpt lat="44.57282" lon="4.11487">
        <ele>899.79998779297</ele>
        <time>2015-05-31T08:27:58.000Z</time>
      </trkpt>
      <trkpt lat="44.57281" lon="4.11487">
        <ele>899.40002441406</ele>
        <time>2015-05-31T08:28:18.000Z</time>
      </trkpt>
      <trkpt lat="44.57281" lon="4.11487">
        <ele>899.40002441406</ele>
        <time>2015-05-31T08:28:47.000Z</time>
      </trkpt>
      <trkpt lat="44.57281" lon="4.11487">
        <ele>899.40002441406</ele>
        <time>2015-05-31T08:29:07.000Z</time>
      </trkpt>
      <trkpt lat="44.57286" lon="4.11492">
        <ele>901.40002441406</ele>
        <time>2015-05-31T08:29:30.000Z</time>
      </trkpt>
      <trkpt lat="44.57293" lon="4.11501">
        <ele>905.20001220703</ele>
        <time>2015-05-31T08:29:45.000Z</time>
      </trkpt>
      <trkpt lat="44.57302" lon="4.1151">
        <ele>909.40002441406</ele>
        <time>2015-05-31T08:30:01.000Z</time>
      </trkpt>
      <trkpt lat="44.5731" lon="4.11514">
        <ele>912.79998779297</ele>
        <time>2015-05-31T08:30:17.000Z</time>
      </trkpt>
      <trkpt lat="44.57319" lon="4.11522">
        <ele>916.59997558594</ele>
        <time>2015-05-31T08:30:32.000Z</time>
      </trkpt>
      <trkpt lat="44.57325" lon="4.11526">
        <ele>919.59997558594</ele>
        <time>2015-05-31T08:30:47.000Z</time>
      </trkpt>
      <trkpt lat="44.57333" lon="4.11532">
        <ele>922</ele>
        <time>2015-05-31T08:31:03.000Z</time>
      </trkpt>
      <trkpt lat="44.57342" lon="4.11541">
        <ele>924.20001220703</ele>
        <time>2015-05-31T08:31:20.000Z</time>
      </trkpt>
      <trkpt lat="44.57351" lon="4.1155">
        <ele>926.59997558594</ele>
        <time>2015-05-31T08:31:35.000Z</time>
      </trkpt>
      <trkpt lat="44.57357" lon="4.11557">
        <ele>928</ele>
        <time>2015-05-31T08:31:47.000Z</time>
      </trkpt>
      <trkpt lat="44.57365" lon="4.11564">
        <ele>930</ele>
        <time>2015-05-31T08:32:01.000Z</time>
      </trkpt>
      <trkpt lat="44.57373" lon="4.11568">
        <ele>932.79998779297</ele>
        <time>2015-05-31T08:32:18.000Z</time>
      </trkpt>
      <trkpt lat="44.57379" lon="4.11568">
        <ele>934.79998779297</ele>
        <time>2015-05-31T08:32:31.000Z</time>
      </trkpt>
      <trkpt lat="44.57388" lon="4.11569">
        <ele>938.40002441406</ele>
        <time>2015-05-31T08:32:45.000Z</time>
      </trkpt>
      <trkpt lat="44.57397" lon="4.11569">
        <ele>942</ele>
        <time>2015-05-31T08:33:00.000Z</time>
      </trkpt>
      <trkpt lat="44.57402" lon="4.11571">
        <ele>943.59997558594</ele>
        <time>2015-05-31T08:33:17.000Z</time>
      </trkpt>
      <trkpt lat="44.57401" lon="4.11586">
        <ele>941.59997558594</ele>
        <time>2015-05-31T08:33:33.000Z</time>
      </trkpt>
      <trkpt lat="44.57401" lon="4.11591">
        <ele>940.59997558594</ele>
        <time>2015-05-31T08:33:48.000Z</time>
      </trkpt>
      <trkpt lat="44.574" lon="4.11598">
        <ele>939.20001220703</ele>
        <time>2015-05-31T08:34:06.000Z</time>
      </trkpt>
      <trkpt lat="44.57398" lon="4.11602">
        <ele>938</ele>
        <time>2015-05-31T08:34:20.000Z</time>
      </trkpt>
      <trkpt lat="44.57398" lon="4.11604">
        <ele>937.79998779297</ele>
        <time>2015-05-31T08:35:04.000Z</time>
      </trkpt>
      <trkpt lat="44.57397" lon="4.11607">
        <ele>937</ele>
        <time>2015-05-31T08:35:21.000Z</time>
      </trkpt>
      <trkpt lat="44.57396" lon="4.11608">
        <ele>936.59997558594</ele>
        <time>2015-05-31T08:35:22.000Z</time>
      </trkpt>
      <trkpt lat="44.57392" lon="4.11626">
        <ele>936</ele>
        <time>2015-05-31T08:35:39.000Z</time>
      </trkpt>
      <trkpt lat="44.57391" lon="4.11643">
        <ele>937</ele>
        <time>2015-05-31T08:35:55.000Z</time>
      </trkpt>
      <trkpt lat="44.57389" lon="4.11662">
        <ele>937</ele>
        <time>2015-05-31T08:36:14.000Z</time>
      </trkpt>
      <trkpt lat="44.57386" lon="4.11677">
        <ele>936.20001220703</ele>
        <time>2015-05-31T08:36:31.000Z</time>
      </trkpt>
      <trkpt lat="44.57385" lon="4.11692">
        <ele>936.40002441406</ele>
        <time>2015-05-31T08:36:47.000Z</time>
      </trkpt>
      <trkpt lat="44.57384" lon="4.11708">
        <ele>938</ele>
        <time>2015-05-31T08:37:04.000Z</time>
      </trkpt>
      <trkpt lat="44.57382" lon="4.11717">
        <ele>938.40002441406</ele>
        <time>2015-05-31T08:37:22.000Z</time>
      </trkpt>
      <trkpt lat="44.5738" lon="4.11732">
        <ele>939</ele>
        <time>2015-05-31T08:37:38.000Z</time>
      </trkpt>
      <trkpt lat="44.5738" lon="4.11736">
        <ele>939.59997558594</ele>
        <time>2015-05-31T08:38:03.000Z</time>
      </trkpt>
      <trkpt lat="44.5738" lon="4.1174">
        <ele>940</ele>
        <time>2015-05-31T08:38:21.000Z</time>
      </trkpt>
      <trkpt lat="44.57379" lon="4.1174">
        <ele>939.79998779297</ele>
        <time>2015-05-31T08:38:49.000Z</time>
      </trkpt>
      <trkpt lat="44.5738" lon="4.11747">
        <ele>941</ele>
        <time>2015-05-31T08:39:16.000Z</time>
      </trkpt>
      <trkpt lat="44.57381" lon="4.11756">
        <ele>942.40002441406</ele>
        <time>2015-05-31T08:39:33.000Z</time>
      </trkpt>
      <trkpt lat="44.57382" lon="4.11764">
        <ele>943.79998779297</ele>
        <time>2015-05-31T08:39:51.000Z</time>
      </trkpt>
      <trkpt lat="44.57381" lon="4.11769">
        <ele>944.20001220703</ele>
        <time>2015-05-31T08:39:55.000Z</time>
      </trkpt>
      <trkpt lat="44.57383" lon="4.11792">
        <ele>946.20001220703</ele>
        <time>2015-05-31T08:40:14.000Z</time>
      </trkpt>
      <trkpt lat="44.57386" lon="4.118">
        <ele>948</ele>
        <time>2015-05-31T08:40:30.000Z</time>
      </trkpt>
      <trkpt lat="44.57391" lon="4.11812">
        <ele>950.40002441406</ele>
        <time>2015-05-31T08:40:47.000Z</time>
      </trkpt>
      <trkpt lat="44.574" lon="4.11816">
        <ele>954.59997558594</ele>
        <time>2015-05-31T08:41:01.000Z</time>
      </trkpt>
      <trkpt lat="44.57401" lon="4.1181">
        <ele>955.40002441406</ele>
        <time>2015-05-31T08:41:17.000Z</time>
      </trkpt>
      <trkpt lat="44.57403" lon="4.11807">
        <ele>956</ele>
        <time>2015-05-31T08:41:31.000Z</time>
      </trkpt>
      <trkpt lat="44.57402" lon="4.11804">
        <ele>955.79998779297</ele>
        <time>2015-05-31T08:41:53.000Z</time>
      </trkpt>
      <trkpt lat="44.57407" lon="4.11789">
        <ele>957.40002441406</ele>
        <time>2015-05-31T08:42:12.000Z</time>
      </trkpt>
      <trkpt lat="44.57414" lon="4.11777">
        <ele>960.20001220703</ele>
        <time>2015-05-31T08:42:29.000Z</time>
      </trkpt>
      <trkpt lat="44.5742" lon="4.11765">
        <ele>961.40002441406</ele>
        <time>2015-05-31T08:42:50.000Z</time>
      </trkpt>
      <trkpt lat="44.57431" lon="4.1176">
        <ele>965.79998779297</ele>
        <time>2015-05-31T08:43:06.000Z</time>
      </trkpt>
      <trkpt lat="44.57431" lon="4.1177">
        <ele>967</ele>
        <time>2015-05-31T08:43:20.000Z</time>
      </trkpt>
      <trkpt lat="44.57429" lon="4.11786">
        <ele>967.20001220703</ele>
        <time>2015-05-31T08:43:37.000Z</time>
      </trkpt>
      <trkpt lat="44.57432" lon="4.11802">
        <ele>969</ele>
        <time>2015-05-31T08:43:52.000Z</time>
      </trkpt>
      <trkpt lat="44.57435" lon="4.11816">
        <ele>970.79998779297</ele>
        <time>2015-05-31T08:44:09.000Z</time>
      </trkpt>
      <trkpt lat="44.57441" lon="4.11834">
        <ele>974.20001220703</ele>
        <time>2015-05-31T08:44:28.000Z</time>
      </trkpt>
      <trkpt lat="44.57444" lon="4.1185">
        <ele>976.59997558594</ele>
        <time>2015-05-31T08:44:46.000Z</time>
      </trkpt>
      <trkpt lat="44.57445" lon="4.11859">
        <ele>977</ele>
        <time>2015-05-31T08:45:03.000Z</time>
      </trkpt>
      <trkpt lat="44.57446" lon="4.11864">
        <ele>977.20001220703</ele>
        <time>2015-05-31T08:45:20.000Z</time>
      </trkpt>
      <trkpt lat="44.57447" lon="4.11866">
        <ele>978</ele>
        <time>2015-05-31T08:45:39.000Z</time>
      </trkpt>
      <trkpt lat="44.57448" lon="4.11878">
        <ele>978.40002441406</ele>
        <time>2015-05-31T08:45:58.000Z</time>
      </trkpt>
      <trkpt lat="44.57451" lon="4.11891">
        <ele>980.40002441406</ele>
        <time>2015-05-31T08:46:13.000Z</time>
      </trkpt>
      <trkpt lat="44.57452" lon="4.1189">
        <ele>980.59997558594</ele>
        <time>2015-05-31T08:46:38.000Z</time>
      </trkpt>
      <trkpt lat="44.57452" lon="4.11892">
        <ele>980.59997558594</ele>
        <time>2015-05-31T08:47:10.000Z</time>
      </trkpt>
      <trkpt lat="44.5745" lon="4.11893">
        <ele>979.79998779297</ele>
        <time>2015-05-31T08:47:33.000Z</time>
      </trkpt>
      <trkpt lat="44.5745" lon="4.11892">
        <ele>979.59997558594</ele>
        <time>2015-05-31T08:48:04.000Z</time>
      </trkpt>
      <trkpt lat="44.5745" lon="4.11891">
        <ele>979.40002441406</ele>
        <time>2015-05-31T08:48:30.000Z</time>
      </trkpt>
      <trkpt lat="44.57449" lon="4.1189">
        <ele>979.40002441406</ele>
        <time>2015-05-31T08:48:42.000Z</time>
      </trkpt>
      <trkpt lat="44.57453" lon="4.11883">
        <ele>981.20001220703</ele>
        <time>2015-05-31T08:48:54.000Z</time>
      </trkpt>
      <trkpt lat="44.57456" lon="4.11865">
        <ele>982</ele>
        <time>2015-05-31T08:49:09.000Z</time>
      </trkpt>
      <trkpt lat="44.57456" lon="4.11855">
        <ele>982</ele>
        <time>2015-05-31T08:49:18.000Z</time>
      </trkpt>
      <trkpt lat="44.57458" lon="4.11843">
        <ele>982.40002441406</ele>
        <time>2015-05-31T08:49:33.000Z</time>
      </trkpt>
      <trkpt lat="44.57457" lon="4.11829">
        <ele>981.59997558594</ele>
        <time>2015-05-31T08:49:49.000Z</time>
      </trkpt>
      <trkpt lat="44.57457" lon="4.11825">
        <ele>981.40002441406</ele>
        <time>2015-05-31T08:49:52.000Z</time>
      </trkpt>
      <trkpt lat="44.5746" lon="4.11801">
        <ele>981.59997558594</ele>
        <time>2015-05-31T08:50:08.000Z</time>
      </trkpt>
      <trkpt lat="44.57465" lon="4.1178">
        <ele>982.79998779297</ele>
        <time>2015-05-31T08:50:23.000Z</time>
      </trkpt>
      <trkpt lat="44.57468" lon="4.1177">
        <ele>983</ele>
        <time>2015-05-31T08:50:30.000Z</time>
      </trkpt>
      <trkpt lat="44.57476" lon="4.11751">
        <ele>984</ele>
        <time>2015-05-31T08:50:47.000Z</time>
      </trkpt>
      <trkpt lat="44.57483" lon="4.11734">
        <ele>984.79998779297</ele>
        <time>2015-05-31T08:51:03.000Z</time>
      </trkpt>
      <trkpt lat="44.57492" lon="4.11716">
        <ele>986.20001220703</ele>
        <time>2015-05-31T08:51:20.000Z</time>
      </trkpt>
      <trkpt lat="44.575" lon="4.11695">
        <ele>987.40002441406</ele>
        <time>2015-05-31T08:51:37.000Z</time>
      </trkpt>
      <trkpt lat="44.57508" lon="4.11674">
        <ele>988.59997558594</ele>
        <time>2015-05-31T08:51:54.000Z</time>
      </trkpt>
      <trkpt lat="44.57515" lon="4.11656">
        <ele>990</ele>
        <time>2015-05-31T08:52:10.000Z</time>
      </trkpt>
      <trkpt lat="44.57519" lon="4.11645">
        <ele>991.20001220703</ele>
        <time>2015-05-31T08:52:23.000Z</time>
      </trkpt>
      <trkpt lat="44.57527" lon="4.11629">
        <ele>993</ele>
        <time>2015-05-31T08:52:38.000Z</time>
      </trkpt>
      <trkpt lat="44.57528" lon="4.11627">
        <ele>993.59997558594</ele>
        <time>2015-05-31T08:52:40.000Z</time>
      </trkpt>
      <trkpt lat="44.57537" lon="4.11601">
        <ele>995.40002441406</ele>
        <time>2015-05-31T08:52:59.000Z</time>
      </trkpt>
      <trkpt lat="44.57539" lon="4.11582">
        <ele>995.59997558594</ele>
        <time>2015-05-31T08:53:15.000Z</time>
      </trkpt>
      <trkpt lat="44.57539" lon="4.11561">
        <ele>995.20001220703</ele>
        <time>2015-05-31T08:53:32.000Z</time>
      </trkpt>
      <trkpt lat="44.57541" lon="4.11547">
        <ele>995.59997558594</ele>
        <time>2015-05-31T08:53:46.000Z</time>
      </trkpt>
      <trkpt lat="44.57541" lon="4.11536">
        <ele>995.20001220703</ele>
        <time>2015-05-31T08:54:01.000Z</time>
      </trkpt>
      <trkpt lat="44.57542" lon="4.11535">
        <ele>995.20001220703</ele>
        <time>2015-05-31T08:54:18.000Z</time>
      </trkpt>
      <trkpt lat="44.57542" lon="4.11533">
        <ele>995.40002441406</ele>
        <time>2015-05-31T08:54:32.000Z</time>
      </trkpt>
      <trkpt lat="44.57544" lon="4.11513">
        <ele>997.40002441406</ele>
        <time>2015-05-31T08:54:45.000Z</time>
      </trkpt>
      <trkpt lat="44.57545" lon="4.11507">
        <ele>998.40002441406</ele>
        <time>2015-05-31T08:54:49.000Z</time>
      </trkpt>
      <trkpt lat="44.5755" lon="4.11483">
        <ele>1002.5999755859</ele>
        <time>2015-05-31T08:55:04.000Z</time>
      </trkpt>
      <trkpt lat="44.5755" lon="4.11459">
        <ele>1005</ele>
        <time>2015-05-31T08:55:20.000Z</time>
      </trkpt>
      <trkpt lat="44.57547" lon="4.11438">
        <ele>1004</ele>
        <time>2015-05-31T08:55:35.000Z</time>
      </trkpt>
      <trkpt lat="44.57543" lon="4.11421">
        <ele>1002.4000244141</ele>
        <time>2015-05-31T08:55:48.000Z</time>
      </trkpt>
      <trkpt lat="44.57536" lon="4.11404">
        <ele>999.59997558594</ele>
        <time>2015-05-31T08:56:04.000Z</time>
      </trkpt>
      <trkpt lat="44.57532" lon="4.11391">
        <ele>997</ele>
        <time>2015-05-31T08:56:18.000Z</time>
      </trkpt>
      <trkpt lat="44.57529" lon="4.11382">
        <ele>995.20001220703</ele>
        <time>2015-05-31T08:56:30.000Z</time>
      </trkpt>
      <trkpt lat="44.57529" lon="4.11374">
        <ele>995</ele>
        <time>2015-05-31T08:56:44.000Z</time>
      </trkpt>
      <trkpt lat="44.57529" lon="4.1137">
        <ele>995</ele>
        <time>2015-05-31T08:56:48.000Z</time>
      </trkpt>
      <trkpt lat="44.57532" lon="4.11351">
        <ele>993.79998779297</ele>
        <time>2015-05-31T08:57:04.000Z</time>
      </trkpt>
      <trkpt lat="44.57536" lon="4.11337">
        <ele>991.79998779297</ele>
        <time>2015-05-31T08:57:17.000Z</time>
      </trkpt>
      <trkpt lat="44.57542" lon="4.1133">
        <ele>992</ele>
        <time>2015-05-31T08:57:28.000Z</time>
      </trkpt>
      <trkpt lat="44.57553" lon="4.11316">
        <ele>992.59997558594</ele>
        <time>2015-05-31T08:57:45.000Z</time>
      </trkpt>
      <trkpt lat="44.5756" lon="4.11304">
        <ele>991.79998779297</ele>
        <time>2015-05-31T08:57:59.000Z</time>
      </trkpt>
      <trkpt lat="44.57565" lon="4.11293">
        <ele>992.79998779297</ele>
        <time>2015-05-31T08:58:11.000Z</time>
      </trkpt>
      <trkpt lat="44.57567" lon="4.11286">
        <ele>993.40002441406</ele>
        <time>2015-05-31T08:58:17.000Z</time>
      </trkpt>
      <trkpt lat="44.57567" lon="4.11267">
        <ele>990.40002441406</ele>
        <time>2015-05-31T08:58:34.000Z</time>
      </trkpt>
      <trkpt lat="44.57568" lon="4.1125">
        <ele>986</ele>
        <time>2015-05-31T08:58:49.000Z</time>
      </trkpt>
      <trkpt lat="44.57571" lon="4.11232">
        <ele>982.79998779297</ele>
        <time>2015-05-31T08:59:03.000Z</time>
      </trkpt>
      <trkpt lat="44.57577" lon="4.11214">
        <ele>980.79998779297</ele>
        <time>2015-05-31T08:59:19.000Z</time>
      </trkpt>
      <trkpt lat="44.57584" lon="4.11206">
        <ele>982.79998779297</ele>
        <time>2015-05-31T08:59:28.000Z</time>
      </trkpt>
      <trkpt lat="44.57601" lon="4.11202">
        <ele>991.40002441406</ele>
        <time>2015-05-31T08:59:44.000Z</time>
      </trkpt>
      <trkpt lat="44.57609" lon="4.11202">
        <ele>996.20001220703</ele>
        <time>2015-05-31T08:59:53.000Z</time>
      </trkpt>
      <trkpt lat="44.57611" lon="4.11201">
        <ele>997.20001220703</ele>
        <time>2015-05-31T08:59:55.000Z</time>
      </trkpt>
      <trkpt lat="44.57616" lon="4.11202">
        <ele>1000.4000244141</ele>
        <time>2015-05-31T09:00:00.000Z</time>
      </trkpt>
      <trkpt lat="44.57619" lon="4.11203">
        <ele>1001.799987793</ele>
        <time>2015-05-31T09:00:03.000Z</time>
      </trkpt>
      <trkpt lat="44.57621" lon="4.11202">
        <ele>1002.200012207</ele>
        <time>2015-05-31T09:00:05.000Z</time>
      </trkpt>
      <trkpt lat="44.57635" lon="4.11201">
        <ele>1005.5999755859</ele>
        <time>2015-05-31T09:00:20.000Z</time>
      </trkpt>
      <trkpt lat="44.5765" lon="4.112">
        <ele>1009.4000244141</ele>
        <time>2015-05-31T09:00:34.000Z</time>
      </trkpt>
      <trkpt lat="44.57656" lon="4.11199">
        <ele>1011</ele>
        <time>2015-05-31T09:00:40.000Z</time>
      </trkpt>
      <trkpt lat="44.57673" lon="4.1119">
        <ele>1013.5999755859</ele>
        <time>2015-05-31T09:00:57.000Z</time>
      </trkpt>
      <trkpt lat="44.57684" lon="4.11177">
        <ele>1011.4000244141</ele>
        <time>2015-05-31T09:01:14.000Z</time>
      </trkpt>
      <trkpt lat="44.57693" lon="4.11159">
        <ele>1007</ele>
        <time>2015-05-31T09:01:30.000Z</time>
      </trkpt>
      <trkpt lat="44.57704" lon="4.11144">
        <ele>1004.5999755859</ele>
        <time>2015-05-31T09:01:46.000Z</time>
      </trkpt>
      <trkpt lat="44.57713" lon="4.11138">
        <ele>1005.4000244141</ele>
        <time>2015-05-31T09:02:11.000Z</time>
      </trkpt>
      <trkpt lat="44.57731" lon="4.1113">
        <ele>1009.200012207</ele>
        <time>2015-05-31T09:02:27.000Z</time>
      </trkpt>
      <trkpt lat="44.57748" lon="4.11119">
        <ele>1010.4000244141</ele>
        <time>2015-05-31T09:02:43.000Z</time>
      </trkpt>
      <trkpt lat="44.57751" lon="4.11115">
        <ele>1010.200012207</ele>
        <time>2015-05-31T09:02:48.000Z</time>
      </trkpt>
      <trkpt lat="44.57763" lon="4.11105">
        <ele>1009.200012207</ele>
        <time>2015-05-31T09:03:03.000Z</time>
      </trkpt>
      <trkpt lat="44.57767" lon="4.11102">
        <ele>1009.200012207</ele>
        <time>2015-05-31T09:03:07.000Z</time>
      </trkpt>
      <trkpt lat="44.57769" lon="4.111">
        <ele>1008.5999755859</ele>
        <time>2015-05-31T09:03:09.000Z</time>
      </trkpt>
      <trkpt lat="44.57778" lon="4.11088">
        <ele>1007.799987793</ele>
        <time>2015-05-31T09:03:24.000Z</time>
      </trkpt>
      <trkpt lat="44.57786" lon="4.11078">
        <ele>1008.200012207</ele>
        <time>2015-05-31T09:03:37.000Z</time>
      </trkpt>
      <trkpt lat="44.5779" lon="4.11071">
        <ele>1007</ele>
        <time>2015-05-31T09:03:51.000Z</time>
      </trkpt>
      <trkpt lat="44.57795" lon="4.11058">
        <ele>1004.200012207</ele>
        <time>2015-05-31T09:04:03.000Z</time>
      </trkpt>
      <trkpt lat="44.57802" lon="4.11046">
        <ele>1001.799987793</ele>
        <time>2015-05-31T09:04:17.000Z</time>
      </trkpt>
      <trkpt lat="44.57806" lon="4.11031">
        <ele>1000.4000244141</ele>
        <time>2015-05-31T09:04:30.000Z</time>
      </trkpt>
      <trkpt lat="44.57808" lon="4.11013">
        <ele>996.79998779297</ele>
        <time>2015-05-31T09:04:45.000Z</time>
      </trkpt>
      <trkpt lat="44.57808" lon="4.10994">
        <ele>991.20001220703</ele>
        <time>2015-05-31T09:05:01.000Z</time>
      </trkpt>
      <trkpt lat="44.57805" lon="4.10976">
        <ele>984.20001220703</ele>
        <time>2015-05-31T09:05:16.000Z</time>
      </trkpt>
      <trkpt lat="44.57806" lon="4.10963">
        <ele>981</ele>
        <time>2015-05-31T09:05:23.000Z</time>
      </trkpt>
      <trkpt lat="44.57815" lon="4.10947">
        <ele>984</ele>
        <time>2015-05-31T09:05:40.000Z</time>
      </trkpt>
      <trkpt lat="44.57824" lon="4.10941">
        <ele>988.79998779297</ele>
        <time>2015-05-31T09:05:53.000Z</time>
      </trkpt>
      <trkpt lat="44.57836" lon="4.10936">
        <ele>995.40002441406</ele>
        <time>2015-05-31T09:06:08.000Z</time>
      </trkpt>
      <trkpt lat="44.57844" lon="4.10934">
        <ele>999.79998779297</ele>
        <time>2015-05-31T09:06:21.000Z</time>
      </trkpt>
      <trkpt lat="44.57847" lon="4.10926">
        <ele>1000.799987793</ele>
        <time>2015-05-31T09:06:36.000Z</time>
      </trkpt>
      <trkpt lat="44.57851" lon="4.10916">
        <ele>1001.799987793</ele>
        <time>2015-05-31T09:06:49.000Z</time>
      </trkpt>
      <trkpt lat="44.57856" lon="4.10902">
        <ele>1004.799987793</ele>
        <time>2015-05-31T09:07:06.000Z</time>
      </trkpt>
      <trkpt lat="44.5786" lon="4.10887">
        <ele>1006</ele>
        <time>2015-05-31T09:07:21.000Z</time>
      </trkpt>
      <trkpt lat="44.57861" lon="4.10873">
        <ele>1005.5999755859</ele>
        <time>2015-05-31T09:07:35.000Z</time>
      </trkpt>
      <trkpt lat="44.57863" lon="4.10859">
        <ele>1005.4000244141</ele>
        <time>2015-05-31T09:07:50.000Z</time>
      </trkpt>
      <trkpt lat="44.57861" lon="4.1084">
        <ele>1003</ele>
        <time>2015-05-31T09:08:07.000Z</time>
      </trkpt>
      <trkpt lat="44.57857" lon="4.10823">
        <ele>999.59997558594</ele>
        <time>2015-05-31T09:08:21.000Z</time>
      </trkpt>
      <trkpt lat="44.57853" lon="4.1081">
        <ele>996.40002441406</ele>
        <time>2015-05-31T09:08:33.000Z</time>
      </trkpt>
      <trkpt lat="44.57851" lon="4.10805">
        <ele>995.20001220703</ele>
        <time>2015-05-31T09:08:54.000Z</time>
      </trkpt>
      <trkpt lat="44.57848" lon="4.10785">
        <ele>992.20001220703</ele>
        <time>2015-05-31T09:09:09.000Z</time>
      </trkpt>
      <trkpt lat="44.5785" lon="4.10764">
        <ele>994.20001220703</ele>
        <time>2015-05-31T09:09:23.000Z</time>
      </trkpt>
      <trkpt lat="44.5785" lon="4.1076">
        <ele>994.20001220703</ele>
        <time>2015-05-31T09:09:25.000Z</time>
      </trkpt>
      <trkpt lat="44.57861" lon="4.10731">
        <ele>997.59997558594</ele>
        <time>2015-05-31T09:09:45.000Z</time>
      </trkpt>
      <trkpt lat="44.57868" lon="4.10721">
        <ele>1000.799987793</ele>
        <time>2015-05-31T09:10:00.000Z</time>
      </trkpt>
      <trkpt lat="44.57869" lon="4.1072">
        <ele>1001</ele>
        <time>2015-05-31T09:10:24.000Z</time>
      </trkpt>
      <trkpt lat="44.57878" lon="4.10714">
        <ele>1005.4000244141</ele>
        <time>2015-05-31T09:10:36.000Z</time>
      </trkpt>
      <trkpt lat="44.57883" lon="4.10712">
        <ele>1007.799987793</ele>
        <time>2015-05-31T09:10:41.000Z</time>
      </trkpt>
      <trkpt lat="44.579" lon="4.10701">
        <ele>1008.4000244141</ele>
        <time>2015-05-31T09:10:58.000Z</time>
      </trkpt>
      <trkpt lat="44.57915" lon="4.10696">
        <ele>1010</ele>
        <time>2015-05-31T09:11:14.000Z</time>
      </trkpt>
      <trkpt lat="44.57928" lon="4.10688">
        <ele>1009.4000244141</ele>
        <time>2015-05-31T09:11:29.000Z</time>
      </trkpt>
      <trkpt lat="44.57943" lon="4.10677">
        <ele>1008.799987793</ele>
        <time>2015-05-31T09:11:45.000Z</time>
      </trkpt>
      <trkpt lat="44.57956" lon="4.10661">
        <ele>1007.5999755859</ele>
        <time>2015-05-31T09:12:02.000Z</time>
      </trkpt>
      <trkpt lat="44.57958" lon="4.10657">
        <ele>1007</ele>
        <time>2015-05-31T09:12:06.000Z</time>
      </trkpt>
      <trkpt lat="44.57967" lon="4.10638">
        <ele>1005</ele>
        <time>2015-05-31T09:12:22.000Z</time>
      </trkpt>
      <trkpt lat="44.57976" lon="4.10621">
        <ele>1003.4000244141</ele>
        <time>2015-05-31T09:12:36.000Z</time>
      </trkpt>
      <trkpt lat="44.57984" lon="4.10612">
        <ele>1003.799987793</ele>
        <time>2015-05-31T09:12:49.000Z</time>
      </trkpt>
      <trkpt lat="44.57998" lon="4.10602">
        <ele>1007.5999755859</ele>
        <time>2015-05-31T09:13:05.000Z</time>
      </trkpt>
      <trkpt lat="44.58002" lon="4.10599">
        <ele>1008.799987793</ele>
        <time>2015-05-31T09:13:10.000Z</time>
      </trkpt>
      <trkpt lat="44.58008" lon="4.10596">
        <ele>1010.5999755859</ele>
        <time>2015-05-31T09:13:16.000Z</time>
      </trkpt>
      <trkpt lat="44.58019" lon="4.10586">
        <ele>1013.200012207</ele>
        <time>2015-05-31T09:13:31.000Z</time>
      </trkpt>
      <trkpt lat="44.58024" lon="4.10578">
        <ele>1013.4000244141</ele>
        <time>2015-05-31T09:13:39.000Z</time>
      </trkpt>
      <trkpt lat="44.58032" lon="4.10564">
        <ele>1013.200012207</ele>
        <time>2015-05-31T09:13:56.000Z</time>
      </trkpt>
      <trkpt lat="44.58037" lon="4.10546">
        <ele>1010.5999755859</ele>
        <time>2015-05-31T09:14:12.000Z</time>
      </trkpt>
      <trkpt lat="44.5804" lon="4.10539">
        <ele>1010.4000244141</ele>
        <time>2015-05-31T09:14:27.000Z</time>
      </trkpt>
      <trkpt lat="44.58045" lon="4.10527">
        <ele>1009.799987793</ele>
        <time>2015-05-31T09:14:41.000Z</time>
      </trkpt>
      <trkpt lat="44.58047" lon="4.10511">
        <ele>1007.4000244141</ele>
        <time>2015-05-31T09:14:56.000Z</time>
      </trkpt>
      <trkpt lat="44.5805" lon="4.10496">
        <ele>1004.5999755859</ele>
        <time>2015-05-31T09:15:10.000Z</time>
      </trkpt>
      <trkpt lat="44.58057" lon="4.10478">
        <ele>1004</ele>
        <time>2015-05-31T09:15:26.000Z</time>
      </trkpt>
      <trkpt lat="44.58066" lon="4.10464">
        <ele>1005.5999755859</ele>
        <time>2015-05-31T09:15:43.000Z</time>
      </trkpt>
      <trkpt lat="44.58071" lon="4.10456">
        <ele>1006.200012207</ele>
        <time>2015-05-31T09:15:54.000Z</time>
      </trkpt>
      <trkpt lat="44.58078" lon="4.10448">
        <ele>1007.5999755859</ele>
        <time>2015-05-31T09:16:06.000Z</time>
      </trkpt>
      <trkpt lat="44.58079" lon="4.10448">
        <ele>1008.200012207</ele>
        <time>2015-05-31T09:16:12.000Z</time>
      </trkpt>
      <trkpt lat="44.58091" lon="4.10443">
        <ele>1013.799987793</ele>
        <time>2015-05-31T09:16:26.000Z</time>
      </trkpt>
      <trkpt lat="44.58101" lon="4.10433">
        <ele>1017.5999755859</ele>
        <time>2015-05-31T09:16:42.000Z</time>
      </trkpt>
      <trkpt lat="44.58108" lon="4.10419">
        <ele>1019.4000244141</ele>
        <time>2015-05-31T09:16:57.000Z</time>
      </trkpt>
      <trkpt lat="44.58115" lon="4.10405">
        <ele>1021.5999755859</ele>
        <time>2015-05-31T09:17:12.000Z</time>
      </trkpt>
      <trkpt lat="44.58124" lon="4.10391">
        <ele>1024.5999755859</ele>
        <time>2015-05-31T09:17:26.000Z</time>
      </trkpt>
      <trkpt lat="44.5813" lon="4.1038">
        <ele>1027.1999511719</ele>
        <time>2015-05-31T09:17:41.000Z</time>
      </trkpt>
      <trkpt lat="44.58137" lon="4.10366">
        <ele>1028.4000244141</ele>
        <time>2015-05-31T09:17:55.000Z</time>
      </trkpt>
      <trkpt lat="44.58143" lon="4.10351">
        <ele>1028.8000488281</ele>
        <time>2015-05-31T09:18:11.000Z</time>
      </trkpt>
      <trkpt lat="44.58142" lon="4.10333">
        <ele>1026.1999511719</ele>
        <time>2015-05-31T09:18:26.000Z</time>
      </trkpt>
      <trkpt lat="44.58143" lon="4.1031">
        <ele>1023.5999755859</ele>
        <time>2015-05-31T09:18:42.000Z</time>
      </trkpt>
      <trkpt lat="44.58142" lon="4.10291">
        <ele>1020.5999755859</ele>
        <time>2015-05-31T09:18:57.000Z</time>
      </trkpt>
      <trkpt lat="44.5814" lon="4.10275">
        <ele>1017.4000244141</ele>
        <time>2015-05-31T09:19:12.000Z</time>
      </trkpt>
      <trkpt lat="44.58143" lon="4.10272">
        <ele>1018.200012207</ele>
        <time>2015-05-31T09:19:37.000Z</time>
      </trkpt>
      <trkpt lat="44.58153" lon="4.10258">
        <ele>1019.5999755859</ele>
        <time>2015-05-31T09:19:50.000Z</time>
      </trkpt>
      <trkpt lat="44.58157" lon="4.10255">
        <ele>1020.5999755859</ele>
        <time>2015-05-31T09:19:53.000Z</time>
      </trkpt>
      <trkpt lat="44.58162" lon="4.10248">
        <ele>1021.4000244141</ele>
        <time>2015-05-31T09:20:06.000Z</time>
      </trkpt>
      <trkpt lat="44.58172" lon="4.10237">
        <ele>1024.4000244141</ele>
        <time>2015-05-31T09:20:20.000Z</time>
      </trkpt>
      <trkpt lat="44.58185" lon="4.10224">
        <ele>1029.8000488281</ele>
        <time>2015-05-31T09:20:34.000Z</time>
      </trkpt>
      <trkpt lat="44.5819" lon="4.10218">
        <ele>1032</ele>
        <time>2015-05-31T09:20:40.000Z</time>
      </trkpt>
      <trkpt lat="44.58201" lon="4.10199">
        <ele>1034.5999755859</ele>
        <time>2015-05-31T09:20:58.000Z</time>
      </trkpt>
      <trkpt lat="44.58205" lon="4.10181">
        <ele>1032.5999755859</ele>
        <time>2015-05-31T09:21:15.000Z</time>
      </trkpt>
      <trkpt lat="44.58205" lon="4.10166">
        <ele>1029.4000244141</ele>
        <time>2015-05-31T09:21:28.000Z</time>
      </trkpt>
      <trkpt lat="44.58206" lon="4.10148">
        <ele>1025.4000244141</ele>
        <time>2015-05-31T09:21:42.000Z</time>
      </trkpt>
      <trkpt lat="44.58208" lon="4.10132">
        <ele>1022.5999755859</ele>
        <time>2015-05-31T09:21:56.000Z</time>
      </trkpt>
      <trkpt lat="44.58217" lon="4.10121">
        <ele>1024</ele>
        <time>2015-05-31T09:22:11.000Z</time>
      </trkpt>
      <trkpt lat="44.58226" lon="4.10116">
        <ele>1029.1999511719</ele>
        <time>2015-05-31T09:22:25.000Z</time>
      </trkpt>
      <trkpt lat="44.58231" lon="4.10114">
        <ele>1031.5999755859</ele>
        <time>2015-05-31T09:22:42.000Z</time>
      </trkpt>
      <trkpt lat="44.58234" lon="4.10111">
        <ele>1033.1999511719</ele>
        <time>2015-05-31T09:22:59.000Z</time>
      </trkpt>
      <trkpt lat="44.58245" lon="4.10104">
        <ele>1037.5999755859</ele>
        <time>2015-05-31T09:23:14.000Z</time>
      </trkpt>
      <trkpt lat="44.58255" lon="4.10096">
        <ele>1041.5999755859</ele>
        <time>2015-05-31T09:23:27.000Z</time>
      </trkpt>
      <trkpt lat="44.58265" lon="4.10085">
        <ele>1044.4000244141</ele>
        <time>2015-05-31T09:23:41.000Z</time>
      </trkpt>
      <trkpt lat="44.58273" lon="4.10068">
        <ele>1046</ele>
        <time>2015-05-31T09:23:56.000Z</time>
      </trkpt>
      <trkpt lat="44.5828" lon="4.10051">
        <ele>1047.1999511719</ele>
        <time>2015-05-31T09:24:11.000Z</time>
      </trkpt>
      <trkpt lat="44.58287" lon="4.10038">
        <ele>1047</ele>
        <time>2015-05-31T09:24:26.000Z</time>
      </trkpt>
      <trkpt lat="44.58288" lon="4.10036">
        <ele>1046.5999755859</ele>
        <time>2015-05-31T09:24:39.000Z</time>
      </trkpt>
      <trkpt lat="44.58291" lon="4.10032">
        <ele>1045.8000488281</ele>
        <time>2015-05-31T09:25:06.000Z</time>
      </trkpt>
      <trkpt lat="44.58299" lon="4.10018">
        <ele>1048.5999755859</ele>
        <time>2015-05-31T09:25:22.000Z</time>
      </trkpt>
      <trkpt lat="44.58298" lon="4.10017">
        <ele>1048</ele>
        <time>2015-05-31T09:25:39.000Z</time>
      </trkpt>
      <trkpt lat="44.58301" lon="4.10012">
        <ele>1048.4000244141</ele>
        <time>2015-05-31T09:25:55.000Z</time>
      </trkpt>
      <trkpt lat="44.5831" lon="4.10001">
        <ele>1050.1999511719</ele>
        <time>2015-05-31T09:26:09.000Z</time>
      </trkpt>
      <trkpt lat="44.58316" lon="4.09992">
        <ele>1051</ele>
        <time>2015-05-31T09:26:19.000Z</time>
      </trkpt>
      <trkpt lat="44.58321" lon="4.09978">
        <ele>1051.8000488281</ele>
        <time>2015-05-31T09:26:32.000Z</time>
      </trkpt>
      <trkpt lat="44.5833" lon="4.09966">
        <ele>1055.8000488281</ele>
        <time>2015-05-31T09:26:47.000Z</time>
      </trkpt>
      <trkpt lat="44.58339" lon="4.09956">
        <ele>1060</ele>
        <time>2015-05-31T09:27:01.000Z</time>
      </trkpt>
      <trkpt lat="44.5834" lon="4.09954">
        <ele>1060.8000488281</ele>
        <time>2015-05-31T09:27:04.000Z</time>
      </trkpt>
      <trkpt lat="44.58341" lon="4.09951">
        <ele>1061.1999511719</ele>
        <time>2015-05-31T09:27:06.000Z</time>
      </trkpt>
      <trkpt lat="44.58346" lon="4.09942">
        <ele>1063.8000488281</ele>
        <time>2015-05-31T09:27:20.000Z</time>
      </trkpt>
      <trkpt lat="44.58354" lon="4.09929">
        <ele>1065.5999755859</ele>
        <time>2015-05-31T09:27:34.000Z</time>
      </trkpt>
      <trkpt lat="44.5836" lon="4.09913">
        <ele>1068.8000488281</ele>
        <time>2015-05-31T09:27:48.000Z</time>
      </trkpt>
      <trkpt lat="44.58369" lon="4.09891">
        <ele>1073</ele>
        <time>2015-05-31T09:28:06.000Z</time>
      </trkpt>
      <trkpt lat="44.58371" lon="4.09882">
        <ele>1072.5999755859</ele>
        <time>2015-05-31T09:28:20.000Z</time>
      </trkpt>
      <trkpt lat="44.58371" lon="4.09874">
        <ele>1072.4000244141</ele>
        <time>2015-05-31T09:28:35.000Z</time>
      </trkpt>
      <trkpt lat="44.58371" lon="4.0986">
        <ele>1073.1999511719</ele>
        <time>2015-05-31T09:28:48.000Z</time>
      </trkpt>
      <trkpt lat="44.58366" lon="4.09844">
        <ele>1070.5999755859</ele>
        <time>2015-05-31T09:29:02.000Z</time>
      </trkpt>
      <trkpt lat="44.58364" lon="4.09839">
        <ele>1069</ele>
        <time>2015-05-31T09:29:18.000Z</time>
      </trkpt>
      <trkpt lat="44.58363" lon="4.09838">
        <ele>1068.5999755859</ele>
        <time>2015-05-31T09:29:39.000Z</time>
      </trkpt>
      <trkpt lat="44.58363" lon="4.09836">
        <ele>1068.4000244141</ele>
        <time>2015-05-31T09:29:53.000Z</time>
      </trkpt>
      <trkpt lat="44.58364" lon="4.09836">
        <ele>1068.8000488281</ele>
        <time>2015-05-31T09:30:22.000Z</time>
      </trkpt>
      <trkpt lat="44.58364" lon="4.09837">
        <ele>1068.8000488281</ele>
        <time>2015-05-31T09:30:50.000Z</time>
      </trkpt>
      <trkpt lat="44.58364" lon="4.09836">
        <ele>1068.8000488281</ele>
        <time>2015-05-31T09:31:22.000Z</time>
      </trkpt>
      <trkpt lat="44.58364" lon="4.09837">
        <ele>1069</ele>
        <time>2015-05-31T09:31:55.000Z</time>
      </trkpt>
      <trkpt lat="44.58364" lon="4.09836">
        <ele>1069</ele>
        <time>2015-05-31T09:32:25.000Z</time>
      </trkpt>
      <trkpt lat="44.58364" lon="4.09836">
        <ele>1068.8000488281</ele>
        <time>2015-05-31T09:32:50.000Z</time>
      </trkpt>
      <trkpt lat="44.58364" lon="4.09836">
        <ele>1068.8000488281</ele>
        <time>2015-05-31T09:33:16.000Z</time>
      </trkpt>
      <trkpt lat="44.58364" lon="4.09823">
        <ele>1068</ele>
        <time>2015-05-31T09:33:35.000Z</time>
      </trkpt>
      <trkpt lat="44.58366" lon="4.09814">
        <ele>1068.5999755859</ele>
        <time>2015-05-31T09:33:43.000Z</time>
      </trkpt>
      <trkpt lat="44.58368" lon="4.09808">
        <ele>1069.4000244141</ele>
        <time>2015-05-31T09:33:47.000Z</time>
      </trkpt>
      <trkpt lat="44.58371" lon="4.09799">
        <ele>1068.8000488281</ele>
        <time>2015-05-31T09:33:54.000Z</time>
      </trkpt>
      <trkpt lat="44.58378" lon="4.09774">
        <ele>1069.4000244141</ele>
        <time>2015-05-31T09:34:12.000Z</time>
      </trkpt>
      <trkpt lat="44.58386" lon="4.09749">
        <ele>1066.4000244141</ele>
        <time>2015-05-31T09:34:31.000Z</time>
      </trkpt>
      <trkpt lat="44.5839" lon="4.0973">
        <ele>1063.5999755859</ele>
        <time>2015-05-31T09:34:46.000Z</time>
      </trkpt>
      <trkpt lat="44.58393" lon="4.09715">
        <ele>1061.5999755859</ele>
        <time>2015-05-31T09:34:59.000Z</time>
      </trkpt>
      <trkpt lat="44.584" lon="4.09696">
        <ele>1062.1999511719</ele>
        <time>2015-05-31T09:35:12.000Z</time>
      </trkpt>
      <trkpt lat="44.58401" lon="4.09693">
        <ele>1062.1999511719</ele>
        <time>2015-05-31T09:35:14.000Z</time>
      </trkpt>
      <trkpt lat="44.58401" lon="4.0969">
        <ele>1061.4000244141</ele>
        <time>2015-05-31T09:35:17.000Z</time>
      </trkpt>
      <trkpt lat="44.58406" lon="4.09678">
        <ele>1060.5999755859</ele>
        <time>2015-05-31T09:35:26.000Z</time>
      </trkpt>
      <trkpt lat="44.58415" lon="4.09656">
        <ele>1059</ele>
        <time>2015-05-31T09:35:42.000Z</time>
      </trkpt>
      <trkpt lat="44.58419" lon="4.09637">
        <ele>1057.4000244141</ele>
        <time>2015-05-31T09:35:55.000Z</time>
      </trkpt>
      <trkpt lat="44.58429" lon="4.09612">
        <ele>1057.1999511719</ele>
        <time>2015-05-31T09:36:12.000Z</time>
      </trkpt>
      <trkpt lat="44.58435" lon="4.096">
        <ele>1057</ele>
        <time>2015-05-31T09:36:27.000Z</time>
      </trkpt>
      <trkpt lat="44.58438" lon="4.09594">
        <ele>1057.1999511719</ele>
        <time>2015-05-31T09:36:47.000Z</time>
      </trkpt>
      <trkpt lat="44.58447" lon="4.09575">
        <ele>1058.1999511719</ele>
        <time>2015-05-31T09:37:02.000Z</time>
      </trkpt>
      <trkpt lat="44.58448" lon="4.09573">
        <ele>1058.1999511719</ele>
        <time>2015-05-31T09:37:16.000Z</time>
      </trkpt>
      <trkpt lat="44.5845" lon="4.0957">
        <ele>1058.5999755859</ele>
        <time>2015-05-31T09:37:32.000Z</time>
      </trkpt>
      <trkpt lat="44.58453" lon="4.09562">
        <ele>1058.1999511719</ele>
        <time>2015-05-31T09:37:52.000Z</time>
      </trkpt>
      <trkpt lat="44.58462" lon="4.09548">
        <ele>1057.4000244141</ele>
        <time>2015-05-31T09:38:09.000Z</time>
      </trkpt>
      <trkpt lat="44.58468" lon="4.0954">
        <ele>1057.5999755859</ele>
        <time>2015-05-31T09:38:30.000Z</time>
      </trkpt>
      <trkpt lat="44.58473" lon="4.0953">
        <ele>1059.1999511719</ele>
        <time>2015-05-31T09:38:49.000Z</time>
      </trkpt>
      <trkpt lat="44.5848" lon="4.09516">
        <ele>1058.5999755859</ele>
        <time>2015-05-31T09:39:04.000Z</time>
      </trkpt>
      <trkpt lat="44.58483" lon="4.09509">
        <ele>1058</ele>
        <time>2015-05-31T09:39:19.000Z</time>
      </trkpt>
      <trkpt lat="44.58483" lon="4.09509">
        <ele>1058.1999511719</ele>
        <time>2015-05-31T09:39:35.000Z</time>
      </trkpt>
      <trkpt lat="44.58483" lon="4.09511">
        <ele>1058.4000244141</ele>
        <time>2015-05-31T09:39:51.000Z</time>
      </trkpt>
      <trkpt lat="44.58483" lon="4.09511">
        <ele>1058.4000244141</ele>
        <time>2015-05-31T09:40:14.000Z</time>
      </trkpt>
      <trkpt lat="44.58485" lon="4.09503">
        <ele>1057.1999511719</ele>
        <time>2015-05-31T09:40:26.000Z</time>
      </trkpt>
      <trkpt lat="44.58488" lon="4.09497">
        <ele>1056.5999755859</ele>
        <time>2015-05-31T09:40:41.000Z</time>
      </trkpt>
      <trkpt lat="44.58489" lon="4.09494">
        <ele>1056.1999511719</ele>
        <time>2015-05-31T09:40:43.000Z</time>
      </trkpt>
      <trkpt lat="44.58496" lon="4.09471">
        <ele>1054.5999755859</ele>
        <time>2015-05-31T09:41:00.000Z</time>
      </trkpt>
      <trkpt lat="44.58498" lon="4.09464">
        <ele>1054.5999755859</ele>
        <time>2015-05-31T09:41:08.000Z</time>
      </trkpt>
      <trkpt lat="44.58504" lon="4.09443">
        <ele>1054.4000244141</ele>
        <time>2015-05-31T09:41:23.000Z</time>
      </trkpt>
      <trkpt lat="44.58512" lon="4.0942">
        <ele>1056.8000488281</ele>
        <time>2015-05-31T09:41:39.000Z</time>
      </trkpt>
      <trkpt lat="44.58513" lon="4.09416">
        <ele>1056.8000488281</ele>
        <time>2015-05-31T09:41:42.000Z</time>
      </trkpt>
      <trkpt lat="44.58517" lon="4.09395">
        <ele>1056.5999755859</ele>
        <time>2015-05-31T09:41:57.000Z</time>
      </trkpt>
      <trkpt lat="44.58517" lon="4.09392">
        <ele>1056.1999511719</ele>
        <time>2015-05-31T09:41:59.000Z</time>
      </trkpt>
      <trkpt lat="44.58518" lon="4.09381">
        <ele>1055.1999511719</ele>
        <time>2015-05-31T09:42:07.000Z</time>
      </trkpt>
      <trkpt lat="44.58518" lon="4.09366">
        <ele>1053.8000488281</ele>
        <time>2015-05-31T09:42:23.000Z</time>
      </trkpt>
      <trkpt lat="44.58519" lon="4.09365">
        <ele>1053.8000488281</ele>
        <time>2015-05-31T09:42:34.000Z</time>
      </trkpt>
      <trkpt lat="44.58521" lon="4.09365">
        <ele>1054.5999755859</ele>
        <time>2015-05-31T09:42:52.000Z</time>
      </trkpt>
      <trkpt lat="44.58523" lon="4.09365">
        <ele>1055.4000244141</ele>
        <time>2015-05-31T09:43:05.000Z</time>
      </trkpt>
      <trkpt lat="44.58527" lon="4.09361">
        <ele>1057</ele>
        <time>2015-05-31T09:43:29.000Z</time>
      </trkpt>
      <trkpt lat="44.58537" lon="4.09349">
        <ele>1060.5999755859</ele>
        <time>2015-05-31T09:43:43.000Z</time>
      </trkpt>
      <trkpt lat="44.58544" lon="4.0934">
        <ele>1062.5999755859</ele>
        <time>2015-05-31T09:43:58.000Z</time>
      </trkpt>
      <trkpt lat="44.58544" lon="4.09339">
        <ele>1062.5999755859</ele>
        <time>2015-05-31T09:44:12.000Z</time>
      </trkpt>
      <trkpt lat="44.58546" lon="4.09335">
        <ele>1063</ele>
        <time>2015-05-31T09:44:29.000Z</time>
      </trkpt>
      <trkpt lat="44.58552" lon="4.09326">
        <ele>1065</ele>
        <time>2015-05-31T09:44:45.000Z</time>
      </trkpt>
      <trkpt lat="44.58558" lon="4.09315">
        <ele>1066.4000244141</ele>
        <time>2015-05-31T09:44:58.000Z</time>
      </trkpt>
      <trkpt lat="44.58559" lon="4.09304">
        <ele>1066.5999755859</ele>
        <time>2015-05-31T09:45:12.000Z</time>
      </trkpt>
      <trkpt lat="44.58559" lon="4.09292">
        <ele>1066.4000244141</ele>
        <time>2015-05-31T09:45:25.000Z</time>
      </trkpt>
      <trkpt lat="44.5856" lon="4.09279">
        <ele>1066.5999755859</ele>
        <time>2015-05-31T09:45:41.000Z</time>
      </trkpt>
      <trkpt lat="44.58563" lon="4.09269">
        <ele>1068.4000244141</ele>
        <time>2015-05-31T09:45:51.000Z</time>
      </trkpt>
      <trkpt lat="44.5857" lon="4.09251">
        <ele>1072.8000488281</ele>
        <time>2015-05-31T09:46:06.000Z</time>
      </trkpt>
      <trkpt lat="44.58578" lon="4.09228">
        <ele>1077.1999511719</ele>
        <time>2015-05-31T09:46:24.000Z</time>
      </trkpt>
      <trkpt lat="44.5858" lon="4.09213">
        <ele>1078.4000244141</ele>
        <time>2015-05-31T09:46:38.000Z</time>
      </trkpt>
      <trkpt lat="44.58582" lon="4.09199">
        <ele>1079.4000244141</ele>
        <time>2015-05-31T09:46:52.000Z</time>
      </trkpt>
      <trkpt lat="44.58581" lon="4.09194">
        <ele>1079.1999511719</ele>
        <time>2015-05-31T09:47:10.000Z</time>
      </trkpt>
      <trkpt lat="44.58581" lon="4.09185">
        <ele>1081.1999511719</ele>
        <time>2015-05-31T09:47:20.000Z</time>
      </trkpt>
      <trkpt lat="44.58586" lon="4.09171">
        <ele>1085.4000244141</ele>
        <time>2015-05-31T09:47:34.000Z</time>
      </trkpt>
      <trkpt lat="44.58588" lon="4.0916">
        <ele>1088</ele>
        <time>2015-05-31T09:47:50.000Z</time>
      </trkpt>
      <trkpt lat="44.58592" lon="4.09143">
        <ele>1089.5999755859</ele>
        <time>2015-05-31T09:48:06.000Z</time>
      </trkpt>
      <trkpt lat="44.58592" lon="4.09125">
        <ele>1090.5999755859</ele>
        <time>2015-05-31T09:48:20.000Z</time>
      </trkpt>
      <trkpt lat="44.58593" lon="4.09113">
        <ele>1091.4000244141</ele>
        <time>2015-05-31T09:48:36.000Z</time>
      </trkpt>
      <trkpt lat="44.58595" lon="4.09108">
        <ele>1092.5999755859</ele>
        <time>2015-05-31T09:48:53.000Z</time>
      </trkpt>
      <trkpt lat="44.586" lon="4.09095">
        <ele>1097.4000244141</ele>
        <time>2015-05-31T09:49:08.000Z</time>
      </trkpt>
      <trkpt lat="44.58603" lon="4.09085">
        <ele>1099</ele>
        <time>2015-05-31T09:49:21.000Z</time>
      </trkpt>
      <trkpt lat="44.58606" lon="4.09075">
        <ele>1099.8000488281</ele>
        <time>2015-05-31T09:49:34.000Z</time>
      </trkpt>
      <trkpt lat="44.5861" lon="4.0906">
        <ele>1101.1999511719</ele>
        <time>2015-05-31T09:49:48.000Z</time>
      </trkpt>
      <trkpt lat="44.58612" lon="4.09044">
        <ele>1102.5999755859</ele>
        <time>2015-05-31T09:50:03.000Z</time>
      </trkpt>
      <trkpt lat="44.58614" lon="4.09031">
        <ele>1103.8000488281</ele>
        <time>2015-05-31T09:50:16.000Z</time>
      </trkpt>
      <trkpt lat="44.58616" lon="4.09016">
        <ele>1105.8000488281</ele>
        <time>2015-05-31T09:50:35.000Z</time>
      </trkpt>
      <trkpt lat="44.58616" lon="4.09015">
        <ele>1106</ele>
        <time>2015-05-31T09:50:55.000Z</time>
      </trkpt>
      <trkpt lat="44.58617" lon="4.09014">
        <ele>1105.8000488281</ele>
        <time>2015-05-31T09:51:11.000Z</time>
      </trkpt>
      <trkpt lat="44.58616" lon="4.0901">
        <ele>1106.5999755859</ele>
        <time>2015-05-31T09:51:33.000Z</time>
      </trkpt>
      <trkpt lat="44.58617" lon="4.09003">
        <ele>1107</ele>
        <time>2015-05-31T09:51:45.000Z</time>
      </trkpt>
      <trkpt lat="44.58619" lon="4.08983">
        <ele>1108.5999755859</ele>
        <time>2015-05-31T09:52:02.000Z</time>
      </trkpt>
      <trkpt lat="44.58619" lon="4.08978">
        <ele>1109.1999511719</ele>
        <time>2015-05-31T09:52:19.000Z</time>
      </trkpt>
      <trkpt lat="44.58618" lon="4.08969">
        <ele>1110.1999511719</ele>
        <time>2015-05-31T09:52:34.000Z</time>
      </trkpt>
      <trkpt lat="44.58619" lon="4.0896">
        <ele>1111.1999511719</ele>
        <time>2015-05-31T09:52:49.000Z</time>
      </trkpt>
      <trkpt lat="44.58619" lon="4.08941">
        <ele>1112.5999755859</ele>
        <time>2015-05-31T09:53:03.000Z</time>
      </trkpt>
      <trkpt lat="44.5862" lon="4.08936">
        <ele>1112.1999511719</ele>
        <time>2015-05-31T09:53:18.000Z</time>
      </trkpt>
      <trkpt lat="44.58619" lon="4.08913">
        <ele>1112.4000244141</ele>
        <time>2015-05-31T09:53:34.000Z</time>
      </trkpt>
      <trkpt lat="44.58617" lon="4.08892">
        <ele>1113</ele>
        <time>2015-05-31T09:53:49.000Z</time>
      </trkpt>
      <trkpt lat="44.58618" lon="4.08882">
        <ele>1112.1999511719</ele>
        <time>2015-05-31T09:54:03.000Z</time>
      </trkpt>
      <trkpt lat="44.58617" lon="4.08873">
        <ele>1112.8000488281</ele>
        <time>2015-05-31T09:54:23.000Z</time>
      </trkpt>
      <trkpt lat="44.58615" lon="4.08864">
        <ele>1113.8000488281</ele>
        <time>2015-05-31T09:54:30.000Z</time>
      </trkpt>
      <trkpt lat="44.58612" lon="4.08851">
        <ele>1117</ele>
        <time>2015-05-31T09:54:43.000Z</time>
      </trkpt>
      <trkpt lat="44.5861" lon="4.08843">
        <ele>1118.8000488281</ele>
        <time>2015-05-31T09:54:57.000Z</time>
      </trkpt>
      <trkpt lat="44.58605" lon="4.08819">
        <ele>1124</ele>
        <time>2015-05-31T09:55:14.000Z</time>
      </trkpt>
      <trkpt lat="44.58602" lon="4.088">
        <ele>1127.1999511719</ele>
        <time>2015-05-31T09:55:28.000Z</time>
      </trkpt>
      <trkpt lat="44.58603" lon="4.08787">
        <ele>1127.5999755859</ele>
        <time>2015-05-31T09:55:42.000Z</time>
      </trkpt>
      <trkpt lat="44.58607" lon="4.08773">
        <ele>1125.8000488281</ele>
        <time>2015-05-31T09:55:55.000Z</time>
      </trkpt>
      <trkpt lat="44.58612" lon="4.08758">
        <ele>1124</ele>
        <time>2015-05-31T09:56:10.000Z</time>
      </trkpt>
      <trkpt lat="44.58614" lon="4.08747">
        <ele>1123.4000244141</ele>
        <time>2015-05-31T09:56:22.000Z</time>
      </trkpt>
      <trkpt lat="44.58617" lon="4.08735">
        <ele>1121.5999755859</ele>
        <time>2015-05-31T09:56:37.000Z</time>
      </trkpt>
      <trkpt lat="44.58619" lon="4.08731">
        <ele>1120.5999755859</ele>
        <time>2015-05-31T09:57:07.000Z</time>
      </trkpt>
      <trkpt lat="44.5862" lon="4.0873">
        <ele>1120.1999511719</ele>
        <time>2015-05-31T09:57:30.000Z</time>
      </trkpt>
      <trkpt lat="44.58618" lon="4.0873">
        <ele>1121.4000244141</ele>
        <time>2015-05-31T09:58:00.000Z</time>
      </trkpt>
      <trkpt lat="44.58616" lon="4.0873">
        <ele>1122.5999755859</ele>
        <time>2015-05-31T09:58:18.000Z</time>
      </trkpt>
      <trkpt lat="44.58616" lon="4.08727">
        <ele>1123.1999511719</ele>
        <time>2015-05-31T09:58:40.000Z</time>
      </trkpt>
      <trkpt lat="44.58617" lon="4.08721">
        <ele>1122.8000488281</ele>
        <time>2015-05-31T09:58:51.000Z</time>
      </trkpt>
      <trkpt lat="44.58617" lon="4.087">
        <ele>1124.5999755859</ele>
        <time>2015-05-31T09:59:06.000Z</time>
      </trkpt>
      <trkpt lat="44.58616" lon="4.08686">
        <ele>1126.4000244141</ele>
        <time>2015-05-31T09:59:17.000Z</time>
      </trkpt>
      <trkpt lat="44.58617" lon="4.08668">
        <ele>1129.1999511719</ele>
        <time>2015-05-31T09:59:33.000Z</time>
      </trkpt>
      <trkpt lat="44.58619" lon="4.0865">
        <ele>1130.8000488281</ele>
        <time>2015-05-31T09:59:46.000Z</time>
      </trkpt>
      <trkpt lat="44.58622" lon="4.0863">
        <ele>1133</ele>
        <time>2015-05-31T09:59:59.000Z</time>
      </trkpt>
      <trkpt lat="44.58622" lon="4.0862">
        <ele>1134.5999755859</ele>
        <time>2015-05-31T10:00:07.000Z</time>
      </trkpt>
      <trkpt lat="44.58624" lon="4.08612">
        <ele>1134.8000488281</ele>
        <time>2015-05-31T10:00:16.000Z</time>
      </trkpt>
      <trkpt lat="44.58635" lon="4.08606">
        <ele>1130.1999511719</ele>
        <time>2015-05-31T10:00:30.000Z</time>
      </trkpt>
      <trkpt lat="44.58636" lon="4.08607">
        <ele>1129</ele>
        <time>2015-05-31T10:00:32.000Z</time>
      </trkpt>
      <trkpt lat="44.58654" lon="4.08608">
        <ele>1117.8000488281</ele>
        <time>2015-05-31T10:00:48.000Z</time>
      </trkpt>
      <trkpt lat="44.58672" lon="4.08604">
        <ele>1108.5999755859</ele>
        <time>2015-05-31T10:01:01.000Z</time>
      </trkpt>
      <trkpt lat="44.58675" lon="4.08601">
        <ele>1107.4000244141</ele>
        <time>2015-05-31T10:01:04.000Z</time>
      </trkpt>
      <trkpt lat="44.58687" lon="4.08585">
        <ele>1105</ele>
        <time>2015-05-31T10:01:20.000Z</time>
      </trkpt>
      <trkpt lat="44.58695" lon="4.0857">
        <ele>1105</ele>
        <time>2015-05-31T10:01:34.000Z</time>
      </trkpt>
      <trkpt lat="44.58701" lon="4.08557">
        <ele>1105.1999511719</ele>
        <time>2015-05-31T10:01:45.000Z</time>
      </trkpt>
      <trkpt lat="44.58705" lon="4.08552">
        <ele>1104.8000488281</ele>
        <time>2015-05-31T10:01:50.000Z</time>
      </trkpt>
      <trkpt lat="44.58722" lon="4.08538">
        <ele>1100.8000488281</ele>
        <time>2015-05-31T10:02:10.000Z</time>
      </trkpt>
      <trkpt lat="44.58726" lon="4.08535">
        <ele>1099.4000244141</ele>
        <time>2015-05-31T10:02:14.000Z</time>
      </trkpt>
      <trkpt lat="44.58738" lon="4.08525">
        <ele>1094.5999755859</ele>
        <time>2015-05-31T10:02:28.000Z</time>
      </trkpt>
      <trkpt lat="44.58748" lon="4.0851">
        <ele>1091.8000488281</ele>
        <time>2015-05-31T10:02:44.000Z</time>
      </trkpt>
      <trkpt lat="44.58749" lon="4.08503">
        <ele>1093</ele>
        <time>2015-05-31T10:02:59.000Z</time>
      </trkpt>
      <trkpt lat="44.58748" lon="4.08501">
        <ele>1093.8000488281</ele>
        <time>2015-05-31T10:03:21.000Z</time>
      </trkpt>
      <trkpt lat="44.58747" lon="4.085">
        <ele>1094.4000244141</ele>
        <time>2015-05-31T10:03:44.000Z</time>
      </trkpt>
      <trkpt lat="44.58748" lon="4.08499">
        <ele>1094.4000244141</ele>
        <time>2015-05-31T10:04:04.000Z</time>
      </trkpt>
      <trkpt lat="44.58748" lon="4.08491">
        <ele>1095.8000488281</ele>
        <time>2015-05-31T10:04:19.000Z</time>
      </trkpt>
      <trkpt lat="44.58747" lon="4.08461">
        <ele>1097</ele>
        <time>2015-05-31T10:04:36.000Z</time>
      </trkpt>
      <trkpt lat="44.58746" lon="4.08452">
        <ele>1097.5999755859</ele>
        <time>2015-05-31T10:04:41.000Z</time>
      </trkpt>
      <trkpt lat="44.58737" lon="4.0843">
        <ele>1104.8000488281</ele>
        <time>2015-05-31T10:04:59.000Z</time>
      </trkpt>
      <trkpt lat="44.58734" lon="4.08411">
        <ele>1108</ele>
        <time>2015-05-31T10:05:13.000Z</time>
      </trkpt>
      <trkpt lat="44.58734" lon="4.08408">
        <ele>1108</ele>
        <time>2015-05-31T10:05:16.000Z</time>
      </trkpt>
      <trkpt lat="44.58735" lon="4.08394">
        <ele>1107.5999755859</ele>
        <time>2015-05-31T10:05:25.000Z</time>
      </trkpt>
      <trkpt lat="44.58733" lon="4.08368">
        <ele>1111</ele>
        <time>2015-05-31T10:05:42.000Z</time>
      </trkpt>
      <trkpt lat="44.58737" lon="4.08354">
        <ele>1109.4000244141</ele>
        <time>2015-05-31T10:05:57.000Z</time>
      </trkpt>
      <trkpt lat="44.58738" lon="4.08352">
        <ele>1108.5999755859</ele>
        <time>2015-05-31T10:06:00.000Z</time>
      </trkpt>
      <trkpt lat="44.58745" lon="4.08333">
        <ele>1105.8000488281</ele>
        <time>2015-05-31T10:06:15.000Z</time>
      </trkpt>
      <trkpt lat="44.58751" lon="4.08307">
        <ele>1105.4000244141</ele>
        <time>2015-05-31T10:06:34.000Z</time>
      </trkpt>
      <trkpt lat="44.58751" lon="4.08305">
        <ele>1105.8000488281</ele>
        <time>2015-05-31T10:06:35.000Z</time>
      </trkpt>
      <trkpt lat="44.58747" lon="4.08278">
        <ele>1113</ele>
        <time>2015-05-31T10:06:53.000Z</time>
      </trkpt>
      <trkpt lat="44.58745" lon="4.08263">
        <ele>1118.4000244141</ele>
        <time>2015-05-31T10:07:08.000Z</time>
      </trkpt>
      <trkpt lat="44.58753" lon="4.08259">
        <ele>1114.1999511719</ele>
        <time>2015-05-31T10:07:21.000Z</time>
      </trkpt>
      <trkpt lat="44.58763" lon="4.08254">
        <ele>1108.8000488281</ele>
        <time>2015-05-31T10:07:34.000Z</time>
      </trkpt>
      <trkpt lat="44.58766" lon="4.08252">
        <ele>1108</ele>
        <time>2015-05-31T10:07:38.000Z</time>
      </trkpt>
      <trkpt lat="44.58774" lon="4.08244">
        <ele>1108.5999755859</ele>
        <time>2015-05-31T10:07:55.000Z</time>
      </trkpt>
      <trkpt lat="44.58776" lon="4.08243">
        <ele>1108.1999511719</ele>
        <time>2015-05-31T10:08:07.000Z</time>
      </trkpt>
      <trkpt lat="44.58778" lon="4.08241">
        <ele>1107.8000488281</ele>
        <time>2015-05-31T10:08:10.000Z</time>
      </trkpt>
      <trkpt lat="44.58794" lon="4.08228">
        <ele>1106.8000488281</ele>
        <time>2015-05-31T10:08:27.000Z</time>
      </trkpt>
      <trkpt lat="44.58801" lon="4.0822">
        <ele>1108</ele>
        <time>2015-05-31T10:08:43.000Z</time>
      </trkpt>
      <trkpt lat="44.58816" lon="4.08217">
        <ele>1102.8000488281</ele>
        <time>2015-05-31T10:09:00.000Z</time>
      </trkpt>
      <trkpt lat="44.58823" lon="4.08218">
        <ele>1099</ele>
        <time>2015-05-31T10:09:09.000Z</time>
      </trkpt>
      <trkpt lat="44.58827" lon="4.08218">
        <ele>1097.4000244141</ele>
        <time>2015-05-31T10:09:12.000Z</time>
      </trkpt>
      <trkpt lat="44.58837" lon="4.08215">
        <ele>1093.8000488281</ele>
        <time>2015-05-31T10:09:28.000Z</time>
      </trkpt>
      <trkpt lat="44.58848" lon="4.08214">
        <ele>1089</ele>
        <time>2015-05-31T10:09:40.000Z</time>
      </trkpt>
      <trkpt lat="44.58867" lon="4.08203">
        <ele>1084</ele>
        <time>2015-05-31T10:09:58.000Z</time>
      </trkpt>
      <trkpt lat="44.5887" lon="4.08198">
        <ele>1084.8000488281</ele>
        <time>2015-05-31T10:10:04.000Z</time>
      </trkpt>
      <trkpt lat="44.58875" lon="4.08183">
        <ele>1084.8000488281</ele>
        <time>2015-05-31T10:10:17.000Z</time>
      </trkpt>
      <trkpt lat="44.58876" lon="4.08178">
        <ele>1084.8000488281</ele>
        <time>2015-05-31T10:10:21.000Z</time>
      </trkpt>
      <trkpt lat="44.58881" lon="4.08144">
        <ele>1087</ele>
        <time>2015-05-31T10:10:39.000Z</time>
      </trkpt>
      <trkpt lat="44.58882" lon="4.08118">
        <ele>1088.8000488281</ele>
        <time>2015-05-31T10:10:55.000Z</time>
      </trkpt>
      <trkpt lat="44.58882" lon="4.08097">
        <ele>1089</ele>
        <time>2015-05-31T10:11:09.000Z</time>
      </trkpt>
      <trkpt lat="44.58881" lon="4.08091">
        <ele>1089.5999755859</ele>
        <time>2015-05-31T10:11:13.000Z</time>
      </trkpt>
      <trkpt lat="44.58878" lon="4.08061">
        <ele>1093.4000244141</ele>
        <time>2015-05-31T10:11:31.000Z</time>
      </trkpt>
      <trkpt lat="44.58877" lon="4.08051">
        <ele>1095</ele>
        <time>2015-05-31T10:11:38.000Z</time>
      </trkpt>
      <trkpt lat="44.58877" lon="4.08048">
        <ele>1095</ele>
        <time>2015-05-31T10:11:40.000Z</time>
      </trkpt>
      <trkpt lat="44.58879" lon="4.08025">
        <ele>1095.8000488281</ele>
        <time>2015-05-31T10:11:56.000Z</time>
      </trkpt>
      <trkpt lat="44.58877" lon="4.07998">
        <ele>1102.4000244141</ele>
        <time>2015-05-31T10:12:14.000Z</time>
      </trkpt>
      <trkpt lat="44.58876" lon="4.07979">
        <ele>1107.1999511719</ele>
        <time>2015-05-31T10:12:29.000Z</time>
      </trkpt>
      <trkpt lat="44.58882" lon="4.07975">
        <ele>1103.4000244141</ele>
        <time>2015-05-31T10:12:42.000Z</time>
      </trkpt>
      <trkpt lat="44.58896" lon="4.07971">
        <ele>1094.8000488281</ele>
        <time>2015-05-31T10:12:57.000Z</time>
      </trkpt>
      <trkpt lat="44.589" lon="4.07967">
        <ele>1094.1999511719</ele>
        <time>2015-05-31T10:13:10.000Z</time>
      </trkpt>
      <trkpt lat="44.58903" lon="4.07966">
        <ele>1093</ele>
        <time>2015-05-31T10:13:24.000Z</time>
      </trkpt>
      <trkpt lat="44.58906" lon="4.07964">
        <ele>1092.4000244141</ele>
        <time>2015-05-31T10:13:27.000Z</time>
      </trkpt>
      <trkpt lat="44.58921" lon="4.07956">
        <ele>1088.4000244141</ele>
        <time>2015-05-31T10:13:43.000Z</time>
      </trkpt>
      <trkpt lat="44.58933" lon="4.07948">
        <ele>1085.8000488281</ele>
        <time>2015-05-31T10:13:58.000Z</time>
      </trkpt>
      <trkpt lat="44.58949" lon="4.07936">
        <ele>1083.4000244141</ele>
        <time>2015-05-31T10:14:14.000Z</time>
      </trkpt>
      <trkpt lat="44.58959" lon="4.07926">
        <ele>1084.4000244141</ele>
        <time>2015-05-31T10:14:27.000Z</time>
      </trkpt>
      <trkpt lat="44.5897" lon="4.07912">
        <ele>1086.8000488281</ele>
        <time>2015-05-31T10:14:44.000Z</time>
      </trkpt>
      <trkpt lat="44.58981" lon="4.07906">
        <ele>1085.5999755859</ele>
        <time>2015-05-31T10:14:57.000Z</time>
      </trkpt>
      <trkpt lat="44.58987" lon="4.07899">
        <ele>1086.1999511719</ele>
        <time>2015-05-31T10:15:12.000Z</time>
      </trkpt>
      <trkpt lat="44.58991" lon="4.07898">
        <ele>1085.5999755859</ele>
        <time>2015-05-31T10:15:26.000Z</time>
      </trkpt>
      <trkpt lat="44.58997" lon="4.07895">
        <ele>1084.8000488281</ele>
        <time>2015-05-31T10:15:41.000Z</time>
      </trkpt>
      <trkpt lat="44.59002" lon="4.07894">
        <ele>1083.1999511719</ele>
        <time>2015-05-31T10:15:48.000Z</time>
      </trkpt>
      <trkpt lat="44.59014" lon="4.07896">
        <ele>1077.4000244141</ele>
        <time>2015-05-31T10:16:03.000Z</time>
      </trkpt>
      <trkpt lat="44.59017" lon="4.07897">
        <ele>1075.8000488281</ele>
        <time>2015-05-31T10:16:07.000Z</time>
      </trkpt>
      <trkpt lat="44.59019" lon="4.07898">
        <ele>1074.8000488281</ele>
        <time>2015-05-31T10:16:09.000Z</time>
      </trkpt>
      <trkpt lat="44.59028" lon="4.07896">
        <ele>1072.1999511719</ele>
        <time>2015-05-31T10:16:23.000Z</time>
      </trkpt>
      <trkpt lat="44.59033" lon="4.07895">
        <ele>1070.5999755859</ele>
        <time>2015-05-31T10:16:47.000Z</time>
      </trkpt>
      <trkpt lat="44.59049" lon="4.07895">
        <ele>1068.8000488281</ele>
        <time>2015-05-31T10:17:03.000Z</time>
      </trkpt>
      <trkpt lat="44.59065" lon="4.07894">
        <ele>1067.5999755859</ele>
        <time>2015-05-31T10:17:19.000Z</time>
      </trkpt>
      <trkpt lat="44.59075" lon="4.07893">
        <ele>1065.5999755859</ele>
        <time>2015-05-31T10:17:30.000Z</time>
      </trkpt>
      <trkpt lat="44.5909" lon="4.07888">
        <ele>1062</ele>
        <time>2015-05-31T10:17:44.000Z</time>
      </trkpt>
      <trkpt lat="44.59095" lon="4.07885">
        <ele>1061.4000244141</ele>
        <time>2015-05-31T10:17:56.000Z</time>
      </trkpt>
      <trkpt lat="44.591" lon="4.07869">
        <ele>1064</ele>
        <time>2015-05-31T10:18:08.000Z</time>
      </trkpt>
      <trkpt lat="44.59107" lon="4.07853">
        <ele>1067.1999511719</ele>
        <time>2015-05-31T10:18:22.000Z</time>
      </trkpt>
      <trkpt lat="44.59113" lon="4.07839">
        <ele>1065.5999755859</ele>
        <time>2015-05-31T10:18:29.000Z</time>
      </trkpt>
      <trkpt lat="44.59122" lon="4.0781">
        <ele>1063</ele>
        <time>2015-05-31T10:18:43.000Z</time>
      </trkpt>
      <trkpt lat="44.59122" lon="4.07793">
        <ele>1064.1999511719</ele>
        <time>2015-05-31T10:18:56.000Z</time>
      </trkpt>
      <trkpt lat="44.59122" lon="4.07791">
        <ele>1064.5999755859</ele>
        <time>2015-05-31T10:18:58.000Z</time>
      </trkpt>
      <trkpt lat="44.59124" lon="4.07763">
        <ele>1065.4000244141</ele>
        <time>2015-05-31T10:19:13.000Z</time>
      </trkpt>
      <trkpt lat="44.59126" lon="4.07741">
        <ele>1066</ele>
        <time>2015-05-31T10:19:28.000Z</time>
      </trkpt>
      <trkpt lat="44.59125" lon="4.07724">
        <ele>1068.4000244141</ele>
        <time>2015-05-31T10:19:43.000Z</time>
      </trkpt>
      <trkpt lat="44.59128" lon="4.07704">
        <ele>1068.1999511719</ele>
        <time>2015-05-31T10:19:57.000Z</time>
      </trkpt>
      <trkpt lat="44.59131" lon="4.07684">
        <ele>1069</ele>
        <time>2015-05-31T10:20:11.000Z</time>
      </trkpt>
      <trkpt lat="44.59135" lon="4.07663">
        <ele>1070.5999755859</ele>
        <time>2015-05-31T10:20:26.000Z</time>
      </trkpt>
      <trkpt lat="44.5914" lon="4.07651">
        <ele>1070.1999511719</ele>
        <time>2015-05-31T10:20:37.000Z</time>
      </trkpt>
      <trkpt lat="44.59146" lon="4.07636">
        <ele>1069.4000244141</ele>
        <time>2015-05-31T10:20:50.000Z</time>
      </trkpt>
      <trkpt lat="44.59149" lon="4.07622">
        <ele>1071</ele>
        <time>2015-05-31T10:21:04.000Z</time>
      </trkpt>
      <trkpt lat="44.59162" lon="4.07604">
        <ele>1067</ele>
        <time>2015-05-31T10:21:20.000Z</time>
      </trkpt>
      <trkpt lat="44.59172" lon="4.07594">
        <ele>1062.5999755859</ele>
        <time>2015-05-31T10:21:30.000Z</time>
      </trkpt>
      <trkpt lat="44.59186" lon="4.07574">
        <ele>1055.8000488281</ele>
        <time>2015-05-31T10:21:47.000Z</time>
      </trkpt>
      <trkpt lat="44.59199" lon="4.07561">
        <ele>1049.1999511719</ele>
        <time>2015-05-31T10:22:02.000Z</time>
      </trkpt>
      <trkpt lat="44.59207" lon="4.07532">
        <ele>1046.8000488281</ele>
        <time>2015-05-31T10:22:20.000Z</time>
      </trkpt>
      <trkpt lat="44.59213" lon="4.07506">
        <ele>1043.5999755859</ele>
        <time>2015-05-31T10:22:31.000Z</time>
      </trkpt>
      <trkpt lat="44.59211" lon="4.07478">
        <ele>1041.8000488281</ele>
        <time>2015-05-31T10:22:49.000Z</time>
      </trkpt>
      <trkpt lat="44.59206" lon="4.07461">
        <ele>1042.1999511719</ele>
        <time>2015-05-31T10:23:02.000Z</time>
      </trkpt>
      <trkpt lat="44.59204" lon="4.07451">
        <ele>1041.8000488281</ele>
        <time>2015-05-31T10:23:15.000Z</time>
      </trkpt>
      <trkpt lat="44.59194" lon="4.07447">
        <ele>1047</ele>
        <time>2015-05-31T10:23:46.000Z</time>
      </trkpt>
      <trkpt lat="44.59191" lon="4.07443">
        <ele>1049</ele>
        <time>2015-05-31T10:24:02.000Z</time>
      </trkpt>
      <trkpt lat="44.5919" lon="4.07442">
        <ele>1049.8000488281</ele>
        <time>2015-05-31T10:24:15.000Z</time>
      </trkpt>
      <trkpt lat="44.59189" lon="4.07434">
        <ele>1051</ele>
        <time>2015-05-31T10:24:31.000Z</time>
      </trkpt>
      <trkpt lat="44.59187" lon="4.07428">
        <ele>1052.1999511719</ele>
        <time>2015-05-31T10:24:47.000Z</time>
      </trkpt>
      <trkpt lat="44.59188" lon="4.07425">
        <ele>1051.8000488281</ele>
        <time>2015-05-31T10:25:04.000Z</time>
      </trkpt>
      <trkpt lat="44.59188" lon="4.07422">
        <ele>1051.1999511719</ele>
        <time>2015-05-31T10:25:18.000Z</time>
      </trkpt>
      <trkpt lat="44.59188" lon="4.07417">
        <ele>1051.4000244141</ele>
        <time>2015-05-31T10:25:31.000Z</time>
      </trkpt>
      <trkpt lat="44.59188" lon="4.07413">
        <ele>1050.8000488281</ele>
        <time>2015-05-31T10:25:46.000Z</time>
      </trkpt>
      <trkpt lat="44.59188" lon="4.07406">
        <ele>1050.8000488281</ele>
        <time>2015-05-31T10:26:06.000Z</time>
      </trkpt>
      <trkpt lat="44.59194" lon="4.07388">
        <ele>1045.5999755859</ele>
        <time>2015-05-31T10:26:20.000Z</time>
      </trkpt>
      <trkpt lat="44.59193" lon="4.07389">
        <ele>1046.1999511719</ele>
        <time>2015-05-31T10:26:34.000Z</time>
      </trkpt>
      <trkpt lat="44.59196" lon="4.07393">
        <ele>1044.4000244141</ele>
        <time>2015-05-31T10:26:48.000Z</time>
      </trkpt>
      <trkpt lat="44.59201" lon="4.07397">
        <ele>1041</ele>
        <time>2015-05-31T10:26:59.000Z</time>
      </trkpt>
      <trkpt lat="44.59208" lon="4.07405">
        <ele>1037.4000244141</ele>
        <time>2015-05-31T10:27:14.000Z</time>
      </trkpt>
      <trkpt lat="44.5922" lon="4.07415">
        <ele>1031.5999755859</ele>
        <time>2015-05-31T10:27:28.000Z</time>
      </trkpt>
      <trkpt lat="44.59231" lon="4.07428">
        <ele>1026.5999755859</ele>
        <time>2015-05-31T10:27:42.000Z</time>
      </trkpt>
      <trkpt lat="44.59241" lon="4.07439">
        <ele>1022</ele>
        <time>2015-05-31T10:27:55.000Z</time>
      </trkpt>
      <trkpt lat="44.59252" lon="4.07451">
        <ele>1018.4000244141</ele>
        <time>2015-05-31T10:28:09.000Z</time>
      </trkpt>
      <trkpt lat="44.59252" lon="4.07451">
        <ele>1018.4000244141</ele>
        <time>2015-05-31T10:28:10.000Z</time>
      </trkpt>
      <trkpt lat="44.59265" lon="4.07474">
        <ele>1016.200012207</ele>
        <time>2015-05-31T10:28:25.000Z</time>
      </trkpt>
      <trkpt lat="44.59279" lon="4.07488">
        <ele>1012</ele>
        <time>2015-05-31T10:28:40.000Z</time>
      </trkpt>
      <trkpt lat="44.59282" lon="4.07496">
        <ele>1012.200012207</ele>
        <time>2015-05-31T10:28:53.000Z</time>
      </trkpt>
      <trkpt lat="44.59277" lon="4.07505">
        <ele>1016.799987793</ele>
        <time>2015-05-31T10:29:06.000Z</time>
      </trkpt>
      <trkpt lat="44.59272" lon="4.07521">
        <ele>1021.5999755859</ele>
        <time>2015-05-31T10:29:19.000Z</time>
      </trkpt>
      <trkpt lat="44.59266" lon="4.07545">
        <ele>1021.200012207</ele>
        <time>2015-05-31T10:29:34.000Z</time>
      </trkpt>
      <trkpt lat="44.59261" lon="4.07557">
        <ele>1021</ele>
        <time>2015-05-31T10:29:50.000Z</time>
      </trkpt>
      <trkpt lat="44.59253" lon="4.07568">
        <ele>1022.200012207</ele>
        <time>2015-05-31T10:30:09.000Z</time>
      </trkpt>
      <trkpt lat="44.5924" lon="4.07586">
        <ele>1026.1999511719</ele>
        <time>2015-05-31T10:30:24.000Z</time>
      </trkpt>
      <trkpt lat="44.59235" lon="4.07595">
        <ele>1028.1999511719</ele>
        <time>2015-05-31T10:30:35.000Z</time>
      </trkpt>
      <trkpt lat="44.5923" lon="4.07613">
        <ele>1028.8000488281</ele>
        <time>2015-05-31T10:30:50.000Z</time>
      </trkpt>
      <trkpt lat="44.5923" lon="4.07623">
        <ele>1026</ele>
        <time>2015-05-31T10:31:05.000Z</time>
      </trkpt>
      <trkpt lat="44.59226" lon="4.0763">
        <ele>1025.5999755859</ele>
        <time>2015-05-31T10:31:18.000Z</time>
      </trkpt>
      <trkpt lat="44.59221" lon="4.07631">
        <ele>1027.8000488281</ele>
        <time>2015-05-31T10:31:34.000Z</time>
      </trkpt>
      <trkpt lat="44.59211" lon="4.07639">
        <ele>1031</ele>
        <time>2015-05-31T10:31:50.000Z</time>
      </trkpt>
      <trkpt lat="44.59199" lon="4.07664">
        <ele>1031</ele>
        <time>2015-05-31T10:32:03.000Z</time>
      </trkpt>
      <trkpt lat="44.592" lon="4.07679">
        <ele>1026.8000488281</ele>
        <time>2015-05-31T10:32:16.000Z</time>
      </trkpt>
      <trkpt lat="44.59197" lon="4.07691">
        <ele>1025.5999755859</ele>
        <time>2015-05-31T10:32:29.000Z</time>
      </trkpt>
      <trkpt lat="44.59197" lon="4.07691">
        <ele>1025.4000244141</ele>
        <time>2015-05-31T10:32:40.000Z</time>
      </trkpt>
      <trkpt lat="44.59205" lon="4.07707">
        <ele>1018.4000244141</ele>
        <time>2015-05-31T10:32:54.000Z</time>
      </trkpt>
      <trkpt lat="44.59205" lon="4.07709">
        <ele>1018</ele>
        <time>2015-05-31T10:32:55.000Z</time>
      </trkpt>
      <trkpt lat="44.59214" lon="4.07737">
        <ele>1010</ele>
        <time>2015-05-31T10:33:10.000Z</time>
      </trkpt>
      <trkpt lat="44.59217" lon="4.07766">
        <ele>1004.5999755859</ele>
        <time>2015-05-31T10:33:21.000Z</time>
      </trkpt>
      <trkpt lat="44.59224" lon="4.07789">
        <ele>1000.200012207</ele>
        <time>2015-05-31T10:33:37.000Z</time>
      </trkpt>
      <trkpt lat="44.59231" lon="4.07804">
        <ele>998</ele>
        <time>2015-05-31T10:33:49.000Z</time>
      </trkpt>
      <trkpt lat="44.59242" lon="4.07817">
        <ele>992.40002441406</ele>
        <time>2015-05-31T10:34:03.000Z</time>
      </trkpt>
      <trkpt lat="44.59249" lon="4.0783">
        <ele>989.59997558594</ele>
        <time>2015-05-31T10:34:17.000Z</time>
      </trkpt>
      <trkpt lat="44.59256" lon="4.07847">
        <ele>986.59997558594</ele>
        <time>2015-05-31T10:34:31.000Z</time>
      </trkpt>
      <trkpt lat="44.59256" lon="4.07839">
        <ele>986.40002441406</ele>
        <time>2015-05-31T10:34:45.000Z</time>
      </trkpt>
      <trkpt lat="44.59253" lon="4.07823">
        <ele>987</ele>
        <time>2015-05-31T10:35:02.000Z</time>
      </trkpt>
      <trkpt lat="44.59247" lon="4.07815">
        <ele>989.40002441406</ele>
        <time>2015-05-31T10:35:16.000Z</time>
      </trkpt>
      <trkpt lat="44.59242" lon="4.07804">
        <ele>991.40002441406</ele>
        <time>2015-05-31T10:35:30.000Z</time>
      </trkpt>
      <trkpt lat="44.5924" lon="4.07789">
        <ele>991.40002441406</ele>
        <time>2015-05-31T10:35:45.000Z</time>
      </trkpt>
      <trkpt lat="44.59234" lon="4.07771">
        <ele>994.59997558594</ele>
        <time>2015-05-31T10:35:59.000Z</time>
      </trkpt>
      <trkpt lat="44.59229" lon="4.07762">
        <ele>998.40002441406</ele>
        <time>2015-05-31T10:36:12.000Z</time>
      </trkpt>
      <trkpt lat="44.59228" lon="4.07759">
        <ele>999.20001220703</ele>
        <time>2015-05-31T10:36:25.000Z</time>
      </trkpt>
      <trkpt lat="44.59229" lon="4.07756">
        <ele>999.20001220703</ele>
        <time>2015-05-31T10:36:37.000Z</time>
      </trkpt>
      <trkpt lat="44.59233" lon="4.07748">
        <ele>997.79998779297</ele>
        <time>2015-05-31T10:36:50.000Z</time>
      </trkpt>
      <trkpt lat="44.59229" lon="4.07743">
        <ele>1000.5999755859</ele>
        <time>2015-05-31T10:37:06.000Z</time>
      </trkpt>
      <trkpt lat="44.5923" lon="4.07739">
        <ele>1000.799987793</ele>
        <time>2015-05-31T10:37:21.000Z</time>
      </trkpt>
      <trkpt lat="44.59233" lon="4.07729">
        <ele>1000.5999755859</ele>
        <time>2015-05-31T10:37:42.000Z</time>
      </trkpt>
      <trkpt lat="44.59235" lon="4.07722">
        <ele>1000.4000244141</ele>
        <time>2015-05-31T10:38:02.000Z</time>
      </trkpt>
      <trkpt lat="44.59234" lon="4.07717">
        <ele>1001.200012207</ele>
        <time>2015-05-31T10:38:16.000Z</time>
      </trkpt>
      <trkpt lat="44.59233" lon="4.07716">
        <ele>1001.799987793</ele>
        <time>2015-05-31T10:38:30.000Z</time>
      </trkpt>
      <trkpt lat="44.59233" lon="4.07723">
        <ele>1001.200012207</ele>
        <time>2015-05-31T10:38:44.000Z</time>
      </trkpt>
      <trkpt lat="44.59231" lon="4.0772">
        <ele>1002.799987793</ele>
        <time>2015-05-31T10:38:59.000Z</time>
      </trkpt>
      <trkpt lat="44.59236" lon="4.07711">
        <ele>1000.799987793</ele>
        <time>2015-05-31T10:39:12.000Z</time>
      </trkpt>
      <trkpt lat="44.59247" lon="4.07717">
        <ele>994.20001220703</ele>
        <time>2015-05-31T10:39:27.000Z</time>
      </trkpt>
      <trkpt lat="44.59254" lon="4.0773">
        <ele>988.79998779297</ele>
        <time>2015-05-31T10:39:35.000Z</time>
      </trkpt>
      <trkpt lat="44.59269" lon="4.07762">
        <ele>976.20001220703</ele>
        <time>2015-05-31T10:39:50.000Z</time>
      </trkpt>
      <trkpt lat="44.59282" lon="4.07782">
        <ele>967.79998779297</ele>
        <time>2015-05-31T10:40:02.000Z</time>
      </trkpt>
      <trkpt lat="44.5929" lon="4.07803">
        <ele>964.79998779297</ele>
        <time>2015-05-31T10:40:15.000Z</time>
      </trkpt>
      <trkpt lat="44.59299" lon="4.07824">
        <ele>961.20001220703</ele>
        <time>2015-05-31T10:40:29.000Z</time>
      </trkpt>
      <trkpt lat="44.59305" lon="4.07846">
        <ele>959</ele>
        <time>2015-05-31T10:40:43.000Z</time>
      </trkpt>
      <trkpt lat="44.59311" lon="4.07856">
        <ele>956.40002441406</ele>
        <time>2015-05-31T10:40:57.000Z</time>
      </trkpt>
      <trkpt lat="44.59314" lon="4.07861">
        <ele>955</ele>
        <time>2015-05-31T10:41:12.000Z</time>
      </trkpt>
      <trkpt lat="44.59322" lon="4.07872">
        <ele>951.79998779297</ele>
        <time>2015-05-31T10:41:24.000Z</time>
      </trkpt>
      <trkpt lat="44.59326" lon="4.07881">
        <ele>950.59997558594</ele>
        <time>2015-05-31T10:41:33.000Z</time>
      </trkpt>
      <trkpt lat="44.59334" lon="4.07895">
        <ele>948</ele>
        <time>2015-05-31T10:41:47.000Z</time>
      </trkpt>
      <trkpt lat="44.59341" lon="4.07907">
        <ele>945.20001220703</ele>
        <time>2015-05-31T10:42:00.000Z</time>
      </trkpt>
      <trkpt lat="44.59347" lon="4.07913">
        <ele>942.59997558594</ele>
        <time>2015-05-31T10:42:16.000Z</time>
      </trkpt>
      <trkpt lat="44.59347" lon="4.07918">
        <ele>943.20001220703</ele>
        <time>2015-05-31T10:42:33.000Z</time>
      </trkpt>
      <trkpt lat="44.59346" lon="4.07922">
        <ele>944</ele>
        <time>2015-05-31T10:42:36.000Z</time>
      </trkpt>
      <trkpt lat="44.59343" lon="4.07934">
        <ele>944.59997558594</ele>
        <time>2015-05-31T10:42:49.000Z</time>
      </trkpt>
      <trkpt lat="44.59337" lon="4.07937">
        <ele>946.79998779297</ele>
        <time>2015-05-31T10:43:04.000Z</time>
      </trkpt>
      <trkpt lat="44.59331" lon="4.07939">
        <ele>949.40002441406</ele>
        <time>2015-05-31T10:43:19.000Z</time>
      </trkpt>
      <trkpt lat="44.59331" lon="4.07939">
        <ele>949.40002441406</ele>
        <time>2015-05-31T10:43:41.000Z</time>
      </trkpt>
      <trkpt lat="44.59328" lon="4.07942">
        <ele>950.40002441406</ele>
        <time>2015-05-31T10:43:56.000Z</time>
      </trkpt>
      <trkpt lat="44.59326" lon="4.07942">
        <ele>951.20001220703</ele>
        <time>2015-05-31T10:44:14.000Z</time>
      </trkpt>
      <trkpt lat="44.59324" lon="4.07943">
        <ele>951.79998779297</ele>
        <time>2015-05-31T10:44:32.000Z</time>
      </trkpt>
      <trkpt lat="44.59321" lon="4.07944">
        <ele>953</ele>
        <time>2015-05-31T10:45:01.000Z</time>
      </trkpt>
      <trkpt lat="44.59321" lon="4.07945">
        <ele>952.59997558594</ele>
        <time>2015-05-31T10:45:39.000Z</time>
      </trkpt>
      <trkpt lat="44.59321" lon="4.07945">
        <ele>952.79998779297</ele>
        <time>2015-05-31T10:46:13.000Z</time>
      </trkpt>
      <trkpt lat="44.59322" lon="4.07945">
        <ele>952.40002441406</ele>
        <time>2015-05-31T10:46:42.000Z</time>
      </trkpt>
      <trkpt lat="44.59322" lon="4.07945">
        <ele>952.40002441406</ele>
        <time>2015-05-31T10:47:04.000Z</time>
      </trkpt>
      <trkpt lat="44.59322" lon="4.07945">
        <ele>952.40002441406</ele>
        <time>2015-05-31T10:47:33.000Z</time>
      </trkpt>
      <trkpt lat="44.59322" lon="4.07944">
        <ele>952.40002441406</ele>
        <time>2015-05-31T10:48:00.000Z</time>
      </trkpt>
      <trkpt lat="44.59322" lon="4.07943">
        <ele>952.59997558594</ele>
        <time>2015-05-31T10:48:30.000Z</time>
      </trkpt>
      <trkpt lat="44.59323" lon="4.07942">
        <ele>952.59997558594</ele>
        <time>2015-05-31T10:49:10.000Z</time>
      </trkpt>
      <trkpt lat="44.59324" lon="4.07943">
        <ele>952.20001220703</ele>
        <time>2015-05-31T10:49:36.000Z</time>
      </trkpt>
      <trkpt lat="44.59323" lon="4.07943">
        <ele>952.40002441406</ele>
        <time>2015-05-31T10:49:57.000Z</time>
      </trkpt>
      <trkpt lat="44.59323" lon="4.07944">
        <ele>952.40002441406</ele>
        <time>2015-05-31T10:50:32.000Z</time>
      </trkpt>
      <trkpt lat="44.59323" lon="4.07943">
        <ele>952.40002441406</ele>
        <time>2015-05-31T10:51:04.000Z</time>
      </trkpt>
      <trkpt lat="44.59322" lon="4.07942">
        <ele>953</ele>
        <time>2015-05-31T10:51:39.000Z</time>
      </trkpt>
      <trkpt lat="44.59321" lon="4.07943">
        <ele>953</ele>
        <time>2015-05-31T10:52:06.000Z</time>
      </trkpt>
      <trkpt lat="44.59321" lon="4.07943">
        <ele>953.20001220703</ele>
        <time>2015-05-31T10:52:38.000Z</time>
      </trkpt>
      <trkpt lat="44.59321" lon="4.07944">
        <ele>953</ele>
        <time>2015-05-31T10:53:11.000Z</time>
      </trkpt>
      <trkpt lat="44.59321" lon="4.07944">
        <ele>953</ele>
        <time>2015-05-31T10:53:46.000Z</time>
      </trkpt>
      <trkpt lat="44.59322" lon="4.07943">
        <ele>953</ele>
        <time>2015-05-31T10:54:20.000Z</time>
      </trkpt>
      <trkpt lat="44.59323" lon="4.07942">
        <ele>952.59997558594</ele>
        <time>2015-05-31T10:54:45.000Z</time>
      </trkpt>
      <trkpt lat="44.59323" lon="4.07942">
        <ele>952.40002441406</ele>
        <time>2015-05-31T10:55:21.000Z</time>
      </trkpt>
      <trkpt lat="44.59322" lon="4.07941">
        <ele>952.79998779297</ele>
        <time>2015-05-31T10:55:56.000Z</time>
      </trkpt>
      <trkpt lat="44.59322" lon="4.0794">
        <ele>953</ele>
        <time>2015-05-31T10:56:25.000Z</time>
      </trkpt>
      <trkpt lat="44.59323" lon="4.0794">
        <ele>952.79998779297</ele>
        <time>2015-05-31T10:56:58.000Z</time>
      </trkpt>
      <trkpt lat="44.59323" lon="4.0794">
        <ele>952.59997558594</ele>
        <time>2015-05-31T10:57:27.000Z</time>
      </trkpt>
      <trkpt lat="44.59322" lon="4.0794">
        <ele>952.79998779297</ele>
        <time>2015-05-31T10:58:08.000Z</time>
      </trkpt>
      <trkpt lat="44.59322" lon="4.07941">
        <ele>952.79998779297</ele>
        <time>2015-05-31T10:58:40.000Z</time>
      </trkpt>
      <trkpt lat="44.59323" lon="4.0794">
        <ele>952.59997558594</ele>
        <time>2015-05-31T10:59:10.000Z</time>
      </trkpt>
      <trkpt lat="44.59323" lon="4.0794">
        <ele>952.40002441406</ele>
        <time>2015-05-31T10:59:41.000Z</time>
      </trkpt>
      <trkpt lat="44.59324" lon="4.0794">
        <ele>952.40002441406</ele>
        <time>2015-05-31T11:00:06.000Z</time>
      </trkpt>
      <trkpt lat="44.59324" lon="4.07941">
        <ele>952.20001220703</ele>
        <time>2015-05-31T11:00:41.000Z</time>
      </trkpt>
      <trkpt lat="44.59324" lon="4.07941">
        <ele>952.20001220703</ele>
        <time>2015-05-31T11:01:09.000Z</time>
      </trkpt>
      <trkpt lat="44.59323" lon="4.07942">
        <ele>952.40002441406</ele>
        <time>2015-05-31T11:01:40.000Z</time>
      </trkpt>
      <trkpt lat="44.59323" lon="4.07942">
        <ele>952.40002441406</ele>
        <time>2015-05-31T11:02:00.000Z</time>
      </trkpt>
      <trkpt lat="44.59323" lon="4.07942">
        <ele>952.59997558594</ele>
        <time>2015-05-31T11:02:33.000Z</time>
      </trkpt>
      <trkpt lat="44.59323" lon="4.07941">
        <ele>952.40002441406</ele>
        <time>2015-05-31T11:03:00.000Z</time>
      </trkpt>
      <trkpt lat="44.59324" lon="4.07941">
        <ele>952.20001220703</ele>
        <time>2015-05-31T11:03:28.000Z</time>
      </trkpt>
      <trkpt lat="44.59324" lon="4.07941">
        <ele>952.20001220703</ele>
        <time>2015-05-31T11:03:51.000Z</time>
      </trkpt>
      <trkpt lat="44.59324" lon="4.07941">
        <ele>952.40002441406</ele>
        <time>2015-05-31T11:04:08.000Z</time>
      </trkpt>
      <trkpt lat="44.59323" lon="4.0794">
        <ele>952.40002441406</ele>
        <time>2015-05-31T11:04:42.000Z</time>
      </trkpt>
      <trkpt lat="44.59324" lon="4.0794">
        <ele>952.40002441406</ele>
        <time>2015-05-31T11:05:11.000Z</time>
      </trkpt>
      <trkpt lat="44.59323" lon="4.07941">
        <ele>952.59997558594</ele>
        <time>2015-05-31T11:05:51.000Z</time>
      </trkpt>
      <trkpt lat="44.59323" lon="4.07942">
        <ele>952.59997558594</ele>
        <time>2015-05-31T11:06:17.000Z</time>
      </trkpt>
      <trkpt lat="44.59323" lon="4.07942">
        <ele>952.59997558594</ele>
        <time>2015-05-31T11:06:36.000Z</time>
      </trkpt>
      <trkpt lat="44.59322" lon="4.07943">
        <ele>952.59997558594</ele>
        <time>2015-05-31T11:07:07.000Z</time>
      </trkpt>
      <trkpt lat="44.59322" lon="4.07943">
        <ele>952.79998779297</ele>
        <time>2015-05-31T11:07:28.000Z</time>
      </trkpt>
      <trkpt lat="44.59322" lon="4.07943">
        <ele>952.79998779297</ele>
        <time>2015-05-31T11:07:55.000Z</time>
      </trkpt>
      <trkpt lat="44.59323" lon="4.07943">
        <ele>952.59997558594</ele>
        <time>2015-05-31T11:08:20.000Z</time>
      </trkpt>
      <trkpt lat="44.59323" lon="4.07943">
        <ele>952.59997558594</ele>
        <time>2015-05-31T11:08:48.000Z</time>
      </trkpt>
      <trkpt lat="44.59322" lon="4.07944">
        <ele>952.59997558594</ele>
        <time>2015-05-31T11:09:16.000Z</time>
      </trkpt>
      <trkpt lat="44.59322" lon="4.07944">
        <ele>952.79998779297</ele>
        <time>2015-05-31T11:09:39.000Z</time>
      </trkpt>
      <trkpt lat="44.59321" lon="4.07945">
        <ele>952.79998779297</ele>
        <time>2015-05-31T11:10:08.000Z</time>
      </trkpt>
      <trkpt lat="44.59322" lon="4.07945">
        <ele>952.59997558594</ele>
        <time>2015-05-31T11:10:29.000Z</time>
      </trkpt>
      <trkpt lat="44.59322" lon="4.07945">
        <ele>952.40002441406</ele>
        <time>2015-05-31T11:10:56.000Z</time>
      </trkpt>
      <trkpt lat="44.59323" lon="4.07944">
        <ele>952.40002441406</ele>
        <time>2015-05-31T11:11:28.000Z</time>
      </trkpt>
      <trkpt lat="44.59324" lon="4.07943">
        <ele>952</ele>
        <time>2015-05-31T11:12:01.000Z</time>
      </trkpt>
      <trkpt lat="44.59324" lon="4.07945">
        <ele>951.79998779297</ele>
        <time>2015-05-31T11:12:51.000Z</time>
      </trkpt>
      <trkpt lat="44.59323" lon="4.07945">
        <ele>952</ele>
        <time>2015-05-31T11:13:14.000Z</time>
      </trkpt>
      <trkpt lat="44.59322" lon="4.07944">
        <ele>952.40002441406</ele>
        <time>2015-05-31T11:13:53.000Z</time>
      </trkpt>
      <trkpt lat="44.59323" lon="4.07944">
        <ele>952.20001220703</ele>
        <time>2015-05-31T11:14:30.000Z</time>
      </trkpt>
      <trkpt lat="44.59324" lon="4.07943">
        <ele>952.20001220703</ele>
        <time>2015-05-31T11:15:05.000Z</time>
      </trkpt>
      <trkpt lat="44.59324" lon="4.07942">
        <ele>952</ele>
        <time>2015-05-31T11:15:28.000Z</time>
      </trkpt>
      <trkpt lat="44.59324" lon="4.07942">
        <ele>952</ele>
        <time>2015-05-31T11:16:05.000Z</time>
      </trkpt>
      <trkpt lat="44.59324" lon="4.07942">
        <ele>952</ele>
        <time>2015-05-31T11:16:30.000Z</time>
      </trkpt>
      <trkpt lat="44.59324" lon="4.07942">
        <ele>952</ele>
        <time>2015-05-31T11:16:54.000Z</time>
      </trkpt>
      <trkpt lat="44.59324" lon="4.07942">
        <ele>952.20001220703</ele>
        <time>2015-05-31T11:17:25.000Z</time>
      </trkpt>
      <trkpt lat="44.59323" lon="4.07942">
        <ele>952.40002441406</ele>
        <time>2015-05-31T11:17:42.000Z</time>
      </trkpt>
      <trkpt lat="44.59323" lon="4.07942">
        <ele>952.40002441406</ele>
        <time>2015-05-31T11:18:08.000Z</time>
      </trkpt>
      <trkpt lat="44.59325" lon="4.0794">
        <ele>951.59997558594</ele>
        <time>2015-05-31T11:18:27.000Z</time>
      </trkpt>
      <trkpt lat="44.59326" lon="4.07939">
        <ele>951.20001220703</ele>
        <time>2015-05-31T11:18:51.000Z</time>
      </trkpt>
      <trkpt lat="44.59322" lon="4.07944">
        <ele>952.59997558594</ele>
        <time>2015-05-31T11:19:13.000Z</time>
      </trkpt>
      <trkpt lat="44.59319" lon="4.07946">
        <ele>953.40002441406</ele>
        <time>2015-05-31T11:19:39.000Z</time>
      </trkpt>
      <trkpt lat="44.59322" lon="4.07939">
        <ele>953</ele>
        <time>2015-05-31T11:20:08.000Z</time>
      </trkpt>
      <trkpt lat="44.59324" lon="4.07939">
        <ele>952.40002441406</ele>
        <time>2015-05-31T11:20:28.000Z</time>
      </trkpt>
      <trkpt lat="44.59324" lon="4.0794">
        <ele>952.20001220703</ele>
        <time>2015-05-31T11:21:04.000Z</time>
      </trkpt>
      <trkpt lat="44.59323" lon="4.07941">
        <ele>952.59997558594</ele>
        <time>2015-05-31T11:21:33.000Z</time>
      </trkpt>
      <trkpt lat="44.59323" lon="4.07941">
        <ele>952.40002441406</ele>
        <time>2015-05-31T11:22:07.000Z</time>
      </trkpt>
      <trkpt lat="44.59324" lon="4.07942">
        <ele>952.20001220703</ele>
        <time>2015-05-31T11:22:32.000Z</time>
      </trkpt>
      <trkpt lat="44.59324" lon="4.07942">
        <ele>952</ele>
        <time>2015-05-31T11:23:06.000Z</time>
      </trkpt>
      <trkpt lat="44.59324" lon="4.07942">
        <ele>952.20001220703</ele>
        <time>2015-05-31T11:23:43.000Z</time>
      </trkpt>
      <trkpt lat="44.59323" lon="4.07943">
        <ele>952.20001220703</ele>
        <time>2015-05-31T11:24:16.000Z</time>
      </trkpt>
      <trkpt lat="44.59323" lon="4.07943">
        <ele>952.20001220703</ele>
        <time>2015-05-31T11:24:52.000Z</time>
      </trkpt>
      <trkpt lat="44.59324" lon="4.07944">
        <ele>952</ele>
        <time>2015-05-31T11:25:35.000Z</time>
      </trkpt>
      <trkpt lat="44.59324" lon="4.07944">
        <ele>952</ele>
        <time>2015-05-31T11:26:09.000Z</time>
      </trkpt>
      <trkpt lat="44.59324" lon="4.07944">
        <ele>952.20001220703</ele>
        <time>2015-05-31T11:26:40.000Z</time>
      </trkpt>
      <trkpt lat="44.59323" lon="4.07943">
        <ele>952.20001220703</ele>
        <time>2015-05-31T11:27:08.000Z</time>
      </trkpt>
      <trkpt lat="44.59316" lon="4.07953">
        <ele>953.40002441406</ele>
        <time>2015-05-31T11:27:31.000Z</time>
      </trkpt>
      <trkpt lat="44.5931" lon="4.07961">
        <ele>954.40002441406</ele>
        <time>2015-05-31T11:27:59.000Z</time>
      </trkpt>
      <trkpt lat="44.59317" lon="4.0795">
        <ele>953.40002441406</ele>
        <time>2015-05-31T11:28:23.000Z</time>
      </trkpt>
      <trkpt lat="44.59324" lon="4.07942">
        <ele>952</ele>
        <time>2015-05-31T11:28:45.000Z</time>
      </trkpt>
      <trkpt lat="44.59325" lon="4.07943">
        <ele>951.59997558594</ele>
        <time>2015-05-31T11:29:17.000Z</time>
      </trkpt>
      <trkpt lat="44.59331" lon="4.0794">
        <ele>949.40002441406</ele>
        <time>2015-05-31T11:29:41.000Z</time>
      </trkpt>
      <trkpt lat="44.59328" lon="4.07943">
        <ele>950.40002441406</ele>
        <time>2015-05-31T11:30:09.000Z</time>
      </trkpt>
      <trkpt lat="44.59323" lon="4.07946">
        <ele>952</ele>
        <time>2015-05-31T11:30:47.000Z</time>
      </trkpt>
      <trkpt lat="44.59323" lon="4.07945">
        <ele>952</ele>
        <time>2015-05-31T11:31:19.000Z</time>
      </trkpt>
      <trkpt lat="44.59322" lon="4.07945">
        <ele>952.40002441406</ele>
        <time>2015-05-31T11:31:52.000Z</time>
      </trkpt>
      <trkpt lat="44.59322" lon="4.07945">
        <ele>952.40002441406</ele>
        <time>2015-05-31T11:32:11.000Z</time>
      </trkpt>
      <trkpt lat="44.59323" lon="4.07944">
        <ele>952.40002441406</ele>
        <time>2015-05-31T11:32:32.000Z</time>
      </trkpt>
      <trkpt lat="44.59323" lon="4.07944">
        <ele>952.20001220703</ele>
        <time>2015-05-31T11:32:59.000Z</time>
      </trkpt>
      <trkpt lat="44.59324" lon="4.07941">
        <ele>952</ele>
        <time>2015-05-31T11:33:21.000Z</time>
      </trkpt>
      <trkpt lat="44.59323" lon="4.07942">
        <ele>952.40002441406</ele>
        <time>2015-05-31T11:33:47.000Z</time>
      </trkpt>
      <trkpt lat="44.59323" lon="4.07944">
        <ele>952</ele>
        <time>2015-05-31T11:34:16.000Z</time>
      </trkpt>
      <trkpt lat="44.59323" lon="4.07945">
        <ele>952</ele>
        <time>2015-05-31T11:34:39.000Z</time>
      </trkpt>
      <trkpt lat="44.59324" lon="4.07945">
        <ele>951.59997558594</ele>
        <time>2015-05-31T11:35:04.000Z</time>
      </trkpt>
      <trkpt lat="44.59323" lon="4.07945">
        <ele>952.20001220703</ele>
        <time>2015-05-31T11:35:22.000Z</time>
      </trkpt>
      <trkpt lat="44.59322" lon="4.07945">
        <ele>952.40002441406</ele>
        <time>2015-05-31T11:35:49.000Z</time>
      </trkpt>
      <trkpt lat="44.59322" lon="4.07946">
        <ele>952.20001220703</ele>
        <time>2015-05-31T11:36:11.000Z</time>
      </trkpt>
      <trkpt lat="44.59322" lon="4.07946">
        <ele>952.20001220703</ele>
        <time>2015-05-31T11:36:29.000Z</time>
      </trkpt>
      <trkpt lat="44.59323" lon="4.07945">
        <ele>952.20001220703</ele>
        <time>2015-05-31T11:36:55.000Z</time>
      </trkpt>
      <trkpt lat="44.59322" lon="4.07941">
        <ele>953</ele>
        <time>2015-05-31T11:37:18.000Z</time>
      </trkpt>
      <trkpt lat="44.59306" lon="4.0795">
        <ele>957.79998779297</ele>
        <time>2015-05-31T11:37:38.000Z</time>
      </trkpt>
      <trkpt lat="44.59297" lon="4.0796">
        <ele>959.40002441406</ele>
        <time>2015-05-31T11:37:58.000Z</time>
      </trkpt>
      <trkpt lat="44.59301" lon="4.0796">
        <ele>958</ele>
        <time>2015-05-31T11:38:07.000Z</time>
      </trkpt>
      <trkpt lat="44.5931" lon="4.07958">
        <ele>954.40002441406</ele>
        <time>2015-05-31T11:38:27.000Z</time>
      </trkpt>
      <trkpt lat="44.59311" lon="4.0796">
        <ele>953.79998779297</ele>
        <time>2015-05-31T11:38:40.000Z</time>
      </trkpt>
      <trkpt lat="44.59315" lon="4.07962">
        <ele>951.79998779297</ele>
        <time>2015-05-31T11:39:02.000Z</time>
      </trkpt>
      <trkpt lat="44.59322" lon="4.07961">
        <ele>949.40002441406</ele>
        <time>2015-05-31T11:39:16.000Z</time>
      </trkpt>
      <trkpt lat="44.59335" lon="4.07959">
        <ele>944.20001220703</ele>
        <time>2015-05-31T11:39:30.000Z</time>
      </trkpt>
      <trkpt lat="44.59338" lon="4.07959">
        <ele>943.20001220703</ele>
        <time>2015-05-31T11:39:45.000Z</time>
      </trkpt>
      <trkpt lat="44.59329" lon="4.07962">
        <ele>946.20001220703</ele>
        <time>2015-05-31T11:40:01.000Z</time>
      </trkpt>
      <trkpt lat="44.59318" lon="4.07968">
        <ele>949.20001220703</ele>
        <time>2015-05-31T11:40:19.000Z</time>
      </trkpt>
      <trkpt lat="44.59306" lon="4.07976">
        <ele>952.79998779297</ele>
        <time>2015-05-31T11:40:36.000Z</time>
      </trkpt>
      <trkpt lat="44.59294" lon="4.0798">
        <ele>957.20001220703</ele>
        <time>2015-05-31T11:40:53.000Z</time>
      </trkpt>
      <trkpt lat="44.59291" lon="4.07985">
        <ele>957.20001220703</ele>
        <time>2015-05-31T11:41:09.000Z</time>
      </trkpt>
      <trkpt lat="44.59287" lon="4.07999">
        <ele>956.40002441406</ele>
        <time>2015-05-31T11:41:30.000Z</time>
      </trkpt>
      <trkpt lat="44.59285" lon="4.0804">
        <ele>949.40002441406</ele>
        <time>2015-05-31T11:41:46.000Z</time>
      </trkpt>
      <trkpt lat="44.59284" lon="4.08064">
        <ele>945.20001220703</ele>
        <time>2015-05-31T11:42:05.000Z</time>
      </trkpt>
      <trkpt lat="44.59283" lon="4.08084">
        <ele>941.59997558594</ele>
        <time>2015-05-31T11:42:20.000Z</time>
      </trkpt>
      <trkpt lat="44.59281" lon="4.08099">
        <ele>939.79998779297</ele>
        <time>2015-05-31T11:42:34.000Z</time>
      </trkpt>
      <trkpt lat="44.5928" lon="4.08119">
        <ele>935</ele>
        <time>2015-05-31T11:42:50.000Z</time>
      </trkpt>
      <trkpt lat="44.59277" lon="4.08137">
        <ele>931.59997558594</ele>
        <time>2015-05-31T11:43:07.000Z</time>
      </trkpt>
      <trkpt lat="44.59278" lon="4.08152">
        <ele>928.20001220703</ele>
        <time>2015-05-31T11:43:22.000Z</time>
      </trkpt>
      <trkpt lat="44.59278" lon="4.08183">
        <ele>921.59997558594</ele>
        <time>2015-05-31T11:43:40.000Z</time>
      </trkpt>
      <trkpt lat="44.59277" lon="4.08201">
        <ele>915.59997558594</ele>
        <time>2015-05-31T11:43:58.000Z</time>
      </trkpt>
      <trkpt lat="44.59274" lon="4.08207">
        <ele>913.40002441406</ele>
        <time>2015-05-31T11:44:30.000Z</time>
      </trkpt>
      <trkpt lat="44.59274" lon="4.0821">
        <ele>912.40002441406</ele>
        <time>2015-05-31T11:44:32.000Z</time>
      </trkpt>
      <trkpt lat="44.59264" lon="4.08231">
        <ele>905.79998779297</ele>
        <time>2015-05-31T11:44:51.000Z</time>
      </trkpt>
      <trkpt lat="44.59255" lon="4.08238">
        <ele>903.59997558594</ele>
        <time>2015-05-31T11:45:05.000Z</time>
      </trkpt>
      <trkpt lat="44.59244" lon="4.08245">
        <ele>901.40002441406</ele>
        <time>2015-05-31T11:45:22.000Z</time>
      </trkpt>
      <trkpt lat="44.59233" lon="4.0824">
        <ele>903</ele>
        <time>2015-05-31T11:45:37.000Z</time>
      </trkpt>
      <trkpt lat="44.59219" lon="4.08232">
        <ele>906</ele>
        <time>2015-05-31T11:45:54.000Z</time>
      </trkpt>
      <trkpt lat="44.59208" lon="4.08223">
        <ele>909.40002441406</ele>
        <time>2015-05-31T11:46:09.000Z</time>
      </trkpt>
      <trkpt lat="44.59199" lon="4.0821">
        <ele>914.20001220703</ele>
        <time>2015-05-31T11:46:29.000Z</time>
      </trkpt>
      <trkpt lat="44.59199" lon="4.08207">
        <ele>915.20001220703</ele>
        <time>2015-05-31T11:46:49.000Z</time>
      </trkpt>
      <trkpt lat="44.59193" lon="4.08197">
        <ele>919.79998779297</ele>
        <time>2015-05-31T11:47:07.000Z</time>
      </trkpt>
      <trkpt lat="44.59184" lon="4.08194">
        <ele>922.79998779297</ele>
        <time>2015-05-31T11:47:22.000Z</time>
      </trkpt>
      <trkpt lat="44.5918" lon="4.08192">
        <ele>924</ele>
        <time>2015-05-31T11:47:28.000Z</time>
      </trkpt>
      <trkpt lat="44.59172" lon="4.08191">
        <ele>925.79998779297</ele>
        <time>2015-05-31T11:47:46.000Z</time>
      </trkpt>
      <trkpt lat="44.59163" lon="4.08194">
        <ele>926.40002441406</ele>
        <time>2015-05-31T11:48:01.000Z</time>
      </trkpt>
      <trkpt lat="44.5915" lon="4.08192">
        <ele>929.59997558594</ele>
        <time>2015-05-31T11:48:17.000Z</time>
      </trkpt>
      <trkpt lat="44.59145" lon="4.08189">
        <ele>931.20001220703</ele>
        <time>2015-05-31T11:48:35.000Z</time>
      </trkpt>
      <trkpt lat="44.59144" lon="4.08188">
        <ele>931.79998779297</ele>
        <time>2015-05-31T11:48:54.000Z</time>
      </trkpt>
      <trkpt lat="44.59143" lon="4.08195">
        <ele>930</ele>
        <time>2015-05-31T11:49:12.000Z</time>
      </trkpt>
      <trkpt lat="44.59148" lon="4.08227">
        <ele>918.79998779297</ele>
        <time>2015-05-31T11:49:31.000Z</time>
      </trkpt>
      <trkpt lat="44.59147" lon="4.08248">
        <ele>919</ele>
        <time>2015-05-31T11:49:50.000Z</time>
      </trkpt>
      <trkpt lat="44.59146" lon="4.08266">
        <ele>919.40002441406</ele>
        <time>2015-05-31T11:50:07.000Z</time>
      </trkpt>
      <trkpt lat="44.59141" lon="4.0828">
        <ele>921.40002441406</ele>
        <time>2015-05-31T11:50:22.000Z</time>
      </trkpt>
      <trkpt lat="44.59142" lon="4.08295">
        <ele>918</ele>
        <time>2015-05-31T11:50:38.000Z</time>
      </trkpt>
      <trkpt lat="44.59143" lon="4.08316">
        <ele>914.40002441406</ele>
        <time>2015-05-31T11:50:52.000Z</time>
      </trkpt>
      <trkpt lat="44.59139" lon="4.08333">
        <ele>915</ele>
        <time>2015-05-31T11:51:06.000Z</time>
      </trkpt>
      <trkpt lat="44.5914" lon="4.08342">
        <ele>913.40002441406</ele>
        <time>2015-05-31T11:51:21.000Z</time>
      </trkpt>
      <trkpt lat="44.59144" lon="4.08354">
        <ele>909.79998779297</ele>
        <time>2015-05-31T11:51:33.000Z</time>
      </trkpt>
      <trkpt lat="44.59147" lon="4.08364">
        <ele>906.40002441406</ele>
        <time>2015-05-31T11:51:55.000Z</time>
      </trkpt>
      <trkpt lat="44.59153" lon="4.08384">
        <ele>900.79998779297</ele>
        <time>2015-05-31T11:52:11.000Z</time>
      </trkpt>
      <trkpt lat="44.59158" lon="4.08399">
        <ele>896.20001220703</ele>
        <time>2015-05-31T11:52:26.000Z</time>
      </trkpt>
      <trkpt lat="44.59166" lon="4.08421">
        <ele>887.79998779297</ele>
        <time>2015-05-31T11:52:41.000Z</time>
      </trkpt>
      <trkpt lat="44.59172" lon="4.08437">
        <ele>881.20001220703</ele>
        <time>2015-05-31T11:52:56.000Z</time>
      </trkpt>
      <trkpt lat="44.59173" lon="4.0845">
        <ele>878.40002441406</ele>
        <time>2015-05-31T11:53:10.000Z</time>
      </trkpt>
      <trkpt lat="44.59166" lon="4.0847">
        <ele>879.40002441406</ele>
        <time>2015-05-31T11:53:24.000Z</time>
      </trkpt>
      <trkpt lat="44.59157" lon="4.08478">
        <ele>882.79998779297</ele>
        <time>2015-05-31T11:53:42.000Z</time>
      </trkpt>
      <trkpt lat="44.5915" lon="4.08474">
        <ele>887.79998779297</ele>
        <time>2015-05-31T11:54:02.000Z</time>
      </trkpt>
      <trkpt lat="44.59138" lon="4.08473">
        <ele>892.20001220703</ele>
        <time>2015-05-31T11:54:18.000Z</time>
      </trkpt>
      <trkpt lat="44.59126" lon="4.08473">
        <ele>895.79998779297</ele>
        <time>2015-05-31T11:54:32.000Z</time>
      </trkpt>
      <trkpt lat="44.59113" lon="4.08475">
        <ele>899.59997558594</ele>
        <time>2015-05-31T11:54:48.000Z</time>
      </trkpt>
      <trkpt lat="44.59104" lon="4.08478">
        <ele>902</ele>
        <time>2015-05-31T11:55:03.000Z</time>
      </trkpt>
      <trkpt lat="44.59095" lon="4.08482">
        <ele>904.20001220703</ele>
        <time>2015-05-31T11:55:20.000Z</time>
      </trkpt>
      <trkpt lat="44.59088" lon="4.0849">
        <ele>904.20001220703</ele>
        <time>2015-05-31T11:55:36.000Z</time>
      </trkpt>
      <trkpt lat="44.59077" lon="4.08492">
        <ele>908.59997558594</ele>
        <time>2015-05-31T11:55:53.000Z</time>
      </trkpt>
      <trkpt lat="44.59067" lon="4.08497">
        <ele>911.79998779297</ele>
        <time>2015-05-31T11:56:10.000Z</time>
      </trkpt>
      <trkpt lat="44.59064" lon="4.08496">
        <ele>913</ele>
        <time>2015-05-31T11:56:30.000Z</time>
      </trkpt>
      <trkpt lat="44.59063" lon="4.08496">
        <ele>913.59997558594</ele>
        <time>2015-05-31T11:56:55.000Z</time>
      </trkpt>
      <trkpt lat="44.5906" lon="4.08498">
        <ele>914.20001220703</ele>
        <time>2015-05-31T11:57:17.000Z</time>
      </trkpt>
      <trkpt lat="44.5906" lon="4.08499">
        <ele>914.40002441406</ele>
        <time>2015-05-31T11:57:31.000Z</time>
      </trkpt>
      <trkpt lat="44.59072" lon="4.08517">
        <ele>902</ele>
        <time>2015-05-31T11:57:47.000Z</time>
      </trkpt>
      <trkpt lat="44.59079" lon="4.08533">
        <ele>895.40002441406</ele>
        <time>2015-05-31T11:58:03.000Z</time>
      </trkpt>
      <trkpt lat="44.59085" lon="4.08551">
        <ele>890.40002441406</ele>
        <time>2015-05-31T11:58:21.000Z</time>
      </trkpt>
      <trkpt lat="44.59094" lon="4.0856">
        <ele>885.20001220703</ele>
        <time>2015-05-31T11:58:36.000Z</time>
      </trkpt>
      <trkpt lat="44.59101" lon="4.08569">
        <ele>881.40002441406</ele>
        <time>2015-05-31T11:58:52.000Z</time>
      </trkpt>
      <trkpt lat="44.59104" lon="4.08575">
        <ele>879.20001220703</ele>
        <time>2015-05-31T11:59:03.000Z</time>
      </trkpt>
      <trkpt lat="44.59107" lon="4.08578">
        <ele>877.59997558594</ele>
        <time>2015-05-31T11:59:07.000Z</time>
      </trkpt>
      <trkpt lat="44.59116" lon="4.08583">
        <ele>872.40002441406</ele>
        <time>2015-05-31T11:59:21.000Z</time>
      </trkpt>
      <trkpt lat="44.5913" lon="4.08589">
        <ele>866.40002441406</ele>
        <time>2015-05-31T11:59:37.000Z</time>
      </trkpt>
      <trkpt lat="44.59141" lon="4.08599">
        <ele>861.40002441406</ele>
        <time>2015-05-31T11:59:52.000Z</time>
      </trkpt>
      <trkpt lat="44.59154" lon="4.08609">
        <ele>855.40002441406</ele>
        <time>2015-05-31T12:00:08.000Z</time>
      </trkpt>
      <trkpt lat="44.59162" lon="4.08618">
        <ele>854.40002441406</ele>
        <time>2015-05-31T12:00:21.000Z</time>
      </trkpt>
      <trkpt lat="44.59167" lon="4.08625">
        <ele>854.59997558594</ele>
        <time>2015-05-31T12:00:37.000Z</time>
      </trkpt>
      <trkpt lat="44.59177" lon="4.0863">
        <ele>852.20001220703</ele>
        <time>2015-05-31T12:00:55.000Z</time>
      </trkpt>
      <trkpt lat="44.59188" lon="4.08633">
        <ele>849</ele>
        <time>2015-05-31T12:01:09.000Z</time>
      </trkpt>
      <trkpt lat="44.59198" lon="4.08639">
        <ele>847</ele>
        <time>2015-05-31T12:01:24.000Z</time>
      </trkpt>
      <trkpt lat="44.59204" lon="4.08644">
        <ele>845.79998779297</ele>
        <time>2015-05-31T12:01:46.000Z</time>
      </trkpt>
      <trkpt lat="44.59219" lon="4.08651">
        <ele>842.20001220703</ele>
        <time>2015-05-31T12:02:04.000Z</time>
      </trkpt>
      <trkpt lat="44.59231" lon="4.0866">
        <ele>839.79998779297</ele>
        <time>2015-05-31T12:02:19.000Z</time>
      </trkpt>
      <trkpt lat="44.59238" lon="4.08682">
        <ele>843.79998779297</ele>
        <time>2015-05-31T12:02:36.000Z</time>
      </trkpt>
      <trkpt lat="44.59237" lon="4.08696">
        <ele>847.40002441406</ele>
        <time>2015-05-31T12:02:51.000Z</time>
      </trkpt>
      <trkpt lat="44.5924" lon="4.08714">
        <ele>847.40002441406</ele>
        <time>2015-05-31T12:03:10.000Z</time>
      </trkpt>
      <trkpt lat="44.5924" lon="4.08736">
        <ele>849.20001220703</ele>
        <time>2015-05-31T12:03:27.000Z</time>
      </trkpt>
      <trkpt lat="44.59238" lon="4.08753">
        <ele>852.79998779297</ele>
        <time>2015-05-31T12:03:41.000Z</time>
      </trkpt>
      <trkpt lat="44.59239" lon="4.08779">
        <ele>855.79998779297</ele>
        <time>2015-05-31T12:03:58.000Z</time>
      </trkpt>
      <trkpt lat="44.59239" lon="4.08799">
        <ele>853.40002441406</ele>
        <time>2015-05-31T12:04:14.000Z</time>
      </trkpt>
      <trkpt lat="44.59241" lon="4.08817">
        <ele>850.20001220703</ele>
        <time>2015-05-31T12:04:30.000Z</time>
      </trkpt>
      <trkpt lat="44.59241" lon="4.08849">
        <ele>842.59997558594</ele>
        <time>2015-05-31T12:04:46.000Z</time>
      </trkpt>
      <trkpt lat="44.59235" lon="4.08873">
        <ele>838.20001220703</ele>
        <time>2015-05-31T12:05:02.000Z</time>
      </trkpt>
      <trkpt lat="44.59226" lon="4.0888">
        <ele>839.40002441406</ele>
        <time>2015-05-31T12:05:19.000Z</time>
      </trkpt>
      <trkpt lat="44.59208" lon="4.0889">
        <ele>838.20001220703</ele>
        <time>2015-05-31T12:05:36.000Z</time>
      </trkpt>
      <trkpt lat="44.59202" lon="4.08894">
        <ele>837.79998779297</ele>
        <time>2015-05-31T12:05:52.000Z</time>
      </trkpt>
      <trkpt lat="44.59198" lon="4.08896">
        <ele>836.59997558594</ele>
        <time>2015-05-31T12:05:56.000Z</time>
      </trkpt>
      <trkpt lat="44.59183" lon="4.08899">
        <ele>834.79998779297</ele>
        <time>2015-05-31T12:06:12.000Z</time>
      </trkpt>
      <trkpt lat="44.59173" lon="4.08899">
        <ele>834</ele>
        <time>2015-05-31T12:06:27.000Z</time>
      </trkpt>
      <trkpt lat="44.59163" lon="4.08899">
        <ele>834</ele>
        <time>2015-05-31T12:06:41.000Z</time>
      </trkpt>
      <trkpt lat="44.59159" lon="4.08898">
        <ele>834.20001220703</ele>
        <time>2015-05-31T12:06:54.000Z</time>
      </trkpt>
      <trkpt lat="44.59159" lon="4.08897">
        <ele>834.40002441406</ele>
        <time>2015-05-31T12:07:14.000Z</time>
      </trkpt>
      <trkpt lat="44.59159" lon="4.08897">
        <ele>834.40002441406</ele>
        <time>2015-05-31T12:07:35.000Z</time>
      </trkpt>
      <trkpt lat="44.5916" lon="4.08897">
        <ele>834.79998779297</ele>
        <time>2015-05-31T12:07:53.000Z</time>
      </trkpt>
      <trkpt lat="44.5916" lon="4.08895">
        <ele>835.59997558594</ele>
        <time>2015-05-31T12:08:14.000Z</time>
      </trkpt>
      <trkpt lat="44.59161" lon="4.08894">
        <ele>836.40002441406</ele>
        <time>2015-05-31T12:08:43.000Z</time>
      </trkpt>
      <trkpt lat="44.59161" lon="4.08894">
        <ele>836.20001220703</ele>
        <time>2015-05-31T12:09:15.000Z</time>
      </trkpt>
      <trkpt lat="44.59161" lon="4.08895">
        <ele>835.79998779297</ele>
        <time>2015-05-31T12:09:38.000Z</time>
      </trkpt>
      <trkpt lat="44.59162" lon="4.08895">
        <ele>835.59997558594</ele>
        <time>2015-05-31T12:10:02.000Z</time>
      </trkpt>
      <trkpt lat="44.59162" lon="4.08895">
        <ele>835.59997558594</ele>
        <time>2015-05-31T12:10:08.000Z</time>
      </trkpt>
      <trkpt lat="44.5916" lon="4.08896">
        <ele>835</ele>
        <time>2015-05-31T12:10:19.000Z</time>
      </trkpt>
      <trkpt lat="44.59149" lon="4.08895">
        <ele>836.20001220703</ele>
        <time>2015-05-31T12:10:35.000Z</time>
      </trkpt>
      <trkpt lat="44.59144" lon="4.08892">
        <ele>837.79998779297</ele>
        <time>2015-05-31T12:10:53.000Z</time>
      </trkpt>
      <trkpt lat="44.59141" lon="4.08892">
        <ele>838.20001220703</ele>
        <time>2015-05-31T12:11:08.000Z</time>
      </trkpt>
      <trkpt lat="44.5914" lon="4.08894">
        <ele>837.79998779297</ele>
        <time>2015-05-31T12:11:24.000Z</time>
      </trkpt>
      <trkpt lat="44.59141" lon="4.08895">
        <ele>837.40002441406</ele>
        <time>2015-05-31T12:11:48.000Z</time>
      </trkpt>
      <trkpt lat="44.59141" lon="4.08894">
        <ele>837.79998779297</ele>
        <time>2015-05-31T12:12:01.000Z</time>
      </trkpt>
      <trkpt lat="44.59135" lon="4.08891">
        <ele>839.59997558594</ele>
        <time>2015-05-31T12:12:15.000Z</time>
      </trkpt>
      <trkpt lat="44.59127" lon="4.08891">
        <ele>840.59997558594</ele>
        <time>2015-05-31T12:12:32.000Z</time>
      </trkpt>
      <trkpt lat="44.59121" lon="4.08892">
        <ele>841.20001220703</ele>
        <time>2015-05-31T12:12:56.000Z</time>
      </trkpt>
      <trkpt lat="44.59125" lon="4.08892">
        <ele>840.79998779297</ele>
        <time>2015-05-31T12:13:10.000Z</time>
      </trkpt>
      <trkpt lat="44.59113" lon="4.08894">
        <ele>843</ele>
        <time>2015-05-31T12:13:28.000Z</time>
      </trkpt>
      <trkpt lat="44.591" lon="4.08885">
        <ele>849.79998779297</ele>
        <time>2015-05-31T12:13:47.000Z</time>
      </trkpt>
      <trkpt lat="44.59092" lon="4.08879">
        <ele>854.40002441406</ele>
        <time>2015-05-31T12:14:02.000Z</time>
      </trkpt>
      <trkpt lat="44.59086" lon="4.08878">
        <ele>856.59997558594</ele>
        <time>2015-05-31T12:14:21.000Z</time>
      </trkpt>
      <trkpt lat="44.59078" lon="4.08885">
        <ele>857.20001220703</ele>
        <time>2015-05-31T12:14:37.000Z</time>
      </trkpt>
      <trkpt lat="44.59074" lon="4.08904">
        <ele>854.40002441406</ele>
        <time>2015-05-31T12:14:58.000Z</time>
      </trkpt>
      <trkpt lat="44.59073" lon="4.08918">
        <ele>854.40002441406</ele>
        <time>2015-05-31T12:15:15.000Z</time>
      </trkpt>
      <trkpt lat="44.59081" lon="4.08931">
        <ele>849.40002441406</ele>
        <time>2015-05-31T12:15:30.000Z</time>
      </trkpt>
      <trkpt lat="44.59082" lon="4.08938">
        <ele>848.59997558594</ele>
        <time>2015-05-31T12:15:42.000Z</time>
      </trkpt>
      <trkpt lat="44.59084" lon="4.08941">
        <ele>847.20001220703</ele>
        <time>2015-05-31T12:15:52.000Z</time>
      </trkpt>
      <trkpt lat="44.59091" lon="4.08941">
        <ele>843.20001220703</ele>
        <time>2015-05-31T12:15:59.000Z</time>
      </trkpt>
      <trkpt lat="44.59103" lon="4.08943">
        <ele>836.20001220703</ele>
        <time>2015-05-31T12:16:13.000Z</time>
      </trkpt>
      <trkpt lat="44.59109" lon="4.08966">
        <ele>832.40002441406</ele>
        <time>2015-05-31T12:16:26.000Z</time>
      </trkpt>
      <trkpt lat="44.59115" lon="4.08978">
        <ele>828.59997558594</ele>
        <time>2015-05-31T12:16:41.000Z</time>
      </trkpt>
      <trkpt lat="44.5912" lon="4.08996">
        <ele>826.40002441406</ele>
        <time>2015-05-31T12:16:56.000Z</time>
      </trkpt>
      <trkpt lat="44.59127" lon="4.09012">
        <ele>823.40002441406</ele>
        <time>2015-05-31T12:17:13.000Z</time>
      </trkpt>
      <trkpt lat="44.59134" lon="4.09022">
        <ele>820</ele>
        <time>2015-05-31T12:17:26.000Z</time>
      </trkpt>
      <trkpt lat="44.59133" lon="4.09018">
        <ele>820.59997558594</ele>
        <time>2015-05-31T12:17:40.000Z</time>
      </trkpt>
      <trkpt lat="44.59141" lon="4.09017">
        <ele>817.20001220703</ele>
        <time>2015-05-31T12:17:59.000Z</time>
      </trkpt>
      <trkpt lat="44.59141" lon="4.09016">
        <ele>817.20001220703</ele>
        <time>2015-05-31T12:18:01.000Z</time>
      </trkpt>
      <trkpt lat="44.59145" lon="4.09">
        <ele>815.59997558594</ele>
        <time>2015-05-31T12:18:16.000Z</time>
      </trkpt>
      <trkpt lat="44.59134" lon="4.08977">
        <ele>820.20001220703</ele>
        <time>2015-05-31T12:18:31.000Z</time>
      </trkpt>
      <trkpt lat="44.59128" lon="4.08975">
        <ele>822.79998779297</ele>
        <time>2015-05-31T12:18:46.000Z</time>
      </trkpt>
      <trkpt lat="44.5913" lon="4.08982">
        <ele>821.79998779297</ele>
        <time>2015-05-31T12:19:03.000Z</time>
      </trkpt>
      <trkpt lat="44.59139" lon="4.08998">
        <ele>818</ele>
        <time>2015-05-31T12:19:22.000Z</time>
      </trkpt>
      <trkpt lat="44.5914" lon="4.09006">
        <ele>817.59997558594</ele>
        <time>2015-05-31T12:19:40.000Z</time>
      </trkpt>
      <trkpt lat="44.59147" lon="4.0902">
        <ele>814.40002441406</ele>
        <time>2015-05-31T12:19:51.000Z</time>
      </trkpt>
      <trkpt lat="44.59157" lon="4.09031">
        <ele>810.40002441406</ele>
        <time>2015-05-31T12:20:06.000Z</time>
      </trkpt>
      <trkpt lat="44.59165" lon="4.09041">
        <ele>807.59997558594</ele>
        <time>2015-05-31T12:20:21.000Z</time>
      </trkpt>
      <trkpt lat="44.59169" lon="4.09051">
        <ele>806.59997558594</ele>
        <time>2015-05-31T12:20:35.000Z</time>
      </trkpt>
      <trkpt lat="44.59176" lon="4.09064">
        <ele>804.40002441406</ele>
        <time>2015-05-31T12:20:48.000Z</time>
      </trkpt>
      <trkpt lat="44.59177" lon="4.09066">
        <ele>804.20001220703</ele>
        <time>2015-05-31T12:21:14.000Z</time>
      </trkpt>
      <trkpt lat="44.59181" lon="4.09073">
        <ele>802.40002441406</ele>
        <time>2015-05-31T12:21:27.000Z</time>
      </trkpt>
      <trkpt lat="44.59187" lon="4.09086">
        <ele>800.79998779297</ele>
        <time>2015-05-31T12:21:41.000Z</time>
      </trkpt>
      <trkpt lat="44.59193" lon="4.091">
        <ele>799.20001220703</ele>
        <time>2015-05-31T12:21:57.000Z</time>
      </trkpt>
      <trkpt lat="44.59199" lon="4.09122">
        <ele>800.20001220703</ele>
        <time>2015-05-31T12:22:14.000Z</time>
      </trkpt>
      <trkpt lat="44.59202" lon="4.09135">
        <ele>800.40002441406</ele>
        <time>2015-05-31T12:22:28.000Z</time>
      </trkpt>
      <trkpt lat="44.59209" lon="4.09148">
        <ele>799.20001220703</ele>
        <time>2015-05-31T12:22:42.000Z</time>
      </trkpt>
      <trkpt lat="44.59215" lon="4.09161">
        <ele>798</ele>
        <time>2015-05-31T12:22:55.000Z</time>
      </trkpt>
      <trkpt lat="44.59222" lon="4.09177">
        <ele>797</ele>
        <time>2015-05-31T12:23:10.000Z</time>
      </trkpt>
      <trkpt lat="44.59225" lon="4.09186">
        <ele>797.40002441406</ele>
        <time>2015-05-31T12:23:24.000Z</time>
      </trkpt>
      <trkpt lat="44.59232" lon="4.09201">
        <ele>795.59997558594</ele>
        <time>2015-05-31T12:23:37.000Z</time>
      </trkpt>
      <trkpt lat="44.59237" lon="4.09212">
        <ele>793.79998779297</ele>
        <time>2015-05-31T12:23:49.000Z</time>
      </trkpt>
      <trkpt lat="44.59244" lon="4.09234">
        <ele>792.79998779297</ele>
        <time>2015-05-31T12:24:05.000Z</time>
      </trkpt>
      <trkpt lat="44.59254" lon="4.09246">
        <ele>788.40002441406</ele>
        <time>2015-05-31T12:24:19.000Z</time>
      </trkpt>
      <trkpt lat="44.59261" lon="4.09257">
        <ele>785.40002441406</ele>
        <time>2015-05-31T12:24:33.000Z</time>
      </trkpt>
      <trkpt lat="44.59262" lon="4.09264">
        <ele>785.20001220703</ele>
        <time>2015-05-31T12:24:50.000Z</time>
      </trkpt>
      <trkpt lat="44.59264" lon="4.09267">
        <ele>784.59997558594</ele>
        <time>2015-05-31T12:25:15.000Z</time>
      </trkpt>
      <trkpt lat="44.59263" lon="4.09269">
        <ele>784.59997558594</ele>
        <time>2015-05-31T12:25:40.000Z</time>
      </trkpt>
      <trkpt lat="44.59264" lon="4.09269">
        <ele>784.20001220703</ele>
        <time>2015-05-31T12:26:03.000Z</time>
      </trkpt>
      <trkpt lat="44.59264" lon="4.09271">
        <ele>784.40002441406</ele>
        <time>2015-05-31T12:26:29.000Z</time>
      </trkpt>
      <trkpt lat="44.59269" lon="4.09273">
        <ele>782.20001220703</ele>
        <time>2015-05-31T12:26:52.000Z</time>
      </trkpt>
      <trkpt lat="44.59273" lon="4.09275">
        <ele>780.20001220703</ele>
        <time>2015-05-31T12:27:13.000Z</time>
      </trkpt>
      <trkpt lat="44.59274" lon="4.09274">
        <ele>780</ele>
        <time>2015-05-31T12:27:33.000Z</time>
      </trkpt>
      <trkpt lat="44.59274" lon="4.09274">
        <ele>780</ele>
        <time>2015-05-31T12:27:49.000Z</time>
      </trkpt>
      <trkpt lat="44.59276" lon="4.09278">
        <ele>778.79998779297</ele>
        <time>2015-05-31T12:28:08.000Z</time>
      </trkpt>
      <trkpt lat="44.59278" lon="4.09284">
        <ele>777.59997558594</ele>
        <time>2015-05-31T12:28:25.000Z</time>
      </trkpt>
      <trkpt lat="44.5928" lon="4.09287">
        <ele>776.59997558594</ele>
        <time>2015-05-31T12:28:46.000Z</time>
      </trkpt>
      <trkpt lat="44.59284" lon="4.0929">
        <ele>774.20001220703</ele>
        <time>2015-05-31T12:29:05.000Z</time>
      </trkpt>
      <trkpt lat="44.59287" lon="4.09294">
        <ele>772.79998779297</ele>
        <time>2015-05-31T12:29:24.000Z</time>
      </trkpt>
      <trkpt lat="44.59296" lon="4.09298">
        <ele>769</ele>
        <time>2015-05-31T12:29:42.000Z</time>
      </trkpt>
      <trkpt lat="44.59301" lon="4.09299">
        <ele>766.59997558594</ele>
        <time>2015-05-31T12:29:59.000Z</time>
      </trkpt>
      <trkpt lat="44.59308" lon="4.09301">
        <ele>763.79998779297</ele>
        <time>2015-05-31T12:30:17.000Z</time>
      </trkpt>
      <trkpt lat="44.59316" lon="4.09301">
        <ele>760.20001220703</ele>
        <time>2015-05-31T12:30:33.000Z</time>
      </trkpt>
      <trkpt lat="44.59321" lon="4.093">
        <ele>757.79998779297</ele>
        <time>2015-05-31T12:30:53.000Z</time>
      </trkpt>
      <trkpt lat="44.59327" lon="4.09299">
        <ele>755.20001220703</ele>
        <time>2015-05-31T12:31:11.000Z</time>
      </trkpt>
      <trkpt lat="44.5933" lon="4.093">
        <ele>753.59997558594</ele>
        <time>2015-05-31T12:31:28.000Z</time>
      </trkpt>
      <trkpt lat="44.59342" lon="4.09302">
        <ele>748</ele>
        <time>2015-05-31T12:31:46.000Z</time>
      </trkpt>
      <trkpt lat="44.59351" lon="4.09303">
        <ele>743.59997558594</ele>
        <time>2015-05-31T12:32:06.000Z</time>
      </trkpt>
      <trkpt lat="44.59359" lon="4.09304">
        <ele>740.20001220703</ele>
        <time>2015-05-31T12:32:21.000Z</time>
      </trkpt>
      <trkpt lat="44.5936" lon="4.09302">
        <ele>739.79998779297</ele>
        <time>2015-05-31T12:32:41.000Z</time>
      </trkpt>
      <trkpt lat="44.59363" lon="4.09309">
        <ele>738.20001220703</ele>
        <time>2015-05-31T12:32:57.000Z</time>
      </trkpt>
      <trkpt lat="44.59371" lon="4.09317">
        <ele>734.79998779297</ele>
        <time>2015-05-31T12:33:15.000Z</time>
      </trkpt>
      <trkpt lat="44.59372" lon="4.09319">
        <ele>734.40002441406</ele>
        <time>2015-05-31T12:33:39.000Z</time>
      </trkpt>
      <trkpt lat="44.59377" lon="4.09309">
        <ele>733</ele>
        <time>2015-05-31T12:33:54.000Z</time>
      </trkpt>
      <trkpt lat="44.59375" lon="4.09286">
        <ele>733.79998779297</ele>
        <time>2015-05-31T12:34:10.000Z</time>
      </trkpt>
      <trkpt lat="44.59369" lon="4.09269">
        <ele>735</ele>
        <time>2015-05-31T12:34:26.000Z</time>
      </trkpt>
      <trkpt lat="44.59363" lon="4.09245">
        <ele>736</ele>
        <time>2015-05-31T12:34:43.000Z</time>
      </trkpt>
      <trkpt lat="44.59356" lon="4.09233">
        <ele>737.79998779297</ele>
        <time>2015-05-31T12:34:57.000Z</time>
      </trkpt>
      <trkpt lat="44.59347" lon="4.0922">
        <ele>740.59997558594</ele>
        <time>2015-05-31T12:35:12.000Z</time>
      </trkpt>
      <trkpt lat="44.59338" lon="4.09201">
        <ele>742.59997558594</ele>
        <time>2015-05-31T12:35:27.000Z</time>
      </trkpt>
      <trkpt lat="44.59345" lon="4.09199">
        <ele>740</ele>
        <time>2015-05-31T12:35:41.000Z</time>
      </trkpt>
      <trkpt lat="44.59346" lon="4.09196">
        <ele>739</ele>
        <time>2015-05-31T12:35:44.000Z</time>
      </trkpt>
      <trkpt lat="44.59362" lon="4.0918">
        <ele>733.40002441406</ele>
        <time>2015-05-31T12:35:58.000Z</time>
      </trkpt>
      <trkpt lat="44.59372" lon="4.09164">
        <ele>734</ele>
        <time>2015-05-31T12:36:12.000Z</time>
      </trkpt>
      <trkpt lat="44.59383" lon="4.09144">
        <ele>735.20001220703</ele>
        <time>2015-05-31T12:36:30.000Z</time>
      </trkpt>
      <trkpt lat="44.59395" lon="4.09128">
        <ele>734.59997558594</ele>
        <time>2015-05-31T12:36:46.000Z</time>
      </trkpt>
      <trkpt lat="44.59404" lon="4.09102">
        <ele>734.59997558594</ele>
        <time>2015-05-31T12:37:04.000Z</time>
      </trkpt>
      <trkpt lat="44.59409" lon="4.09091">
        <ele>735.40002441406</ele>
        <time>2015-05-31T12:37:17.000Z</time>
      </trkpt>
      <trkpt lat="44.59412" lon="4.09083">
        <ele>736.20001220703</ele>
        <time>2015-05-31T12:37:38.000Z</time>
      </trkpt>
      <trkpt lat="44.59414" lon="4.09086">
        <ele>735</ele>
        <time>2015-05-31T12:37:54.000Z</time>
      </trkpt>
      <trkpt lat="44.59421" lon="4.09082">
        <ele>733.79998779297</ele>
        <time>2015-05-31T12:38:10.000Z</time>
      </trkpt>
      <trkpt lat="44.59423" lon="4.0908">
        <ele>733.59997558594</ele>
        <time>2015-05-31T12:38:29.000Z</time>
      </trkpt>
      <trkpt lat="44.59424" lon="4.09077">
        <ele>733.59997558594</ele>
        <time>2015-05-31T12:38:45.000Z</time>
      </trkpt>
      <trkpt lat="44.59419" lon="4.09081">
        <ele>734.40002441406</ele>
        <time>2015-05-31T12:39:00.000Z</time>
      </trkpt>
      <trkpt lat="44.59423" lon="4.09097">
        <ele>730.20001220703</ele>
        <time>2015-05-31T12:39:13.000Z</time>
      </trkpt>
      <trkpt lat="44.59432" lon="4.0912">
        <ele>725</ele>
        <time>2015-05-31T12:39:30.000Z</time>
      </trkpt>
      <trkpt lat="44.59434" lon="4.09137">
        <ele>723.59997558594</ele>
        <time>2015-05-31T12:39:48.000Z</time>
      </trkpt>
      <trkpt lat="44.59438" lon="4.09171">
        <ele>720.79998779297</ele>
        <time>2015-05-31T12:40:04.000Z</time>
      </trkpt>
      <trkpt lat="44.59437" lon="4.09191">
        <ele>718.79998779297</ele>
        <time>2015-05-31T12:40:22.000Z</time>
      </trkpt>
      <trkpt lat="44.59437" lon="4.09192">
        <ele>718.59997558594</ele>
        <time>2015-05-31T12:40:24.000Z</time>
      </trkpt>
      <trkpt lat="44.59447" lon="4.09209">
        <ele>715.59997558594</ele>
        <time>2015-05-31T12:40:41.000Z</time>
      </trkpt>
      <trkpt lat="44.59455" lon="4.09224">
        <ele>714.40002441406</ele>
        <time>2015-05-31T12:41:00.000Z</time>
      </trkpt>
      <trkpt lat="44.59457" lon="4.09227">
        <ele>714.20001220703</ele>
        <time>2015-05-31T12:41:22.000Z</time>
      </trkpt>
      <trkpt lat="44.59457" lon="4.09231">
        <ele>714</ele>
        <time>2015-05-31T12:41:27.000Z</time>
      </trkpt>
      <trkpt lat="44.59462" lon="4.09246">
        <ele>713.79998779297</ele>
        <time>2015-05-31T12:41:43.000Z</time>
      </trkpt>
      <trkpt lat="44.59467" lon="4.0925">
        <ele>714</ele>
        <time>2015-05-31T12:41:49.000Z</time>
      </trkpt>
      <trkpt lat="44.5948" lon="4.09255">
        <ele>715.59997558594</ele>
        <time>2015-05-31T12:42:04.000Z</time>
      </trkpt>
      <trkpt lat="44.59493" lon="4.09244">
        <ele>718.40002441406</ele>
        <time>2015-05-31T12:42:21.000Z</time>
      </trkpt>
      <trkpt lat="44.59502" lon="4.09233">
        <ele>720.79998779297</ele>
        <time>2015-05-31T12:42:34.000Z</time>
      </trkpt>
      <trkpt lat="44.59511" lon="4.09219">
        <ele>724</ele>
        <time>2015-05-31T12:42:49.000Z</time>
      </trkpt>
      <trkpt lat="44.59516" lon="4.09212">
        <ele>725.59997558594</ele>
        <time>2015-05-31T12:43:05.000Z</time>
      </trkpt>
      <trkpt lat="44.59525" lon="4.09198">
        <ele>728.59997558594</ele>
        <time>2015-05-31T12:43:19.000Z</time>
      </trkpt>
      <trkpt lat="44.59533" lon="4.09183">
        <ele>731.40002441406</ele>
        <time>2015-05-31T12:43:36.000Z</time>
      </trkpt>
      <trkpt lat="44.5954" lon="4.09167">
        <ele>733.59997558594</ele>
        <time>2015-05-31T12:43:52.000Z</time>
      </trkpt>
      <trkpt lat="44.59544" lon="4.09155">
        <ele>735</ele>
        <time>2015-05-31T12:44:06.000Z</time>
      </trkpt>
      <trkpt lat="44.59554" lon="4.09144">
        <ele>737</ele>
        <time>2015-05-31T12:44:21.000Z</time>
      </trkpt>
      <trkpt lat="44.59561" lon="4.09146">
        <ele>738</ele>
        <time>2015-05-31T12:44:28.000Z</time>
      </trkpt>
      <trkpt lat="44.59573" lon="4.09157">
        <ele>738.59997558594</ele>
        <time>2015-05-31T12:44:47.000Z</time>
      </trkpt>
      <trkpt lat="44.59571" lon="4.09181">
        <ele>736.59997558594</ele>
        <time>2015-05-31T12:45:05.000Z</time>
      </trkpt>
      <trkpt lat="44.59571" lon="4.09192">
        <ele>735.79998779297</ele>
        <time>2015-05-31T12:45:20.000Z</time>
      </trkpt>
      <trkpt lat="44.59575" lon="4.09211">
        <ele>735.79998779297</ele>
        <time>2015-05-31T12:45:36.000Z</time>
      </trkpt>
      <trkpt lat="44.59578" lon="4.09241">
        <ele>735</ele>
        <time>2015-05-31T12:45:54.000Z</time>
      </trkpt>
      <trkpt lat="44.59577" lon="4.09269">
        <ele>731.79998779297</ele>
        <time>2015-05-31T12:46:09.000Z</time>
      </trkpt>
      <trkpt lat="44.59574" lon="4.09276">
        <ele>730.59997558594</ele>
        <time>2015-05-31T12:46:26.000Z</time>
      </trkpt>
      <trkpt lat="44.59572" lon="4.09304">
        <ele>734</ele>
        <time>2015-05-31T12:46:42.000Z</time>
      </trkpt>
      <trkpt lat="44.59572" lon="4.0931">
        <ele>734.79998779297</ele>
        <time>2015-05-31T12:46:45.000Z</time>
      </trkpt>
      <trkpt lat="44.5957" lon="4.09335">
        <ele>733.59997558594</ele>
        <time>2015-05-31T12:47:00.000Z</time>
      </trkpt>
      <trkpt lat="44.59567" lon="4.09365">
        <ele>731.79998779297</ele>
        <time>2015-05-31T12:47:19.000Z</time>
      </trkpt>
      <trkpt lat="44.59562" lon="4.09393">
        <ele>732.79998779297</ele>
        <time>2015-05-31T12:47:37.000Z</time>
      </trkpt>
      <trkpt lat="44.59556" lon="4.09412">
        <ele>732</ele>
        <time>2015-05-31T12:47:51.000Z</time>
      </trkpt>
      <trkpt lat="44.59554" lon="4.09421">
        <ele>732</ele>
        <time>2015-05-31T12:48:06.000Z</time>
      </trkpt>
      <trkpt lat="44.59553" lon="4.09429">
        <ele>732.40002441406</ele>
        <time>2015-05-31T12:48:21.000Z</time>
      </trkpt>
      <trkpt lat="44.59552" lon="4.0943">
        <ele>732</ele>
        <time>2015-05-31T12:48:46.000Z</time>
      </trkpt>
      <trkpt lat="44.59552" lon="4.0943">
        <ele>731.59997558594</ele>
        <time>2015-05-31T12:49:11.000Z</time>
      </trkpt>
      <trkpt lat="44.59552" lon="4.09436">
        <ele>732.40002441406</ele>
        <time>2015-05-31T12:49:31.000Z</time>
      </trkpt>
      <trkpt lat="44.59549" lon="4.09462">
        <ele>732.20001220703</ele>
        <time>2015-05-31T12:49:48.000Z</time>
      </trkpt>
      <trkpt lat="44.59547" lon="4.0948">
        <ele>733.20001220703</ele>
        <time>2015-05-31T12:50:07.000Z</time>
      </trkpt>
      <trkpt lat="44.59546" lon="4.0948">
        <ele>733</ele>
        <time>2015-05-31T12:50:29.000Z</time>
      </trkpt>
      <trkpt lat="44.59546" lon="4.0948">
        <ele>733</ele>
        <time>2015-05-31T12:50:50.000Z</time>
      </trkpt>
      <trkpt lat="44.59545" lon="4.09476">
        <ele>732.40002441406</ele>
        <time>2015-05-31T12:50:53.000Z</time>
      </trkpt>
      <trkpt lat="44.59543" lon="4.09469">
        <ele>731</ele>
        <time>2015-05-31T12:50:58.000Z</time>
      </trkpt>
      <trkpt lat="44.59549" lon="4.09438">
        <ele>731.20001220703</ele>
        <time>2015-05-31T12:51:16.000Z</time>
      </trkpt>
      <trkpt lat="44.59551" lon="4.09412">
        <ele>729.79998779297</ele>
        <time>2015-05-31T12:51:33.000Z</time>
      </trkpt>
      <trkpt lat="44.59558" lon="4.09385">
        <ele>730.20001220703</ele>
        <time>2015-05-31T12:51:49.000Z</time>
      </trkpt>
      <trkpt lat="44.59562" lon="4.09358">
        <ele>729.20001220703</ele>
        <time>2015-05-31T12:52:06.000Z</time>
      </trkpt>
      <trkpt lat="44.59564" lon="4.09333">
        <ele>731.20001220703</ele>
        <time>2015-05-31T12:52:23.000Z</time>
      </trkpt>
      <trkpt lat="44.59564" lon="4.09324">
        <ele>731.59997558594</ele>
        <time>2015-05-31T12:52:36.000Z</time>
      </trkpt>
      <trkpt lat="44.59568" lon="4.09298">
        <ele>732.20001220703</ele>
        <time>2015-05-31T12:52:55.000Z</time>
      </trkpt>
      <trkpt lat="44.5957" lon="4.093">
        <ele>732.79998779297</ele>
        <time>2015-05-31T12:53:00.000Z</time>
      </trkpt>
      <trkpt lat="44.59576" lon="4.09319">
        <ele>736.79998779297</ele>
        <time>2015-05-31T12:53:17.000Z</time>
      </trkpt>
      <trkpt lat="44.59574" lon="4.09346">
        <ele>734.59997558594</ele>
        <time>2015-05-31T12:53:32.000Z</time>
      </trkpt>
      <trkpt lat="44.59573" lon="4.09382">
        <ele>735.79998779297</ele>
        <time>2015-05-31T12:53:52.000Z</time>
      </trkpt>
      <trkpt lat="44.59561" lon="4.09411">
        <ele>734</ele>
        <time>2015-05-31T12:54:09.000Z</time>
      </trkpt>
      <trkpt lat="44.59557" lon="4.09447">
        <ele>735</ele>
        <time>2015-05-31T12:54:27.000Z</time>
      </trkpt>
      <trkpt lat="44.59553" lon="4.09473">
        <ele>734.40002441406</ele>
        <time>2015-05-31T12:54:45.000Z</time>
      </trkpt>
      <trkpt lat="44.59544" lon="4.09486">
        <ele>732.79998779297</ele>
        <time>2015-05-31T12:55:02.000Z</time>
      </trkpt>
      <trkpt lat="44.59542" lon="4.09491">
        <ele>732.79998779297</ele>
        <time>2015-05-31T12:55:26.000Z</time>
      </trkpt>
      <trkpt lat="44.59544" lon="4.09512">
        <ele>735.40002441406</ele>
        <time>2015-05-31T12:55:45.000Z</time>
      </trkpt>
      <trkpt lat="44.59543" lon="4.09541">
        <ele>737.40002441406</ele>
        <time>2015-05-31T12:56:02.000Z</time>
      </trkpt>
      <trkpt lat="44.59535" lon="4.09564">
        <ele>738</ele>
        <time>2015-05-31T12:56:20.000Z</time>
      </trkpt>
      <trkpt lat="44.59523" lon="4.09587">
        <ele>737</ele>
        <time>2015-05-31T12:56:38.000Z</time>
      </trkpt>
      <trkpt lat="44.59512" lon="4.09611">
        <ele>737.40002441406</ele>
        <time>2015-05-31T12:56:56.000Z</time>
      </trkpt>
      <trkpt lat="44.59513" lon="4.09633">
        <ele>736.59997558594</ele>
        <time>2015-05-31T12:57:12.000Z</time>
      </trkpt>
      <trkpt lat="44.59506" lon="4.09671">
        <ele>733.40002441406</ele>
        <time>2015-05-31T12:57:34.000Z</time>
      </trkpt>
      <trkpt lat="44.59509" lon="4.09703">
        <ele>733.79998779297</ele>
        <time>2015-05-31T12:57:52.000Z</time>
      </trkpt>
      <trkpt lat="44.59503" lon="4.09728">
        <ele>733.40002441406</ele>
        <time>2015-05-31T12:58:09.000Z</time>
      </trkpt>
      <trkpt lat="44.59495" lon="4.09748">
        <ele>731.79998779297</ele>
        <time>2015-05-31T12:58:26.000Z</time>
      </trkpt>
      <trkpt lat="44.59484" lon="4.09771">
        <ele>729.40002441406</ele>
        <time>2015-05-31T12:58:43.000Z</time>
      </trkpt>
      <trkpt lat="44.59483" lon="4.09779">
        <ele>729</ele>
        <time>2015-05-31T12:58:46.000Z</time>
      </trkpt>
      <trkpt lat="44.59486" lon="4.09809">
        <ele>725.59997558594</ele>
        <time>2015-05-31T12:59:03.000Z</time>
      </trkpt>
      <trkpt lat="44.5949" lon="4.09815">
        <ele>725.79998779297</ele>
        <time>2015-05-31T12:59:07.000Z</time>
      </trkpt>
      <trkpt lat="44.59494" lon="4.0982">
        <ele>726</ele>
        <time>2015-05-31T12:59:11.000Z</time>
      </trkpt>
      <trkpt lat="44.59504" lon="4.09826">
        <ele>727.40002441406</ele>
        <time>2015-05-31T12:59:20.000Z</time>
      </trkpt>
      <trkpt lat="44.59521" lon="4.09841">
        <ele>729.40002441406</ele>
        <time>2015-05-31T12:59:39.000Z</time>
      </trkpt>
      <trkpt lat="44.5953" lon="4.09864">
        <ele>728.40002441406</ele>
        <time>2015-05-31T12:59:57.000Z</time>
      </trkpt>
      <trkpt lat="44.59538" lon="4.09889">
        <ele>723.59997558594</ele>
        <time>2015-05-31T13:00:14.000Z</time>
      </trkpt>
      <trkpt lat="44.59543" lon="4.099">
        <ele>722.40002441406</ele>
        <time>2015-05-31T13:00:30.000Z</time>
      </trkpt>
      <trkpt lat="44.59541" lon="4.09899">
        <ele>722</ele>
        <time>2015-05-31T13:00:55.000Z</time>
      </trkpt>
      <trkpt lat="44.59549" lon="4.0991">
        <ele>721.40002441406</ele>
        <time>2015-05-31T13:01:09.000Z</time>
      </trkpt>
      <trkpt lat="44.59567" lon="4.0993">
        <ele>721.40002441406</ele>
        <time>2015-05-31T13:01:28.000Z</time>
      </trkpt>
      <trkpt lat="44.59579" lon="4.0995">
        <ele>720</ele>
        <time>2015-05-31T13:01:46.000Z</time>
      </trkpt>
      <trkpt lat="44.59592" lon="4.09968">
        <ele>719</ele>
        <time>2015-05-31T13:02:02.000Z</time>
      </trkpt>
      <trkpt lat="44.59603" lon="4.09982">
        <ele>718.40002441406</ele>
        <time>2015-05-31T13:02:19.000Z</time>
      </trkpt>
      <trkpt lat="44.59625" lon="4.09988">
        <ele>723</ele>
        <time>2015-05-31T13:02:36.000Z</time>
      </trkpt>
      <trkpt lat="44.59643" lon="4.09985">
        <ele>729.20001220703</ele>
        <time>2015-05-31T13:02:53.000Z</time>
      </trkpt>
      <trkpt lat="44.59659" lon="4.09987">
        <ele>733.20001220703</ele>
        <time>2015-05-31T13:03:09.000Z</time>
      </trkpt>
      <trkpt lat="44.59663" lon="4.09999">
        <ele>731</ele>
        <time>2015-05-31T13:03:24.000Z</time>
      </trkpt>
      <trkpt lat="44.59657" lon="4.10015">
        <ele>725.20001220703</ele>
        <time>2015-05-31T13:03:42.000Z</time>
      </trkpt>
      <trkpt lat="44.59654" lon="4.10024">
        <ele>722.20001220703</ele>
        <time>2015-05-31T13:03:55.000Z</time>
      </trkpt>
      <trkpt lat="44.59648" lon="4.10041">
        <ele>717.40002441406</ele>
        <time>2015-05-31T13:04:13.000Z</time>
      </trkpt>
      <trkpt lat="44.59651" lon="4.10059">
        <ele>715.59997558594</ele>
        <time>2015-05-31T13:04:30.000Z</time>
      </trkpt>
      <trkpt lat="44.59658" lon="4.10069">
        <ele>716.20001220703</ele>
        <time>2015-05-31T13:04:47.000Z</time>
      </trkpt>
      <trkpt lat="44.59671" lon="4.10078">
        <ele>719</ele>
        <time>2015-05-31T13:05:04.000Z</time>
      </trkpt>
      <trkpt lat="44.59684" lon="4.10084">
        <ele>721.59997558594</ele>
        <time>2015-05-31T13:05:22.000Z</time>
      </trkpt>
      <trkpt lat="44.59686" lon="4.10085">
        <ele>722</ele>
        <time>2015-05-31T13:05:39.000Z</time>
      </trkpt>
      <trkpt lat="44.59688" lon="4.10098">
        <ele>720.79998779297</ele>
        <time>2015-05-31T13:06:00.000Z</time>
      </trkpt>
      <trkpt lat="44.59686" lon="4.10104">
        <ele>719</ele>
        <time>2015-05-31T13:06:21.000Z</time>
      </trkpt>
      <trkpt lat="44.59684" lon="4.10119">
        <ele>717.20001220703</ele>
        <time>2015-05-31T13:06:39.000Z</time>
      </trkpt>
      <trkpt lat="44.59678" lon="4.10138">
        <ele>715.40002441406</ele>
        <time>2015-05-31T13:06:55.000Z</time>
      </trkpt>
      <trkpt lat="44.59675" lon="4.10156">
        <ele>714.40002441406</ele>
        <time>2015-05-31T13:07:13.000Z</time>
      </trkpt>
      <trkpt lat="44.59675" lon="4.10167">
        <ele>714.59997558594</ele>
        <time>2015-05-31T13:07:30.000Z</time>
      </trkpt>
      <trkpt lat="44.59676" lon="4.10176">
        <ele>715</ele>
        <time>2015-05-31T13:07:45.000Z</time>
      </trkpt>
      <trkpt lat="44.59689" lon="4.10206">
        <ele>720.40002441406</ele>
        <time>2015-05-31T13:08:03.000Z</time>
      </trkpt>
      <trkpt lat="44.59692" lon="4.10218">
        <ele>722.20001220703</ele>
        <time>2015-05-31T13:08:20.000Z</time>
      </trkpt>
      <trkpt lat="44.59694" lon="4.10222">
        <ele>722.79998779297</ele>
        <time>2015-05-31T13:08:38.000Z</time>
      </trkpt>
      <trkpt lat="44.59698" lon="4.10225">
        <ele>724.20001220703</ele>
        <time>2015-05-31T13:08:59.000Z</time>
      </trkpt>
      <trkpt lat="44.59699" lon="4.10238">
        <ele>725.20001220703</ele>
        <time>2015-05-31T13:09:15.000Z</time>
      </trkpt>
      <trkpt lat="44.59701" lon="4.10249">
        <ele>726.40002441406</ele>
        <time>2015-05-31T13:09:30.000Z</time>
      </trkpt>
      <trkpt lat="44.59701" lon="4.10267">
        <ele>727.20001220703</ele>
        <time>2015-05-31T13:09:49.000Z</time>
      </trkpt>
      <trkpt lat="44.59698" lon="4.10284">
        <ele>727.59997558594</ele>
        <time>2015-05-31T13:10:07.000Z</time>
      </trkpt>
      <trkpt lat="44.59694" lon="4.10301">
        <ele>729</ele>
        <time>2015-05-31T13:10:22.000Z</time>
      </trkpt>
      <trkpt lat="44.5969" lon="4.10319">
        <ele>730</ele>
        <time>2015-05-31T13:10:40.000Z</time>
      </trkpt>
      <trkpt lat="44.59687" lon="4.1033">
        <ele>730.79998779297</ele>
        <time>2015-05-31T13:10:56.000Z</time>
      </trkpt>
      <trkpt lat="44.5968" lon="4.10353">
        <ele>730.59997558594</ele>
        <time>2015-05-31T13:11:15.000Z</time>
      </trkpt>
      <trkpt lat="44.59683" lon="4.10368">
        <ele>732.40002441406</ele>
        <time>2015-05-31T13:11:32.000Z</time>
      </trkpt>
      <trkpt lat="44.59685" lon="4.10375">
        <ele>732.79998779297</ele>
        <time>2015-05-31T13:11:49.000Z</time>
      </trkpt>
      <trkpt lat="44.59686" lon="4.10378">
        <ele>733</ele>
        <time>2015-05-31T13:12:10.000Z</time>
      </trkpt>
      <trkpt lat="44.59693" lon="4.10389">
        <ele>735.79998779297</ele>
        <time>2015-05-31T13:12:29.000Z</time>
      </trkpt>
      <trkpt lat="44.59699" lon="4.10405">
        <ele>737.79998779297</ele>
        <time>2015-05-31T13:12:47.000Z</time>
      </trkpt>
      <trkpt lat="44.59708" lon="4.10427">
        <ele>740.59997558594</ele>
        <time>2015-05-31T13:13:06.000Z</time>
      </trkpt>
      <trkpt lat="44.59711" lon="4.10436">
        <ele>741.59997558594</ele>
        <time>2015-05-31T13:13:24.000Z</time>
      </trkpt>
      <trkpt lat="44.59715" lon="4.10436">
        <ele>743.59997558594</ele>
        <time>2015-05-31T13:13:50.000Z</time>
      </trkpt>
      <trkpt lat="44.59717" lon="4.10438">
        <ele>744.59997558594</ele>
        <time>2015-05-31T13:14:15.000Z</time>
      </trkpt>
      <trkpt lat="44.59719" lon="4.1044">
        <ele>745.40002441406</ele>
        <time>2015-05-31T13:14:37.000Z</time>
      </trkpt>
      <trkpt lat="44.59721" lon="4.10446">
        <ele>746</ele>
        <time>2015-05-31T13:14:59.000Z</time>
      </trkpt>
      <trkpt lat="44.59721" lon="4.10447">
        <ele>746</ele>
        <time>2015-05-31T13:15:18.000Z</time>
      </trkpt>
      <trkpt lat="44.59723" lon="4.10456">
        <ele>746.20001220703</ele>
        <time>2015-05-31T13:15:33.000Z</time>
      </trkpt>
      <trkpt lat="44.59727" lon="4.10463">
        <ele>747.59997558594</ele>
        <time>2015-05-31T13:15:50.000Z</time>
      </trkpt>
      <trkpt lat="44.59731" lon="4.10464">
        <ele>749.20001220703</ele>
        <time>2015-05-31T13:16:09.000Z</time>
      </trkpt>
      <trkpt lat="44.59735" lon="4.10465">
        <ele>751</ele>
        <time>2015-05-31T13:16:28.000Z</time>
      </trkpt>
      <trkpt lat="44.59742" lon="4.10475">
        <ele>753.79998779297</ele>
        <time>2015-05-31T13:16:48.000Z</time>
      </trkpt>
      <trkpt lat="44.59748" lon="4.10485">
        <ele>755.59997558594</ele>
        <time>2015-05-31T13:17:05.000Z</time>
      </trkpt>
      <trkpt lat="44.59754" lon="4.10498">
        <ele>757.20001220703</ele>
        <time>2015-05-31T13:17:24.000Z</time>
      </trkpt>
      <trkpt lat="44.59761" lon="4.10508">
        <ele>760</ele>
        <time>2015-05-31T13:17:39.000Z</time>
      </trkpt>
      <trkpt lat="44.59766" lon="4.10517">
        <ele>761</ele>
        <time>2015-05-31T13:17:57.000Z</time>
      </trkpt>
      <trkpt lat="44.59772" lon="4.10531">
        <ele>763</ele>
        <time>2015-05-31T13:18:15.000Z</time>
      </trkpt>
      <trkpt lat="44.59773" lon="4.10542">
        <ele>763.40002441406</ele>
        <time>2015-05-31T13:18:35.000Z</time>
      </trkpt>
      <trkpt lat="44.59775" lon="4.10546">
        <ele>764.20001220703</ele>
        <time>2015-05-31T13:18:51.000Z</time>
      </trkpt>
      <trkpt lat="44.59775" lon="4.1055">
        <ele>764.40002441406</ele>
        <time>2015-05-31T13:19:09.000Z</time>
      </trkpt>
      <trkpt lat="44.59779" lon="4.10563">
        <ele>766.20001220703</ele>
        <time>2015-05-31T13:19:25.000Z</time>
      </trkpt>
      <trkpt lat="44.59779" lon="4.10566">
        <ele>766.40002441406</ele>
        <time>2015-05-31T13:19:40.000Z</time>
      </trkpt>
      <trkpt lat="44.59781" lon="4.10571">
        <ele>767.40002441406</ele>
        <time>2015-05-31T13:19:56.000Z</time>
      </trkpt>
      <trkpt lat="44.59787" lon="4.10572">
        <ele>770.20001220703</ele>
        <time>2015-05-31T13:20:12.000Z</time>
      </trkpt>
      <trkpt lat="44.59789" lon="4.10568">
        <ele>771.59997558594</ele>
        <time>2015-05-31T13:20:29.000Z</time>
      </trkpt>
      <trkpt lat="44.59792" lon="4.1057">
        <ele>772.59997558594</ele>
        <time>2015-05-31T13:20:42.000Z</time>
      </trkpt>
      <trkpt lat="44.59792" lon="4.10573">
        <ele>773</ele>
        <time>2015-05-31T13:20:52.000Z</time>
      </trkpt>
      <trkpt lat="44.59799" lon="4.10586">
        <ele>775.79998779297</ele>
        <time>2015-05-31T13:21:06.000Z</time>
      </trkpt>
      <trkpt lat="44.59804" lon="4.10597">
        <ele>778.20001220703</ele>
        <time>2015-05-31T13:21:21.000Z</time>
      </trkpt>
      <trkpt lat="44.59813" lon="4.10604">
        <ele>782.40002441406</ele>
        <time>2015-05-31T13:21:36.000Z</time>
      </trkpt>
      <trkpt lat="44.59818" lon="4.10607">
        <ele>784.79998779297</ele>
        <time>2015-05-31T13:21:51.000Z</time>
      </trkpt>
      <trkpt lat="44.59818" lon="4.10607">
        <ele>785</ele>
        <time>2015-05-31T13:21:57.000Z</time>
      </trkpt>
      <trkpt lat="44.59826" lon="4.10617">
        <ele>786.79998779297</ele>
        <time>2015-05-31T13:22:12.000Z</time>
      </trkpt>
      <trkpt lat="44.59833" lon="4.10624">
        <ele>788</ele>
        <time>2015-05-31T13:22:29.000Z</time>
      </trkpt>
      <trkpt lat="44.59839" lon="4.10629">
        <ele>789.40002441406</ele>
        <time>2015-05-31T13:22:46.000Z</time>
      </trkpt>
      <trkpt lat="44.59843" lon="4.10632">
        <ele>790.40002441406</ele>
        <time>2015-05-31T13:22:58.000Z</time>
      </trkpt>
      <trkpt lat="44.59844" lon="4.10631">
        <ele>790.79998779297</ele>
        <time>2015-05-31T13:23:21.000Z</time>
      </trkpt>
      <trkpt lat="44.59844" lon="4.10631">
        <ele>791</ele>
        <time>2015-05-31T13:23:48.000Z</time>
      </trkpt>
      <trkpt lat="44.59857" lon="4.10634">
        <ele>796</ele>
        <time>2015-05-31T13:24:03.000Z</time>
      </trkpt>
      <trkpt lat="44.59871" lon="4.10639">
        <ele>800.79998779297</ele>
        <time>2015-05-31T13:24:21.000Z</time>
      </trkpt>
      <trkpt lat="44.59884" lon="4.10644">
        <ele>802</ele>
        <time>2015-05-31T13:24:37.000Z</time>
      </trkpt>
      <trkpt lat="44.59893" lon="4.10646">
        <ele>803.40002441406</ele>
        <time>2015-05-31T13:24:51.000Z</time>
      </trkpt>
      <trkpt lat="44.59899" lon="4.10646">
        <ele>804.40002441406</ele>
        <time>2015-05-31T13:25:05.000Z</time>
      </trkpt>
      <trkpt lat="44.59907" lon="4.10646">
        <ele>806.40002441406</ele>
        <time>2015-05-31T13:25:18.000Z</time>
      </trkpt>
      <trkpt lat="44.59918" lon="4.10647">
        <ele>809.59997558594</ele>
        <time>2015-05-31T13:25:34.000Z</time>
      </trkpt>
      <trkpt lat="44.5993" lon="4.10648">
        <ele>813.59997558594</ele>
        <time>2015-05-31T13:25:52.000Z</time>
      </trkpt>
      <trkpt lat="44.59932" lon="4.10645">
        <ele>815.20001220703</ele>
        <time>2015-05-31T13:26:09.000Z</time>
      </trkpt>
      <trkpt lat="44.59932" lon="4.10644">
        <ele>816</ele>
        <time>2015-05-31T13:26:32.000Z</time>
      </trkpt>
      <trkpt lat="44.59938" lon="4.10644">
        <ele>817.79998779297</ele>
        <time>2015-05-31T13:26:45.000Z</time>
      </trkpt>
      <trkpt lat="44.59944" lon="4.10643">
        <ele>820.40002441406</ele>
        <time>2015-05-31T13:27:00.000Z</time>
      </trkpt>
      <trkpt lat="44.59948" lon="4.10639">
        <ele>823.40002441406</ele>
        <time>2015-05-31T13:27:14.000Z</time>
      </trkpt>
      <trkpt lat="44.59952" lon="4.10637">
        <ele>825.59997558594</ele>
        <time>2015-05-31T13:27:30.000Z</time>
      </trkpt>
      <trkpt lat="44.59961" lon="4.10632">
        <ele>828</ele>
        <time>2015-05-31T13:27:45.000Z</time>
      </trkpt>
      <trkpt lat="44.59968" lon="4.10625">
        <ele>831.20001220703</ele>
        <time>2015-05-31T13:28:00.000Z</time>
      </trkpt>
      <trkpt lat="44.59971" lon="4.10621">
        <ele>832.40002441406</ele>
        <time>2015-05-31T13:28:12.000Z</time>
      </trkpt>
      <trkpt lat="44.59972" lon="4.10622">
        <ele>832.20001220703</ele>
        <time>2015-05-31T13:28:30.000Z</time>
      </trkpt>
      <trkpt lat="44.59972" lon="4.10619">
        <ele>833.20001220703</ele>
        <time>2015-05-31T13:28:45.000Z</time>
      </trkpt>
      <trkpt lat="44.59974" lon="4.10615">
        <ele>834.59997558594</ele>
        <time>2015-05-31T13:29:03.000Z</time>
      </trkpt>
      <trkpt lat="44.59975" lon="4.10614">
        <ele>834.79998779297</ele>
        <time>2015-05-31T13:29:26.000Z</time>
      </trkpt>
      <trkpt lat="44.59975" lon="4.10614">
        <ele>834.79998779297</ele>
        <time>2015-05-31T13:29:44.000Z</time>
      </trkpt>
      <trkpt lat="44.59976" lon="4.10616">
        <ele>834.40002441406</ele>
        <time>2015-05-31T13:30:01.000Z</time>
      </trkpt>
      <trkpt lat="44.59976" lon="4.1062">
        <ele>832.79998779297</ele>
        <time>2015-05-31T13:30:16.000Z</time>
      </trkpt>
      <trkpt lat="44.59976" lon="4.10623">
        <ele>831.40002441406</ele>
        <time>2015-05-31T13:30:33.000Z</time>
      </trkpt>
      <trkpt lat="44.59975" lon="4.1063">
        <ele>829</ele>
        <time>2015-05-31T13:30:51.000Z</time>
      </trkpt>
      <trkpt lat="44.59981" lon="4.10638">
        <ele>825.79998779297</ele>
        <time>2015-05-31T13:31:07.000Z</time>
      </trkpt>
      <trkpt lat="44.59989" lon="4.10641">
        <ele>824.40002441406</ele>
        <time>2015-05-31T13:31:24.000Z</time>
      </trkpt>
      <trkpt lat="44.59993" lon="4.10647">
        <ele>822.20001220703</ele>
        <time>2015-05-31T13:31:39.000Z</time>
      </trkpt>
      <trkpt lat="44.59996" lon="4.10649">
        <ele>821.40002441406</ele>
        <time>2015-05-31T13:31:53.000Z</time>
      </trkpt>
      <trkpt lat="44.59998" lon="4.10654">
        <ele>819.59997558594</ele>
        <time>2015-05-31T13:32:09.000Z</time>
      </trkpt>
      <trkpt lat="44.6" lon="4.10657">
        <ele>818.40002441406</ele>
        <time>2015-05-31T13:32:25.000Z</time>
      </trkpt>
      <trkpt lat="44.60003" lon="4.10665">
        <ele>815.20001220703</ele>
        <time>2015-05-31T13:32:44.000Z</time>
      </trkpt>
      <trkpt lat="44.60005" lon="4.10671">
        <ele>812.40002441406</ele>
        <time>2015-05-31T13:32:57.000Z</time>
      </trkpt>
      <trkpt lat="44.60005" lon="4.10678">
        <ele>809.59997558594</ele>
        <time>2015-05-31T13:33:15.000Z</time>
      </trkpt>
      <trkpt lat="44.60008" lon="4.10692">
        <ele>803.59997558594</ele>
        <time>2015-05-31T13:33:29.000Z</time>
      </trkpt>
      <trkpt lat="44.60009" lon="4.10701">
        <ele>800.59997558594</ele>
        <time>2015-05-31T13:33:45.000Z</time>
      </trkpt>
      <trkpt lat="44.6001" lon="4.10707">
        <ele>798.79998779297</ele>
        <time>2015-05-31T13:34:00.000Z</time>
      </trkpt>
      <trkpt lat="44.60006" lon="4.10717">
        <ele>795.59997558594</ele>
        <time>2015-05-31T13:34:16.000Z</time>
      </trkpt>
      <trkpt lat="44.60005" lon="4.10722">
        <ele>793.79998779297</ele>
        <time>2015-05-31T13:34:30.000Z</time>
      </trkpt>
      <trkpt lat="44.60001" lon="4.10726">
        <ele>792.59997558594</ele>
        <time>2015-05-31T13:34:45.000Z</time>
      </trkpt>
      <trkpt lat="44.60005" lon="4.10727">
        <ele>792.40002441406</ele>
        <time>2015-05-31T13:35:03.000Z</time>
      </trkpt>
      <trkpt lat="44.60007" lon="4.10733">
        <ele>790.59997558594</ele>
        <time>2015-05-31T13:35:17.000Z</time>
      </trkpt>
      <trkpt lat="44.60008" lon="4.10735">
        <ele>790</ele>
        <time>2015-05-31T13:35:32.000Z</time>
      </trkpt>
      <trkpt lat="44.6001" lon="4.10737">
        <ele>789.40002441406</ele>
        <time>2015-05-31T13:35:48.000Z</time>
      </trkpt>
      <trkpt lat="44.60009" lon="4.10748">
        <ele>786.20001220703</ele>
        <time>2015-05-31T13:36:03.000Z</time>
      </trkpt>
      <trkpt lat="44.60008" lon="4.10751">
        <ele>784.79998779297</ele>
        <time>2015-05-31T13:36:20.000Z</time>
      </trkpt>
      <trkpt lat="44.60006" lon="4.10754">
        <ele>783.79998779297</ele>
        <time>2015-05-31T13:36:34.000Z</time>
      </trkpt>
      <trkpt lat="44.60006" lon="4.10755">
        <ele>783.40002441406</ele>
        <time>2015-05-31T13:36:55.000Z</time>
      </trkpt>
      <trkpt lat="44.60006" lon="4.10755">
        <ele>783.40002441406</ele>
        <time>2015-05-31T13:37:18.000Z</time>
      </trkpt>
      <trkpt lat="44.60007" lon="4.10758">
        <ele>782.20001220703</ele>
        <time>2015-05-31T13:37:35.000Z</time>
      </trkpt>
      <trkpt lat="44.60008" lon="4.10764">
        <ele>780.40002441406</ele>
        <time>2015-05-31T13:37:53.000Z</time>
      </trkpt>
      <trkpt lat="44.60009" lon="4.10764">
        <ele>780.20001220703</ele>
        <time>2015-05-31T13:38:06.000Z</time>
      </trkpt>
      <trkpt lat="44.60011" lon="4.10766">
        <ele>780</ele>
        <time>2015-05-31T13:38:20.000Z</time>
      </trkpt>
      <trkpt lat="44.60011" lon="4.10767">
        <ele>779.59997558594</ele>
        <time>2015-05-31T13:38:42.000Z</time>
      </trkpt>
      <trkpt lat="44.60013" lon="4.10764">
        <ele>780.59997558594</ele>
        <time>2015-05-31T13:38:57.000Z</time>
      </trkpt>
      <trkpt lat="44.60014" lon="4.10765">
        <ele>780.40002441406</ele>
        <time>2015-05-31T13:39:16.000Z</time>
      </trkpt>
      <trkpt lat="44.60015" lon="4.10764">
        <ele>781</ele>
        <time>2015-05-31T13:39:31.000Z</time>
      </trkpt>
      <trkpt lat="44.60017" lon="4.10766">
        <ele>780.20001220703</ele>
        <time>2015-05-31T13:39:44.000Z</time>
      </trkpt>
      <trkpt lat="44.60018" lon="4.10772">
        <ele>778.40002441406</ele>
        <time>2015-05-31T13:39:56.000Z</time>
      </trkpt>
      <trkpt lat="44.60018" lon="4.1078">
        <ele>776.20001220703</ele>
        <time>2015-05-31T13:40:15.000Z</time>
      </trkpt>
      <trkpt lat="44.60016" lon="4.10788">
        <ele>775.20001220703</ele>
        <time>2015-05-31T13:40:30.000Z</time>
      </trkpt>
      <trkpt lat="44.60012" lon="4.10799">
        <ele>773.59997558594</ele>
        <time>2015-05-31T13:40:44.000Z</time>
      </trkpt>
      <trkpt lat="44.60011" lon="4.10811">
        <ele>772.20001220703</ele>
        <time>2015-05-31T13:40:58.000Z</time>
      </trkpt>
      <trkpt lat="44.60005" lon="4.10836">
        <ele>768.40002441406</ele>
        <time>2015-05-31T13:41:16.000Z</time>
      </trkpt>
      <trkpt lat="44.60005" lon="4.10848">
        <ele>765.79998779297</ele>
        <time>2015-05-31T13:41:31.000Z</time>
      </trkpt>
      <trkpt lat="44.60001" lon="4.10858">
        <ele>762.40002441406</ele>
        <time>2015-05-31T13:41:46.000Z</time>
      </trkpt>
      <trkpt lat="44.59998" lon="4.10866">
        <ele>761.59997558594</ele>
        <time>2015-05-31T13:42:01.000Z</time>
      </trkpt>
      <trkpt lat="44.59992" lon="4.10884">
        <ele>760.79998779297</ele>
        <time>2015-05-31T13:42:16.000Z</time>
      </trkpt>
      <trkpt lat="44.59986" lon="4.10897">
        <ele>759.40002441406</ele>
        <time>2015-05-31T13:42:30.000Z</time>
      </trkpt>
      <trkpt lat="44.59982" lon="4.10906">
        <ele>757.40002441406</ele>
        <time>2015-05-31T13:42:45.000Z</time>
      </trkpt>
      <trkpt lat="44.59979" lon="4.10913">
        <ele>755.59997558594</ele>
        <time>2015-05-31T13:43:01.000Z</time>
      </trkpt>
      <trkpt lat="44.59975" lon="4.10931">
        <ele>752.20001220703</ele>
        <time>2015-05-31T13:43:15.000Z</time>
      </trkpt>
      <trkpt lat="44.59973" lon="4.10935">
        <ele>751.20001220703</ele>
        <time>2015-05-31T13:43:30.000Z</time>
      </trkpt>
      <trkpt lat="44.59966" lon="4.1095">
        <ele>748</ele>
        <time>2015-05-31T13:43:44.000Z</time>
      </trkpt>
      <trkpt lat="44.5996" lon="4.10966">
        <ele>747.40002441406</ele>
        <time>2015-05-31T13:43:56.000Z</time>
      </trkpt>
      <trkpt lat="44.59953" lon="4.10981">
        <ele>746.79998779297</ele>
        <time>2015-05-31T13:44:15.000Z</time>
      </trkpt>
      <trkpt lat="44.59945" lon="4.10989">
        <ele>746</ele>
        <time>2015-05-31T13:44:28.000Z</time>
      </trkpt>
      <trkpt lat="44.59935" lon="4.10996">
        <ele>744.20001220703</ele>
        <time>2015-05-31T13:44:42.000Z</time>
      </trkpt>
      <trkpt lat="44.59929" lon="4.11001">
        <ele>743.20001220703</ele>
        <time>2015-05-31T13:45:00.000Z</time>
      </trkpt>
      <trkpt lat="44.59918" lon="4.11009">
        <ele>741.20001220703</ele>
        <time>2015-05-31T13:45:15.000Z</time>
      </trkpt>
      <trkpt lat="44.59915" lon="4.11013">
        <ele>740.40002441406</ele>
        <time>2015-05-31T13:45:29.000Z</time>
      </trkpt>
      <trkpt lat="44.59907" lon="4.11017">
        <ele>738.59997558594</ele>
        <time>2015-05-31T13:45:44.000Z</time>
      </trkpt>
      <trkpt lat="44.59898" lon="4.11014">
        <ele>736</ele>
        <time>2015-05-31T13:45:58.000Z</time>
      </trkpt>
      <trkpt lat="44.59888" lon="4.11012">
        <ele>733.20001220703</ele>
        <time>2015-05-31T13:46:13.000Z</time>
      </trkpt>
      <trkpt lat="44.59882" lon="4.11013">
        <ele>731.79998779297</ele>
        <time>2015-05-31T13:46:30.000Z</time>
      </trkpt>
      <trkpt lat="44.59877" lon="4.11013">
        <ele>730.40002441406</ele>
        <time>2015-05-31T13:46:47.000Z</time>
      </trkpt>
      <trkpt lat="44.59865" lon="4.1102">
        <ele>728</ele>
        <time>2015-05-31T13:47:00.000Z</time>
      </trkpt>
      <trkpt lat="44.59852" lon="4.11032">
        <ele>725.59997558594</ele>
        <time>2015-05-31T13:47:16.000Z</time>
      </trkpt>
      <trkpt lat="44.59845" lon="4.11039">
        <ele>725</ele>
        <time>2015-05-31T13:47:33.000Z</time>
      </trkpt>
      <trkpt lat="44.59843" lon="4.11044">
        <ele>725.59997558594</ele>
        <time>2015-05-31T13:47:47.000Z</time>
      </trkpt>
      <trkpt lat="44.59841" lon="4.11059">
        <ele>727.59997558594</ele>
        <time>2015-05-31T13:48:01.000Z</time>
      </trkpt>
      <trkpt lat="44.59837" lon="4.11064">
        <ele>727.40002441406</ele>
        <time>2015-05-31T13:48:16.000Z</time>
      </trkpt>
      <trkpt lat="44.59828" lon="4.11066">
        <ele>725.40002441406</ele>
        <time>2015-05-31T13:48:30.000Z</time>
      </trkpt>
      <trkpt lat="44.59817" lon="4.11069">
        <ele>723</ele>
        <time>2015-05-31T13:48:45.000Z</time>
      </trkpt>
      <trkpt lat="44.59816" lon="4.1107">
        <ele>722.40002441406</ele>
        <time>2015-05-31T13:48:47.000Z</time>
      </trkpt>
      <trkpt lat="44.59808" lon="4.11074">
        <ele>720.79998779297</ele>
        <time>2015-05-31T13:49:01.000Z</time>
      </trkpt>
      <trkpt lat="44.59801" lon="4.11081">
        <ele>719.79998779297</ele>
        <time>2015-05-31T13:49:09.000Z</time>
      </trkpt>
      <trkpt lat="44.5979" lon="4.11105">
        <ele>719.59997558594</ele>
        <time>2015-05-31T13:49:29.000Z</time>
      </trkpt>
      <trkpt lat="44.59785" lon="4.11121">
        <ele>719.59997558594</ele>
        <time>2015-05-31T13:49:44.000Z</time>
      </trkpt>
      <trkpt lat="44.59783" lon="4.1114">
        <ele>720.20001220703</ele>
        <time>2015-05-31T13:50:01.000Z</time>
      </trkpt>
      <trkpt lat="44.59782" lon="4.11146">
        <ele>720.20001220703</ele>
        <time>2015-05-31T13:50:15.000Z</time>
      </trkpt>
      <trkpt lat="44.59776" lon="4.11169">
        <ele>720</ele>
        <time>2015-05-31T13:50:34.000Z</time>
      </trkpt>
      <trkpt lat="44.59777" lon="4.11192">
        <ele>720.59997558594</ele>
        <time>2015-05-31T13:50:52.000Z</time>
      </trkpt>
      <trkpt lat="44.59782" lon="4.11216">
        <ele>721.20001220703</ele>
        <time>2015-05-31T13:51:11.000Z</time>
      </trkpt>
      <trkpt lat="44.59781" lon="4.11239">
        <ele>720.20001220703</ele>
        <time>2015-05-31T13:51:28.000Z</time>
      </trkpt>
      <trkpt lat="44.59782" lon="4.11252">
        <ele>720</ele>
        <time>2015-05-31T13:51:43.000Z</time>
      </trkpt>
      <trkpt lat="44.59779" lon="4.11246">
        <ele>719.40002441406</ele>
        <time>2015-05-31T13:51:58.000Z</time>
      </trkpt>
      <trkpt lat="44.59781" lon="4.11251">
        <ele>719.59997558594</ele>
        <time>2015-05-31T13:52:15.000Z</time>
      </trkpt>
      <trkpt lat="44.59781" lon="4.11251">
        <ele>719.79998779297</ele>
        <time>2015-05-31T13:52:39.000Z</time>
      </trkpt>
      <trkpt lat="44.59778" lon="4.11234">
        <ele>719.40002441406</ele>
        <time>2015-05-31T13:52:57.000Z</time>
      </trkpt>
      <trkpt lat="44.59771" lon="4.11216">
        <ele>718.20001220703</ele>
        <time>2015-05-31T13:53:12.000Z</time>
      </trkpt>
      <trkpt lat="44.59767" lon="4.11195">
        <ele>717.59997558594</ele>
        <time>2015-05-31T13:53:28.000Z</time>
      </trkpt>
      <trkpt lat="44.59772" lon="4.11169">
        <ele>719.20001220703</ele>
        <time>2015-05-31T13:53:46.000Z</time>
      </trkpt>
      <trkpt lat="44.59766" lon="4.11168">
        <ele>717.79998779297</ele>
        <time>2015-05-31T13:54:00.000Z</time>
      </trkpt>
      <trkpt lat="44.59758" lon="4.11169">
        <ele>716</ele>
        <time>2015-05-31T13:54:17.000Z</time>
      </trkpt>
      <trkpt lat="44.59753" lon="4.11168">
        <ele>714.59997558594</ele>
        <time>2015-05-31T13:54:37.000Z</time>
      </trkpt>
      <trkpt lat="44.59748" lon="4.11169">
        <ele>713</ele>
        <time>2015-05-31T13:54:55.000Z</time>
      </trkpt>
      <trkpt lat="44.59736" lon="4.11167">
        <ele>709.59997558594</ele>
        <time>2015-05-31T13:55:11.000Z</time>
      </trkpt>
      <trkpt lat="44.59731" lon="4.11167">
        <ele>708</ele>
        <time>2015-05-31T13:55:17.000Z</time>
      </trkpt>
      <trkpt lat="44.59723" lon="4.11161">
        <ele>706</ele>
        <time>2015-05-31T13:55:32.000Z</time>
      </trkpt>
      <trkpt lat="44.59714" lon="4.11154">
        <ele>703.59997558594</ele>
        <time>2015-05-31T13:55:52.000Z</time>
      </trkpt>
      <trkpt lat="44.59702" lon="4.11148">
        <ele>700.40002441406</ele>
        <time>2015-05-31T13:56:07.000Z</time>
      </trkpt>
      <trkpt lat="44.59698" lon="4.11142">
        <ele>699.59997558594</ele>
        <time>2015-05-31T13:56:20.000Z</time>
      </trkpt>
      <trkpt lat="44.59687" lon="4.11137">
        <ele>696.59997558594</ele>
        <time>2015-05-31T13:56:37.000Z</time>
      </trkpt>
      <trkpt lat="44.59672" lon="4.11131">
        <ele>692.79998779297</ele>
        <time>2015-05-31T13:56:52.000Z</time>
      </trkpt>
      <trkpt lat="44.59659" lon="4.11125">
        <ele>689.59997558594</ele>
        <time>2015-05-31T13:57:07.000Z</time>
      </trkpt>
      <trkpt lat="44.59648" lon="4.11119">
        <ele>686.79998779297</ele>
        <time>2015-05-31T13:57:22.000Z</time>
      </trkpt>
      <trkpt lat="44.59641" lon="4.11124">
        <ele>684.59997558594</ele>
        <time>2015-05-31T13:57:36.000Z</time>
      </trkpt>
      <trkpt lat="44.59637" lon="4.11143">
        <ele>683.59997558594</ele>
        <time>2015-05-31T13:57:53.000Z</time>
      </trkpt>
      <trkpt lat="44.59634" lon="4.11163">
        <ele>684</ele>
        <time>2015-05-31T13:58:10.000Z</time>
      </trkpt>
      <trkpt lat="44.59634" lon="4.11179">
        <ele>684.59997558594</ele>
        <time>2015-05-31T13:58:26.000Z</time>
      </trkpt>
      <trkpt lat="44.59633" lon="4.11182">
        <ele>684.40002441406</ele>
        <time>2015-05-31T13:58:42.000Z</time>
      </trkpt>
      <trkpt lat="44.59636" lon="4.11185">
        <ele>685.20001220703</ele>
        <time>2015-05-31T13:58:57.000Z</time>
      </trkpt>
      <trkpt lat="44.59638" lon="4.1119">
        <ele>685.79998779297</ele>
        <time>2015-05-31T13:59:10.000Z</time>
      </trkpt>
      <trkpt lat="44.59641" lon="4.112">
        <ele>686.20001220703</ele>
        <time>2015-05-31T13:59:25.000Z</time>
      </trkpt>
      <trkpt lat="44.59642" lon="4.11201">
        <ele>686.20001220703</ele>
        <time>2015-05-31T13:59:40.000Z</time>
      </trkpt>
      <trkpt lat="44.59636" lon="4.11194">
        <ele>685.40002441406</ele>
        <time>2015-05-31T13:59:55.000Z</time>
      </trkpt>
      <trkpt lat="44.59633" lon="4.11189">
        <ele>684.59997558594</ele>
        <time>2015-05-31T14:00:08.000Z</time>
      </trkpt>
      <trkpt lat="44.59634" lon="4.11187">
        <ele>684.79998779297</ele>
        <time>2015-05-31T14:00:27.000Z</time>
      </trkpt>
      <trkpt lat="44.59634" lon="4.11191">
        <ele>684.79998779297</ele>
        <time>2015-05-31T14:00:40.000Z</time>
      </trkpt>
      <trkpt lat="44.59631" lon="4.11208">
        <ele>684</ele>
        <time>2015-05-31T14:00:50.000Z</time>
      </trkpt>
      <trkpt lat="44.5963" lon="4.11228">
        <ele>683</ele>
        <time>2015-05-31T14:01:08.000Z</time>
      </trkpt>
      <trkpt lat="44.59632" lon="4.11241">
        <ele>682.79998779297</ele>
        <time>2015-05-31T14:01:22.000Z</time>
      </trkpt>
      <trkpt lat="44.59631" lon="4.11246">
        <ele>682.59997558594</ele>
        <time>2015-05-31T14:01:24.000Z</time>
      </trkpt>
      <trkpt lat="44.59629" lon="4.11253">
        <ele>681.79998779297</ele>
        <time>2015-05-31T14:01:27.000Z</time>
      </trkpt>
      <trkpt lat="44.5961" lon="4.11248">
        <ele>678</ele>
        <time>2015-05-31T14:01:43.000Z</time>
      </trkpt>
      <trkpt lat="44.59602" lon="4.11239">
        <ele>676.20001220703</ele>
        <time>2015-05-31T14:01:56.000Z</time>
      </trkpt>
      <trkpt lat="44.59587" lon="4.11217">
        <ele>673.40002441406</ele>
        <time>2015-05-31T14:02:13.000Z</time>
      </trkpt>
      <trkpt lat="44.5958" lon="4.11192">
        <ele>672.40002441406</ele>
        <time>2015-05-31T14:02:31.000Z</time>
      </trkpt>
      <trkpt lat="44.59583" lon="4.11181">
        <ele>672.79998779297</ele>
        <time>2015-05-31T14:02:46.000Z</time>
      </trkpt>
      <trkpt lat="44.5958" lon="4.11173">
        <ele>671.79998779297</ele>
        <time>2015-05-31T14:03:01.000Z</time>
      </trkpt>
      <trkpt lat="44.5958" lon="4.11165">
        <ele>671.59997558594</ele>
        <time>2015-05-31T14:03:14.000Z</time>
      </trkpt>
      <trkpt lat="44.59582" lon="4.11173">
        <ele>672.40002441406</ele>
        <time>2015-05-31T14:03:27.000Z</time>
      </trkpt>
      <trkpt lat="44.59585" lon="4.11175">
        <ele>673</ele>
        <time>2015-05-31T14:03:56.000Z</time>
      </trkpt>
      <trkpt lat="44.59587" lon="4.11177">
        <ele>673.79998779297</ele>
        <time>2015-05-31T14:04:21.000Z</time>
      </trkpt>
      <trkpt lat="44.59587" lon="4.11177">
        <ele>673.79998779297</ele>
        <time>2015-05-31T14:04:48.000Z</time>
      </trkpt>
      <trkpt lat="44.59587" lon="4.1118">
        <ele>673.79998779297</ele>
        <time>2015-05-31T14:05:00.000Z</time>
      </trkpt>
      <trkpt lat="44.59589" lon="4.11183">
        <ele>674.40002441406</ele>
        <time>2015-05-31T14:05:12.000Z</time>
      </trkpt>
      <trkpt lat="44.5959" lon="4.11183">
        <ele>674.59997558594</ele>
        <time>2015-05-31T14:05:36.000Z</time>
      </trkpt>
      <trkpt lat="44.59589" lon="4.11183">
        <ele>674.40002441406</ele>
        <time>2015-05-31T14:06:05.000Z</time>
      </trkpt>
    </trkseg>
  </trk>
</gpx>